GFSCGP_con_mucape_000.txt.gz
CAPE
0 0 0 0 0 0 0 0 0 0 0 0 0 0 0 0 0 0 0 0 0 0 0 11 31 0 4 368 490 329 75 0 0 0 0 0 0 0 0 0 0 0 0 0
0 0 0 0 0 0 0 0 0 0 0 0 0 0 0 0 0 0 0 0 0 0 0 0 0 0 0 32 96 3 0 0 0 0 0 0 0 0 0 0 0 0 0 0
0 0 0 0 0 0 0 0 0 0 0 0 0 0 0 0 0 0 0 0 0 0 0 0 0 0 0 0 0 0 0 0 0 0 0 0 0 0 0 0 0 0 0 0
0 0 0 0 0 0 0 0 0 0 0 0 0 0 0 0 0 0 0 0 0 0 0 0 0 0 0 0 0 0 0 0 0 0 0 0 0 0 0 1 0 0 0 0
0 0 0 0 0 0 0 0 0 0 0 0 0 0 0 0 0 0 0 0 0 0 0 0 0 0 0 0 0 0 0 0 0 0 0 0 0 0 0 0 0 0 0 0
0 0 0 0 0 0 0 0 0 0 0 0 0 0 0 0 0 0 0 0 0 0 0 0 0 0 0 0 0 0 0 0 0 0 0 0 0 0 0 0 0 0 0 0
0 0 0 0 0 0 0 0 0 0 0 0 0 0 0 0 0 0 0 0 0 0 0 0 0 0 0 0 0 0 0 0 0 0 0 0 0 0 0 0 0 0 0 0
0 0 0 0 0 0 0 0 0 0 0 0 0 0 0 0 0 0 0 0 0 0 0 2 0 0 0 3 5 1 9 6 1 0 0 0 0 0 0 0 0 0 0 0
0 0 0 0 0 0 0 0 0 0 0 0 0 0 0 0 0 0 0 0 0 0 0 0 0 0 0 0 4 10 9 0 0 0 0 0 0 0 0 0 0 0 0 0
0 0 0 0 0 0 0 0 0 0 0 0 0 0 0 0 0 0 0 0 0 0 0 0 2 1 8 6 0 0 0 0 0 0 0 0 0 0 0 0 0 0 3 25
0 0 0 0 0 0 0 0 0 0 0 0 0 0 0 0 0 0 1 2 0 0 0 4 0 0 0 0 0 0 0 0 0 0 0 0 0 0 0 0 0 9 22 14
0 0 0 0 0 0 0 0 0 0 0 0 0 0 0 0 0 0 5 3 0 1 11 18 7 0 4 1 0 0 0 0 2 8 0 0 0 0 0 18 19 22 36 39
0 0 0 0 0 0 0 0 0 0 0 0 0 0 0 1 0 6 1 0 1 4 7 2 12 8 1 1 0 5 7 0 0 0 0 0 4 14 18 23 27 42 34 30
0 0 0 0 0 0 0 0 0 0 0 0 0 0 0 0 1 2 0 1 16 16 13 15 12 17 6 0 0 5 0 0 0 0 0 1 12 30 25 21 22 22 19 0
0 0 0 0 0 0 0 0 0 0 0 0 0 0 0 1 0 0 0 20 18 9 3 0 0 0 0 0 0 0 0 0 0 0 0 0 1 3 3 0 0 0 4 0
0 0 0 0 0 0 0 0 0 0 0 0 0 0 0 0 0 2 15 14 11 1 0 0 0 0 0 0 0 0 0 0 0 3 0 0 0 0 0 0 0 0 0 0
0 0 0 0 0 0 0 0 0 0 0 0 0 0 0 2 9 20 23 3 0 0 0 0 0 0 0 0 21 0 0 0 1 1 0 0 0 0 0 0 0 0 0 0
0 0 0 0 0 0 0 0 0 0 0 0 0 0 1 15 17 37 0 0 0 0 0 0 0 0 0 23 11 0 0 0 2 2 4 0 0 0 0 0 1 2 1 2
0 0 0 0 0 0 0 0 0 0 0 0 0 5 14 17 3 0 0 0 0 1 4 0 0 0 1 54 1 0 0 2 3 14 11 0 1 0 0 2 6 9 5 10
0 0 0 0 0 0 0 0 0 0 0 0 3 0 0 0 0 0 0 0 0 0 0 0 0 0 44 48 1 13 19 20 11 6 31 0 0 0 0 2 8 12 16 4
0 0 0 0 0 0 0 0 0 0 0 6 3 0 1 0 0 0 0 0 0 0 0 0 0 0 4 17 20 33 21 1 1 6 0 21 7 0 0 4 13 27 23 0
0 0 0 0 0 0 0 0 0 31 0 4 0 0 0 0 0 0 0 0 0 0 0 0 0 0 0 5 28 23 3 3 7 28 44 29 2 0 0 14 25 31 0 0
0 0 0 0 0 21 22 0 0 0 0 0 0 0 0 0 0 0 0 0 0 0 0 0 0 0 0 17 72 18 3 5 8 0 23 19 0 0 11 27 34 0 0 0
2 0 0 0 1 5 38 31 0 2 1 0 0 3 0 0 0 0 0 0 0 0 0 0 0 0 1 23 85 10 0 0 1 0 6 11 2 4 7 23 0 0 0 0
8 7 0 0 12 25 5 15 1 7 1 1 0 0 0 0 0 0 0 0 0 0 0 0 0 2 2 14 36 15 10 2 4 0 0 0 0 7 13 3 0 0 0 0
7 12 0 0 16 17 11 0 6 9 0 0 0 0 0 0 0 0 0 0 0 0 0 0 3 6 6 9 11 1 0 3 0 0 0 2 3 20 3 0 0 0 0 0

GFSCGP_con_mucape_003.txt.gz
CAPE
0 2 1 0 0 0 0 0 0 0 0 0 0 0 0 0 0 0 0 0 0 0 132 340 8 18 110 443 356 422 204 113 54 36 0 0 0 0 0 4 0 11 6 0
0 0 0 0 0 0 0 0 0 0 0 0 0 0 0 0 0 0 0 0 0 0 0 0 0 1 45 465 492 249 78 55 0 0 0 0 0 0 3 7 0 0 0 0
0 0 0 0 0 0 0 0 0 0 0 0 0 0 0 0 0 0 0 0 0 0 0 0 1 24 51 57 58 32 52 45 0 0 0 0 0 0 0 0 0 0 0 0
0 0 0 0 0 0 0 0 0 0 0 16 0 119 0 0 0 0 0 0 0 0 0 0 0 0 6 0 0 0 0 0 0 0 0 0 0 0 0 0 0 0 0 0
0 0 0 0 0 0 0 0 0 0 0 0 0 4 18 0 0 0 0 0 0 0 0 0 0 0 0 0 0 0 0 0 0 0 0 0 0 2 15 0 0 0 0 0
0 0 0 0 0 0 0 0 0 4 36 39 44 4 203 25 0 0 0 0 0 0 0 0 0 0 0 0 0 0 0 0 0 0 1 5 0 0 0 0 0 0 0 0
0 0 0 0 0 0 0 3 151 172 116 176 0 0 39 0 0 0 0 0 0 0 0 0 0 0 0 0 0 0 0 1 0 4 0 0 0 0 0 0 0 0 0 0
0 6 0 0 0 0 0 1 101 0 22 43 0 0 26 0 0 0 0 0 0 0 0 0 0 0 4 0 0 0 3 14 0 0 0 0 0 0 0 0 0 0 0 5
0 0 0 0 0 0 0 0 0 0 0 0 0 4 1 0 0 0 0 0 3 5 7 1 3 7 0 0 0 0 0 0 0 0 0 0 0 0 0 0 0 0 2 1
0 3 0 0 0 0 0 0 3 0 0 0 2 0 83 0 2 4 15 18 25 25 30 39 36 30 29 17 7 9 6 10 9 6 0 0 1 2 1 0 0 5 17 29
0 0 0 0 0 0 2 4 0 0 0 0 0 11 9 1 0 2 4 18 31 51 61 60 43 24 38 42 49 30 32 14 1 13 9 10 0 0 0 4 17 18 15 41
0 0 0 0 0 0 0 0 0 0 0 0 0 0 2 5 8 10 26 27 25 26 36 39 38 26 30 27 25 32 3 3 4 14 20 0 0 3 9 22 17 23 41 39
0 0 0 0 0 1 0 0 0 0 0 0 78 16 34 34 5 15 32 24 30 25 17 19 23 42 31 23 3 0 0 0 0 0 0 0 0 1 9 13 23 29 44 49
0 0 0 0 0 0 0 0 0 0 0 0 23 54 42 26 26 20 26 42 15 6 15 13 8 0 0 3 3 5 0 6 12 0 0 1 0 2 7 15 22 27 22 2
0 0 0 0 0 0 0 0 0 0 0 0 14 44 37 30 5 17 34 20 22 10 14 7 3 0 0 0 0 0 26 31 31 14 10 7 2 6 11 13 4 0 0 2
0 0 0 0 0 0 0 0 0 0 3 12 30 27 39 10 26 36 14 17 7 11 0 0 0 0 1 0 0 1 55 53 34 23 34 17 15 18 13 0 0 0 6 7
0 0 0 0 0 0 0 0 0 0 13 15 12 35 27 39 23 4 9 31 13 0 0 0 0 0 0 1 5 30 61 56 37 72 53 33 24 24 4 0 6 8 16 26
0 0 0 0 0 0 1 0 0 0 0 8 27 25 24 12 15 12 2 4 0 0 0 2 9 2 0 0 1 45 81 76 81 69 49 42 32 31 21 11 13 17 30 33
0 4 0 14 0 0 0 0 0 0 0 1 13 26 9 20 21 19 4 0 0 0 3 3 2 0 0 0 2 55 78 83 80 65 45 25 56 60 19 16 22 35 38 37
0 2 26 7 0 0 22 9 0 0 0 5 15 7 0 2 0 0 0 0 0 0 1 7 11 1 0 0 0 7 38 69 80 44 28 36 43 37 32 27 37 38 34 28
0 0 8 0 0 0 9 0 0 0 45 43 0 0 0 0 0 0 0 0 3 4 9 7 6 1 0 0 2 13 41 79 42 13 9 60 56 49 31 31 47 36 33 38
0 0 0 0 0 0 0 0 0 61 50 19 0 0 0 2 0 0 0 0 5 6 2 1 0 0 0 1 11 20 37 79 20 20 46 25 27 22 18 42 37 32 27 25
0 2 26 0 0 37 38 17 60 36 25 4 12 0 0 0 0 0 0 4 4 1 0 0 0 0 3 11 22 27 65 93 26 17 31 1 21 14 24 26 30 25 20 5
0 4 43 0 3 23 20 43 45 22 31 0 3 8 0 3 6 3 6 10 1 0 0 0 1 8 23 34 32 41 43 46 26 6 0 11 10 8 7 23 18 12 0 0
3 15 31 63 32 33 21 20 11 26 1 7 17 23 8 0 4 15 16 5 2 1 3 3 15 30 45 50 37 26 23 5 0 0 0 0 4 20 20 18 8 0 0 0
0 9 100 112 35 20 33 19 53 55 48 40 4 1 1 9 23 20 8 4 4 4 6 19 22 38 43 33 24 14 6 0 0 0 0 8 6 21 14 16 3 0 0 0

GFSCGP_con_mucape_006.txt.gz
CAPE
0 0 1 0 0 0 0 0 0 3 0 0 0 0 0 0 0 0 0 0 0 17 275 251 360 265 352 550 272 179 262 150 73 95 6 0 0 0 6 3 0 0 2 0
0 0 0 0 0 0 0 0 0 0 0 0 0 0 0 0 0 0 0 0 52 105 111 146 127 311 625 391 222 128 62 44 46 25 3 0 0 0 0 6 0 0 0 0
0 0 0 0 0 0 0 0 0 0 0 0 0 3 0 0 0 0 0 0 0 0 0 4 40 53 107 159 112 72 49 53 62 43 3 0 0 0 0 0 0 0 0 0
0 0 0 0 0 0 0 0 0 0 0 3 5 22 2 0 0 1 0 0 0 0 0 0 0 0 0 1 2 11 4 1 3 2 0 0 0 0 0 0 0 0 0 0
0 0 0 0 0 0 0 0 0 0 0 0 17 89 109 11 1 0 0 0 0 0 0 0 0 0 0 0 5 0 0 0 0 0 0 0 0 0 0 0 0 0 0 0
0 0 0 0 0 0 0 0 0 1 19 339 31 101 41 4 0 0 0 0 0 0 0 0 0 0 0 0 0 0 0 0 0 0 0 1 0 0 0 0 0 0 0 0
0 0 0 0 1 3 0 17 406 598 622 434 40 21 75 8 11 1 0 0 0 0 7 8 4 1 0 0 0 0 0 0 0 6 1 0 1 0 0 0 0 0 0 0
15 7 0 0 0 0 0 0 436 43 180 152 0 1 0 0 0 0 0 0 0 2 0 0 0 0 0 0 0 10 0 0 0 0 0 1 0 0 0 0 0 0 0 0
2 0 0 0 0 0 2 0 0 0 2 6 1 70 5 0 0 0 0 0 2 13 8 0 14 31 22 17 24 14 12 2 3 18 1 0 0 1 12 1 0 0 0 0
0 5 0 0 0 0 0 0 0 122 6 0 0 17 25 8 1 0 0 1 2 35 26 33 23 20 17 10 9 41 24 11 33 11 5 10 11 12 0 0 2 0 0 0
0 0 0 0 0 0 0 4 0 0 0 0 0 0 0 8 0 0 0 1 19 11 32 29 5 0 0 0 0 2 5 21 25 14 11 1 0 0 1 1 0 0 0 0
0 0 0 0 0 0 0 0 0 0 0 26 9 0 0 4 0 0 2 6 9 1 0 0 1 5 9 13 1 5 9 8 5 2 3 0 6 0 0 0 0 0 0 10
0 31 6 0 0 0 0 0 0 0 0 0 0 7 48 18 6 8 0 15 0 0 1 0 0 0 0 0 0 0 0 4 2 3 0 3 5 0 0 0 12 9 6 22
0 0 0 0 0 0 0 0 0 0 38 1 3 9 21 13 3 0 0 1 0 0 0 2 0 0 0 0 0 4 8 32 26 17 14 0 6 0 0 2 0 0 1 0
0 0 0 0 0 0 0 0 0 0 0 0 2 14 35 12 1 0 0 0 1 0 3 2 0 0 0 0 1 0 8 41 37 24 5 13 1 0 0 0 0 0 0 2
0 0 0 0 0 0 0 0 0 0 0 3 5 5 13 0 0 0 0 0 0 0 0 0 0 0 0 4 1 0 1 39 107 58 41 51 19 9 1 0 0 0 3 0
0 3 0 0 0 0 3 0 0 0 2 1 23 28 12 0 2 2 0 0 0 0 0 0 0 0 2 0 0 0 1 7 73 60 78 63 24 14 11 2 0 0 0 0
0 0 0 0 0 0 0 0 0 0 0 1 12 17 6 3 0 0 0 4 0 0 0 0 0 0 0 0 0 0 0 0 0 38 112 16 22 2 17 0 0 0 0 2
0 0 0 0 0 0 0 0 0 0 0 0 12 0 0 0 0 0 5 1 0 0 0 0 0 0 0 0 0 0 0 3 19 41 31 15 15 16 35 0 3 0 0 5
0 0 8 0 0 0 0 5 0 0 0 12 0 0 0 0 0 0 0 0 0 0 0 0 0 0 0 0 0 0 1 5 25 32 25 4 3 11 8 0 2 1 9 4
0 0 0 0 0 0 0 0 0 0 8 8 0 0 0 0 0 0 0 0 0 0 1 0 0 0 0 0 0 0 1 7 65 49 16 31 13 0 0 5 0 0 0 2
0 0 0 0 0 0 0 0 0 51 47 19 0 0 0 0 0 0 0 0 0 0 0 0 0 0 0 0 1 7 3 6 7 45 36 20 0 0 0 0 0 0 0 0
1 0 9 0 0 15 14 12 12 8 32 10 11 1 0 0 0 0 0 2 7 0 0 0 0 0 0 10 14 10 1 0 0 3 8 5 0 0 0 0 0 0 0 0
0 0 61 28 0 0 22 18 18 6 7 1 5 1 0 0 0 0 6 8 0 0 0 0 0 0 10 5 18 7 0 0 0 0 0 0 0 0 0 0 0 0 0 0
0 0 0 6 1 25 18 0 4 0 3 4 0 0 0 0 1 7 0 0 0 0 0 0 1 4 1 2 9 0 0 0 0 0 0 0 0 0 0 0 0 0 0 0
0 0 3 24 39 19 25 11 7 11 8 1 0 0 0 5 1 0 0 0 0 0 0 0 0 0 0 1 1 4 0 0 0 0 0 0 0 1 0 0 0 0 0 0

GFSCGP_con_mucape_009.txt.gz
CAPE
0 0 0 0 0 0 0 0 0 0 0 0 0 0 0 0 0 0 25 69 25 31 3 7 36 98 246 626 393 229 83 42 51 111 68 38 31 3 0 0 0 11 14 0
0 0 0 0 0 0 0 0 0 0 0 0 0 0 0 0 0 0 0 34 80 159 122 112 134 178 190 172 141 83 66 53 49 51 45 37 21 5 1 0 0 0 0 0
0 0 0 0 0 0 0 0 0 0 0 0 0 0 0 0 0 0 0 0 0 19 92 188 182 140 263 192 116 114 92 57 44 43 38 20 21 2 0 0 0 0 0 0
0 0 0 0 0 0 0 0 0 0 0 0 0 0 0 0 0 0 0 0 0 0 0 11 60 14 23 13 7 0 1 4 0 0 0 0 0 0 0 0 0 0 0 0
0 0 0 0 0 0 0 0 0 0 0 0 0 4 18 1 0 0 1 0 0 0 0 0 0 0 0 0 0 0 0 0 0 0 0 0 0 0 0 0 0 0 0 0
0 0 0 0 0 0 0 0 0 2 0 9 40 33 0 3 1 0 0 0 0 0 0 0 0 0 0 0 0 0 0 0 0 0 0 0 0 0 0 0 0 0 0 2
0 0 0 0 0 0 0 0 37 37 42 30 57 25 20 24 1 0 2 3 0 0 0 0 0 0 0 0 0 0 0 0 0 0 0 0 0 3 7 9 7 0 6 8
0 6 0 0 0 0 0 0 0 1 0 11 2 0 0 15 14 15 6 0 0 0 0 0 1 0 8 4 0 0 0 0 0 0 0 0 0 3 14 5 3 1 0 0
0 0 0 0 0 0 0 0 0 0 0 0 0 0 6 16 20 11 0 0 0 1 0 0 0 0 1 4 3 0 0 0 2 14 18 25 39 34 21 23 15 1 0 0
0 0 0 0 0 0 0 0 0 0 0 0 0 8 1 1 0 0 0 0 1 9 5 0 2 18 13 2 0 0 0 4 0 0 13 40 57 44 28 16 0 0 0 0
0 0 0 0 0 0 0 0 0 0 0 0 0 0 19 11 1 0 1 0 0 1 3 0 1 4 0 3 2 0 0 0 0 0 2 4 2 0 0 0 0 0 0 0
0 0 0 0 0 0 0 0 0 0 0 0 0 0 0 0 6 0 0 0 0 0 1 4 0 0 2 0 0 0 0 0 0 0 0 0 0 0 0 0 0 0 0 0
0 0 0 0 0 0 0 0 0 0 0 0 0 0 13 7 9 0 0 0 0 0 0 0 0 0 0 0 0 0 0 0 0 18 38 41 43 20 5 13 3 0 0 0
0 0 0 0 0 0 0 0 0 0 0 0 0 0 0 15 1 0 0 0 0 0 0 0 0 0 0 0 0 0 0 0 4 37 35 31 34 31 20 0 6 1 0 0
0 0 0 0 0 0 0 0 0 0 0 0 0 0 4 0 0 1 0 0 0 0 0 0 0 0 0 0 0 0 0 0 0 8 25 42 38 20 9 27 28 0 0 0
0 0 0 0 0 0 0 0 0 0 0 0 0 0 0 0 0 0 0 0 3 0 0 0 0 0 0 0 0 0 0 0 0 0 0 8 42 26 23 24 0 0 0 0
0 0 0 0 0 0 0 0 0 0 0 0 0 0 0 0 0 0 4 0 0 0 0 0 0 0 0 0 0 0 0 0 0 0 1 10 18 5 4 1 9 25 4 0
0 0 0 0 0 0 0 0 0 0 0 0 0 0 0 0 2 4 0 0 0 0 0 0 0 0 0 0 0 0 0 0 0 0 0 1 13 9 12 14 10 16 0 0
0 0 0 0 0 0 0 0 0 0 0 0 0 0 0 8 18 1 0 0 0 0 0 0 0 0 0 0 0 0 0 0 0 0 0 0 0 1 1 7 0 2 0 0
0 0 0 0 0 0 0 0 0 0 0 0 0 0 0 8 0 0 0 0 0 0 0 0 0 0 0 0 0 0 0 0 0 0 5 5 0 0 1 0 2 0 0 0
0 0 0 0 0 0 0 0 0 0 0 0 0 0 0 0 0 0 0 0 0 0 0 0 0 0 0 0 0 0 0 0 0 0 5 0 0 1 7 2 0 0 0 0
0 0 0 0 0 0 0 0 0 0 0 0 0 0 0 2 0 0 0 0 0 0 0 0 0 0 0 0 0 0 0 0 0 1 0 0 0 0 0 0 0 0 0 0
0 0 0 0 0 0 0 0 0 0 0 0 0 3 5 0 0 0 0 0 0 0 0 0 0 0 0 0 0 0 0 0 0 0 0 0 0 0 0 0 0 0 0 0
0 0 0 0 0 0 0 0 0 0 1 0 0 0 1 4 1 0 0 0 0 0 0 0 0 0 0 0 0 0 0 0 0 0 0 0 0 0 0 0 0 0 0 0
0 0 0 0 0 0 0 0 0 3 4 2 1 4 1 1 0 0 0 0 0 0 0 0 0 0 0 0 0 0 0 0 0 0 0 0 0 0 0 0 0 0 0 0
0 0 0 0 0 0 0 0 8 21 19 1 0 0 0 0 0 0 0 0 0 0 0 0 0 0 0 0 0 0 0 0 0 0 0 0 0 0 0 0 0 0 0 0

GFSCGP_con_mucape_012.txt.gz
CAPE
0 0 0 0 0 0 0 0 1 0 0 0 0 0 0 0 0 0 0 0 0 6 71 225 119 426 906 694 428 301 227 90 35 50 38 38 55 29 11 3 7 1 8 0
1 6 4 0 0 0 3 1 0 0 0 0 0 0 0 4 1 0 0 6 5 17 92 121 231 484 418 300 89 67 95 78 50 38 37 56 43 32 20 15 10 0 0 0
0 0 0 0 0 0 0 0 0 0 3 0 0 0 0 0 0 2 25 73 92 89 106 132 118 60 85 54 13 0 0 0 22 41 48 68 45 5 9 0 0 2 0 0
0 0 0 0 0 0 0 0 0 0 0 0 0 0 0 0 0 0 0 1 41 67 79 49 30 19 9 0 0 0 0 0 0 0 0 0 0 0 0 0 0 0 0 0
0 0 0 0 0 0 0 0 0 0 0 0 0 0 0 0 0 0 0 0 0 0 0 0 0 0 0 0 0 0 0 0 0 0 0 0 0 0 0 0 0 0 2 4
0 0 0 0 0 0 0 0 0 0 0 0 0 0 0 0 0 1 1 1 0 0 0 0 0 0 0 0 0 0 0 0 0 0 0 0 0 0 0 4 5 10 3 4
0 0 0 0 0 0 0 0 0 31 24 15 11 0 0 1 3 5 11 0 0 0 0 0 0 0 0 0 0 0 0 0 0 0 0 0 0 0 9 10 25 45 13 9
0 0 0 0 0 0 0 0 4 10 29 5 0 0 0 1 4 13 0 0 0 0 0 0 0 0 0 0 0 0 0 0 0 0 0 0 7 17 31 14 15 7 1 0
0 0 0 0 0 0 0 0 0 0 0 0 0 0 0 0 0 0 2 0 1 3 0 0 0 0 0 7 7 1 10 2 0 0 0 0 11 3 10 0 0 0 0 0
0 0 0 0 0 0 0 0 0 0 0 0 0 0 0 0 0 0 0 0 0 1 0 0 0 1 0 5 6 15 24 23 10 0 0 0 0 0 0 0 0 4 0 0
0 0 0 0 0 0 0 0 0 0 0 0 0 0 0 0 0 1 0 0 0 1 0 2 5 3 9 10 11 4 0 0 0 0 0 0 0 3 9 11 18 9 0 3
0 0 0 0 0 0 0 0 0 0 0 0 0 0 0 7 16 17 7 1 5 1 1 8 14 22 15 11 2 0 0 0 0 0 0 8 32 51 39 43 12 2 17 2
0 0 0 0 0 0 0 0 0 0 0 0 0 0 0 0 6 6 5 0 6 13 0 4 5 8 1 0 0 0 0 0 0 0 0 0 7 16 47 63 32 18 8 8
0 0 0 0 0 0 0 0 0 0 0 0 0 0 0 0 0 0 0 0 0 0 0 0 0 0 0 0 0 0 0 0 0 0 0 0 0 4 21 27 10 12 25 0
0 0 0 0 0 0 0 0 0 0 0 0 0 0 0 0 0 0 0 0 0 0 4 0 0 0 0 0 0 0 0 0 0 0 0 0 0 4 27 46 38 24 0 0
0 0 0 0 0 0 0 0 0 0 0 0 0 0 0 0 0 0 0 0 2 16 10 1 0 0 0 0 0 0 0 0 0 0 0 0 0 8 7 0 17 19 20 1
0 0 0 0 0 0 0 0 0 0 0 0 0 0 0 0 0 0 0 1 3 7 2 0 0 0 0 0 0 0 0 0 0 0 0 0 2 0 0 0 0 24 14 11
0 0 0 0 0 0 0 0 0 0 0 0 0 0 0 0 0 0 5 6 4 0 0 0 0 0 0 0 0 0 0 0 0 0 0 0 0 0 0 0 4 5 0 0
0 0 0 0 0 0 0 0 0 0 0 0 0 0 0 0 0 1 4 2 1 0 0 0 0 0 0 0 0 0 0 0 0 0 0 0 0 0 0 0 0 2 0 0
0 0 0 0 0 0 0 0 0 0 0 0 0 0 0 0 0 1 0 0 0 0 0 0 0 0 0 0 0 0 0 0 0 0 0 0 0 0 0 0 0 0 0 1
0 0 0 0 0 0 0 0 0 0 0 0 0 0 0 1 1 1 0 0 0 0 0 0 0 0 0 0 0 0 0 0 0 0 0 0 0 0 0 0 0 0 0 0
0 0 0 0 0 0 0 0 0 0 0 0 0 0 0 1 0 0 0 0 0 1 0 0 0 0 0 0 0 0 0 0 0 0 0 0 0 0 0 0 0 0 0 0
0 0 0 0 0 0 0 0 0 0 0 0 0 0 7 1 0 0 0 0 0 0 0 0 0 0 0 0 0 0 0 0 0 0 0 0 0 0 0 0 0 0 0 0
0 0 0 0 0 0 0 0 0 0 0 1 10 9 11 2 0 0 0 0 0 0 0 0 0 0 0 0 0 0 0 0 0 0 0 0 0 0 0 0 0 0 0 0
0 0 0 0 0 0 0 0 0 1 5 7 2 11 10 0 0 0 0 0 0 0 0 0 0 0 0 0 0 0 0 0 0 1 0 0 0 0 0 0 0 0 0 0
0 0 0 0 0 0 0 0 0 0 3 13 21 1 0 0 0 0 0 0 0 0 0 0 0 0 0 0 0 0 0 0 0 0 0 0 0 0 0 0 0 0 0 0

GFSCGP_con_mucape_015.txt.gz
CAPE
23 18 0 0 0 0 0 0 0 0 0 0 0 0 0 0 0 0 0 0 43 47 74 278 426 455 453 643 482 209 149 79 56 12 47 41 40 57 45 35 34 0 34 18
0 5 2 0 0 0 2 0 10 0 0 0 0 0 0 0 0 0 0 47 236 274 186 415 689 747 659 315 178 121 114 77 75 93 66 56 44 32 25 8 25 5 0 0
0 0 1 1 0 0 0 0 0 0 0 0 0 0 0 0 0 0 0 22 49 86 175 253 167 134 60 23 10 7 15 56 92 75 41 23 19 2 0 0 0 0 0 0
0 0 0 0 0 0 0 0 0 0 0 0 0 0 0 0 0 19 33 56 72 66 37 8 2 0 0 0 0 0 0 0 0 0 0 0 0 0 0 0 0 0 0 0
0 0 0 0 0 0 0 0 0 0 0 0 0 0 0 0 0 0 0 1 1 0 0 0 0 0 0 0 0 0 0 0 0 0 0 0 0 0 0 0 1 6 10 6
0 0 0 0 0 0 0 0 0 0 0 0 0 0 0 0 0 1 2 0 0 0 0 0 0 0 0 0 0 0 0 0 0 0 0 0 0 0 1 5 3 7 3 3
0 0 0 0 0 0 0 0 3 10 16 15 0 0 0 0 0 0 1 0 0 4 0 0 0 0 0 0 0 0 0 0 0 0 0 0 0 0 0 1 1 4 0 0
0 0 0 0 0 0 0 0 0 6 10 0 0 0 0 0 0 0 0 0 0 23 7 21 1 0 0 0 0 0 0 0 0 0 0 0 0 0 0 0 0 0 0 0
0 0 0 0 0 0 0 0 0 0 0 0 0 0 0 0 0 0 0 4 13 17 3 0 0 0 0 0 0 0 0 0 0 0 0 0 0 0 0 0 0 0 0 5
0 0 0 0 0 0 0 0 0 0 0 0 0 0 0 0 0 0 0 1 0 0 0 0 0 0 1 1 2 7 9 12 2 0 0 0 0 0 0 0 0 7 16 28
0 0 0 0 0 0 0 0 0 0 0 0 0 0 0 0 0 0 0 0 0 0 1 1 4 6 19 5 7 12 0 0 0 0 0 0 0 0 0 0 0 15 32 38
0 0 0 0 0 0 0 0 0 0 0 0 0 0 0 0 0 0 2 1 0 2 10 15 27 17 1 4 2 0 0 0 0 0 0 0 0 0 0 0 0 10 10 2
0 0 0 0 0 0 0 0 0 0 0 0 0 0 0 0 0 0 0 2 3 8 19 27 47 21 0 3 1 0 0 0 0 0 0 0 0 0 0 0 0 0 0 0
0 0 0 0 0 0 0 0 0 0 0 0 0 0 0 0 0 0 0 0 0 0 1 4 8 5 2 1 0 0 0 0 0 0 0 0 0 0 0 0 0 0 0 14
0 0 0 0 0 0 0 0 0 0 0 0 0 0 0 0 0 0 0 0 0 0 0 7 6 7 15 0 0 0 0 0 0 0 0 0 0 0 0 0 0 0 8 11
0 0 0 0 0 0 0 0 0 0 0 0 0 0 0 0 0 0 0 0 0 0 13 19 20 19 8 0 0 0 0 0 0 0 0 0 0 0 0 0 0 0 8 13
0 0 0 0 0 0 0 0 0 0 0 0 0 0 0 0 0 0 0 0 0 4 12 10 4 0 0 0 0 0 0 0 0 0 0 0 0 0 0 0 0 0 0 0
0 0 0 0 0 0 0 0 0 0 0 0 0 0 0 0 0 0 0 0 3 13 6 0 0 0 0 0 0 0 0 0 0 0 0 0 0 0 0 0 0 0 0 0
0 0 0 0 0 0 0 0 0 0 0 0 0 0 0 0 0 0 0 3 5 9 7 0 0 0 0 0 0 0 0 0 0 0 0 0 0 0 0 0 0 0 0 0
0 0 0 0 0 0 0 0 0 0 0 0 0 0 0 0 0 0 0 0 0 0 0 0 0 0 0 0 0 0 0 0 0 0 0 0 0 0 0 0 0 0 0 0
0 0 0 0 0 0 0 0 0 0 0 0 0 0 0 0 0 0 3 7 0 0 0 0 0 0 0 0 0 0 0 0 0 0 0 0 0 0 0 0 0 0 0 0
0 0 0 0 0 0 0 0 0 0 0 0 0 0 0 0 1 10 13 5 0 1 0 0 0 0 0 0 0 0 0 0 0 0 0 0 0 0 0 0 0 0 0 0
0 0 0 0 0 0 0 0 0 0 0 0 0 0 0 1 8 8 0 0 0 0 0 0 0 0 0 0 0 0 0 0 0 0 0 2 1 0 0 0 0 0 0 0
0 0 0 0 0 0 0 0 0 0 0 0 0 1 3 13 14 1 2 0 0 0 0 0 0 0 0 0 0 0 0 0 0 0 0 0 0 0 0 0 0 0 0 0
0 0 0 0 0 0 0 0 0 0 0 0 7 6 10 27 20 2 0 0 0 0 0 0 0 0 0 0 0 0 0 0 0 0 0 0 0 0 0 0 0 0 0 0
0 0 0 0 0 0 0 0 0 0 0 1 0 14 23 24 0 0 0 0 0 0 0 0 0 0 0 0 0 0 0 0 0 0 0 0 0 0 0 0 0 0 0 0

GFSCGP_con_mucape_021.txt.gz
CAPE
3 0 0 0 0 0 0 0 0 0 0 0 0 0 0 0 230 206 171 133 155 182 240 249 223 211 174 232 285 334 182 53 32 44 6 8 26 45 53 3 0 0 0 0
7 5 0 0 0 0 0 0 0 0 0 0 0 0 0 0 22 124 142 255 308 321 298 239 207 231 232 286 367 280 92 46 3 0 2 13 2 0 0 0 0 0 0 0
20 11 13 1 0 0 0 4 2 0 0 0 0 0 0 0 2 4 8 33 142 337 372 289 303 267 259 238 152 90 1 0 0 0 0 0 0 0 0 0 0 0 0 0
29 34 32 24 25 14 14 0 0 0 0 2 0 0 0 4 86 164 211 335 248 238 36 12 0 0 2 23 26 0 0 0 0 0 0 0 0 0 0 0 0 0 0 0
17 23 20 36 27 18 6 5 0 0 0 0 0 0 0 0 91 143 59 39 8 20 0 0 0 0 0 0 0 0 0 0 0 0 0 0 0 0 0 0 0 0 0 0
25 26 9 0 0 0 0 0 0 0 0 0 0 0 0 0 0 5 0 0 0 0 3 2 2 0 0 0 0 0 0 0 0 0 0 0 0 0 0 0 0 0 0 0
0 0 0 3 0 0 0 0 0 5 0 0 0 0 0 0 0 0 0 0 0 0 0 0 0 0 0 0 0 0 0 0 0 0 0 0 0 0 0 0 0 0 0 0
0 0 0 0 0 0 0 0 10 0 0 0 0 0 0 0 0 0 0 0 0 0 0 0 3 0 0 0 0 0 0 0 0 1 1 0 0 0 0 0 0 0 0 0
0 0 0 0 0 0 0 0 0 0 0 0 0 0 0 0 0 0 0 0 0 0 0 0 0 0 0 0 0 0 0 0 2 5 0 0 0 0 0 0 0 0 0 0
0 0 0 0 0 0 0 0 0 0 0 0 0 0 0 0 0 0 0 0 0 0 0 0 0 0 0 0 2 8 8 12 13 1 0 0 0 0 0 0 0 0 0 0
0 0 0 0 0 0 0 0 0 0 0 0 0 0 0 0 0 0 0 0 0 0 0 0 0 0 0 4 15 27 26 10 8 2 0 0 0 0 0 0 0 0 0 0
0 0 0 0 0 0 0 0 0 0 0 0 0 0 0 0 0 0 0 0 0 0 0 0 0 2 13 19 26 19 19 27 0 0 0 0 0 0 0 0 0 0 0 0
0 0 0 0 0 0 0 0 0 0 0 0 0 0 0 0 0 0 0 0 0 0 0 2 5 10 17 20 31 22 37 7 0 0 0 0 0 0 0 0 0 0 0 0
0 0 0 0 0 0 0 0 0 0 0 0 0 0 0 0 0 0 0 0 0 0 0 3 8 13 20 16 16 10 2 0 0 0 0 0 0 0 0 0 0 0 0 0
0 0 0 0 0 0 0 0 0 0 0 0 0 0 0 0 0 0 0 0 0 0 0 4 6 17 16 18 14 0 0 0 0 0 0 0 0 0 0 0 0 0 0 2
0 0 0 0 0 0 0 0 0 0 0 0 0 0 0 0 0 0 0 0 0 0 0 2 7 19 22 27 19 0 0 0 0 0 0 0 0 0 0 0 0 0 0 0
0 0 0 0 0 0 0 0 0 0 0 0 0 0 0 0 0 0 0 0 0 0 0 0 17 22 31 15 0 0 0 0 0 0 0 0 0 0 0 0 0 0 0 0
0 0 0 0 0 0 0 0 0 0 0 0 0 0 0 0 0 0 0 0 0 0 0 6 23 16 11 1 0 0 0 0 0 0 0 0 0 0 0 0 0 0 0 0
0 0 0 0 0 0 0 0 0 0 0 0 0 0 0 0 0 0 0 0 0 0 1 17 25 27 12 8 0 0 0 0 0 0 0 0 0 0 0 0 0 0 0 0
0 0 0 0 0 0 0 0 0 0 0 0 0 0 0 0 0 0 0 0 0 0 5 20 25 5 11 0 0 0 0 0 0 0 0 0 0 0 0 0 0 0 0 0
0 0 0 0 0 0 0 0 0 0 0 0 0 0 0 0 0 0 0 0 0 0 19 32 9 4 2 0 0 0 0 0 0 0 0 0 0 0 0 0 0 0 0 0
0 0 0 0 0 0 0 0 0 0 0 0 0 0 0 0 0 0 0 0 4 17 19 14 3 0 0 0 0 0 0 0 0 0 0 0 0 0 0 0 0 0 0 0
0 0 0 0 0 0 0 0 0 0 0 0 0 0 0 0 0 0 7 10 12 25 25 12 3 0 0 0 0 0 0 0 0 0 0 0 0 0 0 0 0 0 0 0
0 0 0 0 0 0 0 0 0 0 0 0 0 0 0 0 0 9 23 17 21 24 22 3 0 0 0 0 0 0 0 0 0 0 0 0 0 0 0 0 0 0 0 0
0 0 0 0 0 0 0 0 0 0 0 0 0 0 0 0 0 10 12 14 38 2 0 5 0 0 0 0 0 0 0 0 0 0 0 0 0 0 0 0 0 0 0 0
0 0 0 0 0 0 0 0 0 0 0 0 0 0 0 0 0 5 28 42 25 8 1 0 0 0 0 0 0 0 0 0 0 0 0 0 0 0 0 0 0 0 0 0

GFSCGP_con_mucape_024.txt.gz
CAPE
0 0 0 0 0 0 0 0 0 0 0 85 67 64 16 176 390 405 420 513 547 507 402 413 535 635 757 752 632 646 306 536 228 164 45 8 0 3 0 0 0 0 0 0
5 0 0 0 0 1 1 0 14 0 0 91 153 186 64 41 261 435 517 541 583 515 477 429 677 707 520 564 601 634 727 757 439 78 4 3 14 4 0 0 0 0 0 0
62 40 0 0 13 30 51 69 33 31 9 85 177 227 183 55 56 90 238 474 531 533 556 629 741 798 693 645 924 866 725 456 0 0 0 5 3 0 0 0 0 0 0 0
82 6 47 78 45 60 91 5 27 53 93 124 32 187 322 245 224 228 276 443 413 605 726 718 764 814 932 768 684 75 2 0 0 0 0 0 0 2 0 0 0 0 0 0
123 51 86 124 48 31 70 8 72 22 92 91 70 107 320 283 351 417 605 687 764 553 372 178 128 141 154 178 9 0 0 0 0 0 0 0 0 0 0 0 0 0 0 0
75 45 60 65 13 11 5 41 43 39 58 109 68 69 98 345 346 495 493 366 448 127 0 1 2 0 0 0 0 0 0 0 0 0 0 0 0 0 0 0 0 0 0 3
96 56 25 15 66 41 74 131 98 161 122 65 5 14 0 12 131 471 309 157 69 0 0 0 0 0 0 0 0 0 0 0 0 0 1 2 0 0 0 0 0 0 0 0
132 105 0 3 40 33 56 74 33 0 6 3 0 12 34 0 0 233 155 18 0 0 0 0 0 0 0 0 0 0 0 0 0 6 5 14 0 0 0 0 0 0 0 0
40 0 0 0 0 0 0 0 3 22 0 5 0 5 3 0 0 93 126 1 0 0 0 0 0 0 0 0 0 0 0 0 3 9 21 4 16 0 0 0 0 0 0 0
6 7 0 0 0 0 0 0 0 3 0 0 0 0 0 0 0 8 80 0 0 0 0 0 0 0 0 0 0 0 0 2 4 6 9 34 3 0 0 0 0 0 0 0
0 2 1 0 0 0 0 0 0 0 0 0 0 0 0 0 0 0 39 1 0 0 0 0 0 0 0 0 0 1 0 2 0 5 5 1 0 0 0 0 0 0 0 0
0 0 7 0 0 0 0 0 0 0 0 0 0 0 0 0 0 0 19 5 0 0 0 0 0 0 0 0 2 2 2 4 7 0 0 0 0 0 0 0 0 0 1 2
0 0 2 0 0 0 0 0 0 0 0 0 37 0 0 0 0 0 0 0 0 0 0 0 0 0 0 5 5 5 1 1 0 0 0 0 0 0 0 0 0 2 6 3
0 0 0 16 0 0 0 0 0 0 0 0 0 0 0 0 0 0 0 0 0 0 0 0 0 0 0 6 7 4 0 2 0 0 0 0 0 0 0 0 0 5 5 3
0 0 0 0 0 0 0 0 0 0 0 0 0 0 0 0 0 0 0 0 0 0 0 0 0 0 3 9 13 6 8 7 0 0 0 0 0 0 0 0 2 4 2 5
0 0 0 0 0 0 0 0 0 0 0 0 0 0 0 0 0 0 0 0 0 0 0 0 0 0 3 11 9 19 3 6 0 0 0 0 0 0 0 0 0 0 4 12
0 0 0 0 0 0 0 0 0 0 0 0 0 0 0 0 0 0 0 0 0 0 0 0 0 0 7 17 21 12 1 0 0 0 0 0 0 0 0 0 0 1 5 13
0 0 0 0 0 0 0 0 0 0 0 0 0 0 0 0 0 0 0 0 0 0 0 0 0 0 16 19 18 7 2 1 0 0 0 0 0 0 0 0 0 4 11 11
0 0 0 4 0 0 0 0 0 0 0 0 0 0 0 0 0 0 0 0 0 0 0 0 0 2 17 14 6 0 0 0 0 0 0 0 0 0 0 0 0 7 11 13
0 0 0 0 26 91 0 0 0 0 0 0 0 0 0 0 0 0 0 0 0 0 0 0 0 6 10 2 0 0 0 0 0 0 0 0 0 0 0 0 1 5 13 8
0 0 0 0 1 0 0 0 0 0 0 0 0 0 0 0 0 0 0 0 0 0 0 0 4 15 13 23 5 0 0 0 0 0 0 0 0 0 0 0 3 11 15 14
0 0 2 0 6 0 0 0 3 0 0 0 0 0 0 0 0 0 0 0 0 2 4 8 3 2 9 18 0 0 0 0 0 0 0 0 0 0 0 0 8 11 17 2
0 0 0 0 0 0 0 0 0 0 0 0 0 0 0 0 0 0 0 0 0 2 0 3 2 1 5 0 0 0 0 0 0 0 0 0 0 0 0 0 1 0 2 0
0 0 0 0 0 0 0 0 0 0 0 0 0 0 0 0 0 0 0 0 0 7 18 19 19 12 18 0 0 0 0 0 0 0 0 0 0 0 0 0 0 0 0 0
0 0 0 0 0 0 0 0 0 0 0 0 0 0 0 0 0 0 0 0 4 18 28 13 8 0 0 0 0 0 0 0 0 0 0 0 0 0 0 0 0 0 0 0
0 0 0 0 0 0 0 0 0 0 0 0 0 0 0 0 0 0 0 0 13 11 16 8 2 0 0 0 0 0 0 0 0 0 0 0 0 0 0 0 0 0 0 0

GFSCGP_con_mucape_027.txt.gz
CAPE
29 14 1 8 1 0 3 2 5 12 29 3 0 37 58 241 242 350 461 632 768 833 882 729 704 783 974 1143 953 998 666 405 472 325 161 39 11 2 0 0 0 0 0 0
10 0 13 0 0 0 0 0 24 4 1 54 7 22 109 262 319 365 395 540 650 831 956 805 915 990 1165 1005 908 907 689 623 659 463 397 155 90 29 0 0 0 0 0 0
54 32 0 0 0 5 12 21 33 45 48 31 107 175 231 209 445 511 542 551 620 817 1012 937 1122 882 756 686 790 840 810 967 696 122 48 84 71 0 0 0 0 0 0 0
28 45 23 17 29 36 39 67 56 102 109 73 90 60 123 336 285 363 562 753 844 942 1012 1147 1219 942 703 838 825 870 674 324 22 2 25 34 38 46 31 9 0 0 0 0
15 107 156 112 115 100 44 65 143 156 145 19 162 112 54 436 383 322 423 528 708 772 974 1077 1095 1161 991 784 764 455 67 8 1 0 2 19 2 0 0 0 0 0 0 0
55 38 188 223 116 133 109 179 175 201 140 159 88 116 206 496 406 475 584 753 864 911 632 479 482 493 609 617 30 2 1 0 0 0 0 0 0 0 0 0 0 0 0 0
134 113 111 113 149 140 134 194 266 181 202 199 133 125 85 44 220 480 754 803 838 421 80 28 10 19 59 2 0 0 0 0 0 0 0 0 2 9 12 0 0 0 0 0
151 151 119 107 196 188 156 174 249 89 98 109 135 11 87 114 61 285 676 629 642 182 0 0 0 0 0 0 0 0 0 0 0 0 0 0 2 8 1 0 0 0 0 0
170 41 37 43 82 50 117 66 122 173 165 49 0 0 168 50 33 256 568 501 418 89 0 0 0 0 0 0 0 0 1 0 0 0 0 0 15 18 10 0 0 0 0 0
136 167 16 2 17 21 43 30 33 6 0 6 44 8 98 114 9 130 495 375 285 65 0 0 0 0 0 0 1 1 0 0 0 0 0 2 12 0 0 0 0 0 0 0
121 57 102 0 2 20 55 0 0 20 74 26 0 20 0 0 3 30 270 344 243 97 12 0 0 0 0 0 2 0 0 0 0 0 0 8 0 0 0 0 0 0 0 0
45 36 116 63 0 0 7 28 16 0 0 0 29 2 0 0 0 0 42 203 180 97 26 2 0 0 0 0 0 0 0 0 2 1 0 3 0 0 0 0 0 0 0 2
81 0 39 28 11 1 0 0 0 0 0 0 138 0 0 0 0 0 0 35 118 90 43 11 4 3 0 0 0 0 0 5 2 0 5 0 0 0 0 0 0 0 0 3
0 0 22 100 72 27 0 0 0 0 0 0 0 0 0 0 0 0 0 0 8 51 45 27 6 5 0 0 0 0 1 6 5 18 7 0 0 0 0 0 0 0 1 4
10 17 2 1 0 0 0 0 0 0 0 5 0 0 0 0 0 0 0 0 0 0 1 9 2 5 0 0 0 0 0 6 14 32 28 0 0 0 0 0 0 0 5 1
0 0 0 0 0 0 0 0 0 0 0 0 0 0 0 0 0 0 0 0 0 0 0 0 7 1 0 0 0 0 2 14 26 28 0 0 0 0 0 0 0 1 0 2
14 0 0 0 0 0 0 0 0 0 0 0 0 0 0 0 0 0 0 0 0 0 0 0 0 0 2 0 0 0 6 20 23 28 0 0 0 0 0 0 0 0 1 9
0 0 0 0 0 0 0 0 0 0 0 0 0 0 0 0 0 0 0 0 0 0 0 0 0 0 2 0 0 3 15 15 25 8 0 0 0 0 0 0 0 0 6 19
0 0 0 0 0 0 0 0 0 0 0 0 0 0 0 0 0 0 0 0 0 0 0 0 0 0 1 0 0 24 38 36 15 0 0 0 0 0 0 0 0 0 5 13
0 0 0 0 0 0 0 0 0 0 0 0 0 0 0 0 0 0 0 0 0 0 0 0 0 0 0 0 15 41 35 18 24 16 0 0 0 0 0 0 0 0 6 12
0 0 0 0 0 0 0 0 0 0 0 0 0 0 0 0 0 0 0 0 0 0 0 0 0 0 0 2 8 19 18 4 0 0 0 0 0 0 0 0 0 3 10 14
0 0 0 0 3 0 0 0 0 0 0 0 0 0 0 0 0 0 0 0 0 0 0 0 1 2 4 11 9 5 6 0 0 0 0 0 0 0 0 0 0 4 16 18
0 5 0 0 0 0 0 0 0 0 0 0 0 0 0 0 0 0 1 0 0 0 0 0 0 0 16 10 0 4 2 0 0 0 0 0 0 0 0 0 0 2 8 20
0 0 0 0 0 0 0 0 0 0 0 0 0 0 0 0 0 1 13 0 0 0 0 0 0 12 19 8 3 0 0 0 0 0 0 0 0 0 0 0 4 0 0 20
0 0 0 0 0 0 0 2 0 0 0 0 0 0 1 0 0 10 7 0 0 0 0 1 14 12 9 0 0 0 0 0 0 0 0 0 0 0 0 3 14 5 0 17
0 0 0 0 0 0 0 0 0 0 0 0 0 0 0 0 0 0 0 0 2 5 3 4 9 8 1 0 0 0 0 0 0 0 0 0 0 0 0 0 0 0 0 0

GFSCGP_con_mucape_030.txt.gz
CAPE
52 58 17 0 3 0 0 0 7 0 0 0 43 24 0 14 96 489 462 506 451 353 455 403 331 364 700 1030 704 598 536 314 203 143 131 35 0 0 0 0 0 0 0 0
85 62 1 0 0 0 1 2 16 0 2 0 1 18 0 26 68 244 401 486 625 560 748 734 654 867 1305 993 669 487 547 303 366 416 186 69 4 0 0 0 0 0 0 0
6 2 4 6 0 0 0 5 15 4 0 0 0 0 18 43 83 91 186 343 485 693 1002 829 859 1108 1100 1043 863 548 487 449 508 484 209 58 9 0 0 0 0 0 0 0
0 0 0 0 0 0 7 16 2 17 8 7 33 36 96 64 109 185 221 246 379 547 1060 838 1019 1070 921 886 839 760 722 712 637 350 30 10 0 0 1 1 0 0 0 0
67 3 23 0 1 64 1 2 49 26 39 130 50 0 58 41 41 230 445 655 629 709 910 942 1130 851 625 793 875 1027 924 657 71 8 17 8 6 3 1 0 0 2 0 0
11 0 3 3 61 67 87 81 105 49 68 78 17 40 22 27 13 191 329 555 669 845 775 852 1050 803 933 845 966 727 558 14 0 0 2 2 0 0 0 2 11 12 3 0
0 16 52 69 72 38 3 38 234 122 178 280 119 79 117 46 55 76 343 431 671 663 828 817 787 810 631 595 365 80 0 0 0 0 0 0 0 0 0 2 2 5 3 0
31 143 60 41 39 54 65 5 188 28 0 231 52 65 86 77 49 458 631 722 806 686 494 412 372 332 467 116 5 0 0 0 0 0 0 0 0 0 0 1 15 0 0 0
30 6 0 20 9 11 63 62 24 31 314 522 5 0 45 26 6 258 677 632 699 353 95 51 12 48 37 0 0 0 0 0 0 0 0 0 0 0 11 13 7 0 0 0
3 6 26 27 1 15 7 1 111 26 11 0 0 11 129 72 1 59 575 588 626 345 61 0 0 0 0 0 0 0 0 0 0 0 0 0 0 0 6 13 0 0 0 0
113 84 95 20 11 0 39 7 0 0 204 304 246 15 0 0 0 19 325 535 545 390 121 3 0 0 0 0 0 0 0 0 0 0 0 1 6 2 9 6 0 0 0 0
35 59 197 71 22 12 0 59 0 530 3 154 346 23 0 0 0 1 24 293 405 383 162 4 0 0 0 0 0 0 0 0 0 0 0 5 13 13 12 9 0 0 0 0
122 56 73 26 90 39 0 0 0 11 49 45 397 47 0 0 0 0 0 8 226 273 175 35 0 0 0 0 0 0 0 0 0 0 3 11 23 15 2 12 0 0 0 0
97 8 0 168 36 23 36 0 0 0 184 0 0 0 0 0 0 0 0 0 1 121 120 94 17 11 2 0 0 0 0 0 0 18 23 24 17 0 4 0 0 0 0 0
0 0 0 0 10 4 18 2 0 0 0 0 15 0 0 0 0 0 0 0 0 0 32 36 105 68 65 33 16 2 0 0 0 27 16 15 23 7 0 0 0 0 0 0
0 99 0 37 22 0 0 0 0 0 0 0 0 0 0 0 0 0 0 0 0 0 0 19 65 154 112 94 68 16 1 0 0 12 7 19 1 0 1 0 0 0 0 0
185 216 100 0 0 0 0 0 0 0 0 0 0 0 0 0 0 0 0 0 0 0 0 0 30 58 151 126 75 41 3 0 0 11 19 23 12 0 0 0 0 0 0 0
200 258 284 168 0 0 0 0 0 0 0 0 0 0 0 0 0 0 0 0 0 0 0 0 0 9 66 99 53 53 25 1 11 17 19 0 0 1 0 0 0 0 0 0
26 64 70 27 0 0 0 0 0 0 0 0 0 0 0 0 0 0 0 0 0 0 0 0 0 0 29 41 10 4 9 13 15 8 4 0 0 0 0 2 0 0 0 0
0 0 64 0 4 0 0 0 0 0 0 0 0 0 0 0 0 0 0 0 0 0 0 0 0 0 0 0 0 0 0 0 1 4 2 0 0 2 3 0 0 0 0 1
0 7 0 0 0 0 0 0 0 0 0 0 0 0 0 0 0 0 0 0 0 0 0 0 0 1 7 2 1 0 7 12 9 0 0 0 0 0 0 0 0 0 0 1
0 68 0 78 0 0 0 0 0 1 0 0 0 0 0 0 0 0 0 0 0 0 0 0 0 0 0 0 0 2 8 7 0 0 0 0 0 0 0 0 0 0 0 0
24 62 241 5 13 0 0 0 0 0 0 0 0 0 0 0 0 0 0 13 2 0 0 0 0 0 0 0 3 2 1 0 0 0 0 0 0 0 0 0 0 0 0 0
2 0 27 0 0 0 0 0 0 0 0 0 0 0 2 0 0 6 17 7 3 1 0 0 0 0 0 0 9 9 0 0 0 0 0 0 0 0 0 0 0 0 0 0
14 0 0 0 0 0 0 0 0 0 0 0 0 0 0 0 0 0 0 0 0 1 4 2 0 2 3 3 0 0 0 0 0 0 0 0 0 0 0 0 0 0 0 0
0 0 94 66 0 0 0 0 0 0 0 0 0 0 0 0 0 0 0 0 0 0 0 0 8 10 0 0 0 0 0 0 0 0 0 0 0 0 0 0 0 0 0 0

GFSCGP_con_mucape_033.txt.gz
CAPE
35 0 0 5 12 7 1 0 2 0 0 21 2 0 0 93 277 282 246 215 194 135 110 45 29 206 211 301 380 456 425 299 124 13 20 14 0 16 0 0 0 0 0 0
5 21 23 0 2 0 0 0 0 0 0 1 9 0 0 10 173 312 317 458 458 211 176 141 113 335 338 394 438 456 446 386 207 37 69 39 33 22 0 0 0 0 0 0
25 9 0 1 0 0 0 4 0 1 0 0 0 3 13 1 20 349 390 429 470 373 389 390 690 629 555 567 631 508 482 306 204 137 175 83 11 0 0 0 0 0 0 0
0 0 2 1 0 3 0 0 5 3 0 0 2 35 42 46 60 23 349 404 448 451 554 522 763 913 815 734 677 721 487 250 136 246 238 10 0 0 0 0 0 0 0 0
0 0 0 0 0 0 5 0 8 7 3 6 2 0 6 10 2 7 117 159 488 689 719 756 796 993 980 926 785 556 357 303 237 288 68 5 0 0 0 0 0 0 0 0
0 2 0 1 0 0 26 0 35 78 3 6 12 7 0 0 1 21 3 245 406 709 849 804 848 943 939 888 728 552 469 495 449 232 31 8 2 0 0 0 0 0 10 7
11 6 16 1 6 17 38 46 54 9 3 19 45 0 2 6 2 5 110 190 325 760 707 845 966 918 853 682 541 651 696 336 42 0 0 0 0 0 0 1 4 21 13 14
1 25 7 42 32 44 29 15 9 2 0 2 37 0 0 8 23 34 97 135 292 630 601 887 975 812 596 558 575 553 245 21 0 0 0 0 0 0 0 0 0 4 17 26
3 15 15 25 33 30 8 65 10 1 6 10 5 3 13 21 34 106 199 191 558 635 697 837 800 699 542 253 322 195 28 0 0 0 0 0 2 0 0 2 13 8 23 22
1 1 0 3 22 10 17 7 24 3 0 0 0 0 17 3 449 475 515 620 691 662 615 553 455 511 384 252 115 33 1 0 0 0 0 0 0 2 6 13 10 31 10 5
13 5 6 0 15 0 13 0 14 0 0 7 21 0 0 0 9 517 599 638 632 561 446 283 135 62 116 104 24 0 0 0 0 0 0 0 8 8 11 11 12 19 12 0
18 14 0 96 8 22 8 50 44 0 0 0 0 0 0 0 0 0 279 523 575 517 436 283 84 4 0 0 0 0 0 0 0 0 0 7 33 16 14 7 28 1 2 0
77 0 3 0 14 64 2 1 5 0 0 0 0 0 0 0 0 0 0 14 447 471 352 213 109 18 0 0 0 0 0 1 0 0 0 30 50 13 19 16 1 0 3 0
63 26 0 0 0 18 4 16 0 0 0 0 0 0 0 0 0 0 0 0 92 352 277 167 85 27 8 24 36 41 36 39 1 0 5 22 36 42 11 3 0 12 0 7
0 0 0 0 0 4 4 5 0 0 0 0 0 0 0 0 0 0 0 0 0 0 68 162 99 55 34 46 58 49 55 64 48 66 13 18 38 29 11 0 0 0 0 0
0 0 0 0 0 0 0 0 0 0 0 0 0 0 0 0 0 0 0 0 0 0 0 0 10 55 50 51 56 46 71 59 56 32 56 38 36 37 5 0 0 0 0 0
0 0 0 0 0 0 0 0 0 0 0 0 0 0 0 0 0 0 0 0 0 0 0 0 0 11 76 95 76 69 59 58 69 87 60 53 50 46 24 2 0 0 0 0
29 18 3 0 0 0 0 0 0 0 0 0 0 0 0 0 0 0 0 0 0 0 0 0 0 0 2 84 115 76 48 59 76 52 50 49 57 27 9 2 0 0 0 0
70 38 1 0 0 0 0 0 0 0 0 0 0 0 0 0 0 0 0 0 0 0 0 0 0 0 0 16 44 61 63 46 33 26 25 14 15 5 2 0 0 0 0 0
0 0 0 0 0 0 0 0 0 0 0 0 0 0 0 0 0 0 0 0 0 0 0 0 0 0 0 0 7 30 42 68 54 49 37 32 21 2 0 0 0 0 0 0
0 0 0 0 0 0 0 0 0 0 0 0 0 0 0 0 0 0 0 0 0 0 0 0 0 0 0 2 21 36 33 38 40 48 59 31 0 0 0 0 0 0 0 0
0 0 0 0 0 0 0 0 0 0 0 0 0 0 0 0 0 0 0 0 0 0 0 0 0 10 24 23 30 27 28 28 24 24 21 0 0 0 0 0 0 0 0 0
0 0 0 0 0 0 0 0 0 0 0 0 0 0 0 0 0 0 0 0 0 0 0 0 11 17 11 11 15 2 1 1 0 0 0 0 0 0 0 0 0 0 0 0
0 0 0 0 0 0 0 0 0 0 0 0 0 0 0 0 0 0 0 0 0 4 8 8 15 0 0 5 5 1 1 0 0 0 0 0 0 0 0 0 0 0 0 0
0 0 0 0 0 0 0 0 0 0 0 0 0 0 0 0 0 0 0 2 5 5 2 0 0 0 0 0 0 0 0 0 0 0 0 0 0 0 0 0 0 0 0 0
0 0 0 0 0 0 0 0 0 0 0 0 0 0 0 0 0 0 0 0 0 0 0 0 0 0 0 0 0 0 0 0 0 0 0 0 0 0 0 0 0 0 0 0

GFSCGP_con_mucape_036.txt.gz
CAPE
55 35 13 9 21 40 7 0 0 0 2 69 53 0 100 573 982 1053 709 199 291 612 612 583 547 628 689 318 151 181 245 231 187 138 123 19 5 0 0 0 0 0 0 0
0 2 0 0 31 13 12 0 0 0 0 0 26 13 23 434 639 833 419 163 153 359 321 499 584 479 470 295 245 181 228 245 198 94 19 20 14 0 0 0 0 0 0 0
0 0 0 0 6 1 0 0 0 0 2 0 5 6 6 193 286 432 260 221 182 173 214 290 365 312 275 268 292 334 274 292 279 150 48 24 30 15 9 2 0 0 0 0
0 0 0 3 0 0 0 0 0 0 1 0 0 0 0 0 20 332 351 300 285 352 258 174 220 282 249 261 311 474 420 386 304 199 123 55 50 21 49 3 0 0 0 0
0 0 0 0 0 0 0 0 0 0 0 0 1 5 2 6 3 19 319 323 392 436 389 422 293 288 255 250 391 520 551 515 346 285 165 127 126 30 0 0 0 0 0 0
0 0 0 0 0 1 1 3 0 8 18 2 4 0 0 0 0 2 15 65 425 520 321 456 538 319 334 495 535 550 566 417 305 195 187 237 196 19 0 0 0 0 0 0
0 0 0 0 0 2 15 15 10 11 0 0 3 0 5 7 1 1 0 18 90 389 478 597 840 860 841 738 672 673 574 415 340 176 275 303 126 26 12 2 0 3 7 9
1 0 0 0 0 0 5 5 3 1 0 0 6 1 3 0 11 10 0 1 341 485 592 633 876 966 1006 983 842 603 447 442 458 430 391 254 73 47 70 52 51 37 43 29
8 2 9 8 0 0 1 0 8 6 0 0 5 0 0 63 15 10 9 55 500 668 791 882 818 924 992 760 623 572 742 749 450 276 43 15 47 65 65 52 42 47 21 4
2 12 6 3 0 5 0 0 3 13 0 0 0 0 0 32 75 65 92 111 179 555 716 789 870 987 967 669 619 566 662 625 226 70 41 62 65 65 61 74 51 34 1 4
6 4 0 0 0 3 0 0 0 0 0 0 13 0 15 3 273 231 200 145 358 555 729 881 942 845 724 666 436 415 287 214 114 68 59 70 43 23 44 20 16 0 1 3
0 0 0 0 1 5 18 3 27 59 10 0 0 0 0 0 67 301 379 374 540 660 668 726 730 715 576 464 252 167 145 87 51 67 76 17 26 29 36 47 7 3 1 9
5 11 13 0 3 21 11 0 0 7 9 0 0 0 0 0 0 13 411 541 617 676 631 601 533 406 382 285 283 215 103 5 0 42 50 42 28 20 22 14 1 0 0 1
20 5 0 0 8 1 0 6 21 0 0 0 0 0 0 0 0 0 0 0 402 601 617 570 455 319 225 196 196 80 63 41 45 54 50 18 18 43 23 1 2 15 11 0
40 2 0 0 0 1 0 0 25 8 0 0 0 0 0 0 0 0 0 0 0 163 387 426 287 166 90 75 60 58 41 55 47 52 62 49 53 57 17 2 0 10 0 0
0 0 0 0 0 0 0 0 0 0 0 0 0 0 0 0 0 0 0 0 0 0 0 0 0 8 26 57 53 44 53 37 51 88 87 47 52 55 21 10 2 7 12 1
0 0 0 0 0 0 0 0 0 2 7 1 2 0 0 0 0 0 0 0 0 0 0 0 0 0 0 24 67 68 55 57 85 84 69 66 38 24 27 24 8 8 8 0
0 0 0 0 0 0 0 0 0 0 0 0 0 0 0 0 0 0 0 0 0 0 0 0 0 0 0 29 71 84 83 89 82 78 60 58 54 25 10 8 3 8 0 0
80 2 0 0 0 0 0 0 0 0 0 0 0 0 0 0 0 0 0 0 0 0 0 0 0 0 0 11 42 77 68 68 86 66 36 38 35 12 8 5 0 0 0 0
126 123 30 0 0 0 0 0 0 0 0 0 0 0 0 0 0 0 0 0 0 0 0 0 0 0 0 0 0 41 24 27 28 28 31 69 46 19 0 0 0 0 0 0
38 83 12 0 0 0 0 0 0 0 0 0 0 0 0 0 0 0 0 0 0 0 0 0 0 0 0 0 1 6 5 9 15 8 14 24 4 0 0 0 0 0 0 0
0 0 0 0 0 0 0 0 0 0 0 0 0 0 0 0 0 0 0 0 0 0 0 0 0 0 4 14 16 19 8 0 0 0 1 0 0 0 0 0 0 0 0 0
0 0 0 0 0 0 0 0 0 0 0 0 0 0 0 0 0 0 0 0 0 0 0 1 5 7 12 15 14 1 3 0 2 0 0 0 0 0 0 0 0 0 0 0
0 0 0 0 0 0 0 0 0 0 0 0 0 0 0 0 0 0 0 0 0 0 3 4 9 7 3 7 9 8 1 0 0 0 0 0 0 0 0 0 0 0 0 0
0 0 0 0 0 0 0 0 0 0 0 0 0 0 0 0 0 0 0 0 0 1 0 0 0 0 0 0 0 0 0 0 0 0 0 0 0 0 0 0 0 0 0 0
0 0 0 0 0 0 0 0 0 0 0 0 0 0 0 0 0 0 0 0 0 0 0 0 0 0 0 0 0 0 0 0 0 0 0 0 0 0 0 0 0 0 0 0

GFSCGP_con_mucape_042.txt.gz
CAPE
0 0 0 3 2 25 55 46 18 29 2 76 79 6 11 221 654 625 590 525 417 301 327 268 217 92 75 95 157 123 248 289 191 11 7 123 294 252 253 187 84 25 0 0
0 0 0 8 24 33 28 34 30 16 0 0 0 0 0 225 195 566 511 504 487 475 472 458 272 262 183 165 185 197 182 330 356 51 16 76 177 328 239 399 147 5 0 2
0 0 0 1 8 27 15 7 12 10 1 2 0 0 0 247 347 496 567 473 466 609 605 622 519 365 355 294 262 253 312 419 370 91 35 88 171 291 285 181 40 7 25 49
0 0 0 0 0 1 9 3 0 2 0 0 0 0 0 1 354 453 559 626 639 700 759 639 676 564 479 427 335 311 442 462 398 326 110 172 254 307 324 97 15 14 53 59
0 0 0 0 0 0 0 0 0 0 0 0 0 0 0 0 0 247 616 535 714 837 850 768 655 704 507 443 422 443 530 572 449 269 176 227 306 277 83 23 21 64 77 53
0 0 0 0 0 0 0 0 0 0 0 0 0 0 0 0 0 0 59 535 688 610 753 511 603 689 627 400 456 552 561 556 347 162 209 250 251 164 105 60 69 60 69 33
0 0 0 0 0 0 0 0 0 0 0 0 0 0 0 0 0 0 0 3 291 704 714 576 376 622 625 513 448 576 644 568 403 288 288 251 205 158 201 105 56 55 35 11
0 0 0 0 0 0 0 0 0 0 0 0 0 0 0 0 0 0 0 0 0 7 173 575 439 400 547 546 536 592 667 753 533 351 287 319 188 337 335 166 117 99 27 30
0 0 0 0 0 0 0 0 0 0 0 0 0 0 0 0 4 0 0 0 0 0 44 186 454 405 348 401 428 469 504 583 563 385 408 384 571 535 262 95 76 69 45 55
0 0 0 0 0 0 0 0 0 0 0 0 0 0 0 0 0 0 1 0 0 0 4 97 187 314 341 412 442 375 459 434 486 529 468 434 609 443 320 124 86 65 71 71
0 0 0 0 0 0 0 0 0 0 0 0 0 0 0 0 0 0 0 11 20 61 81 154 296 402 581 583 525 525 609 761 681 603 565 554 514 425 237 275 101 71 68 53
0 0 0 0 0 0 0 0 0 0 0 0 0 0 0 0 2 0 0 7 59 142 247 361 466 481 563 564 619 643 809 899 745 648 634 608 574 488 240 55 74 72 50 37
0 0 0 0 0 0 0 0 0 0 0 0 0 0 0 0 0 0 0 0 37 149 360 574 662 699 752 739 798 885 949 1026 784 668 622 514 474 272 59 60 50 42 47 41
0 0 0 0 0 0 0 0 0 0 0 0 0 0 0 0 0 0 0 0 0 215 257 331 455 575 690 745 728 706 762 746 629 465 325 274 105 55 44 45 43 30 25 6
2 0 0 0 0 1 0 3 7 16 8 1 0 0 0 0 0 0 0 0 0 8 136 343 426 528 558 613 689 770 717 575 541 432 266 72 57 52 51 51 50 49 12 24
5 11 0 0 0 7 2 0 0 0 0 0 0 0 0 0 0 0 0 0 0 0 29 54 30 3 0 0 0 11 119 184 198 150 85 67 68 49 34 57 39 19 0 3
6 2 11 3 9 5 0 0 0 0 0 0 0 0 0 0 0 0 0 0 0 0 0 0 0 0 0 0 0 0 0 0 0 27 62 58 50 68 71 60 63 48 17 8
18 13 11 5 9 0 0 0 0 0 0 0 0 0 0 0 0 0 0 0 0 0 0 0 0 0 0 0 0 0 0 0 0 0 31 53 46 50 37 35 22 34 12 0
14 18 24 19 1 0 0 0 0 0 0 0 0 0 0 0 0 0 0 0 0 0 0 0 0 0 0 0 0 0 0 0 0 0 17 11 29 34 53 31 12 0 0 0
27 20 21 3 0 0 0 0 0 0 0 0 0 0 0 0 0 0 0 0 0 0 0 0 0 0 0 0 0 0 0 0 0 1 14 27 10 10 2 0 0 0 0 0
19 12 8 0 0 0 0 0 0 0 0 0 0 0 0 0 0 0 0 0 0 0 0 0 0 0 0 0 0 0 0 0 0 0 5 9 10 8 2 0 0 0 0 0
10 12 11 0 0 0 0 0 0 0 0 0 0 0 0 0 0 0 0 0 0 0 0 0 0 0 0 0 0 0 0 0 1 7 5 1 1 1 0 0 0 0 0 0
1 1 27 23 1 0 4 0 0 0 0 0 0 0 0 0 0 0 0 0 0 0 0 0 0 0 0 0 0 0 1 6 6 3 0 0 0 0 0 0 0 0 0 0
0 6 34 5 0 0 0 0 0 0 0 0 0 0 0 0 0 0 0 0 0 0 0 0 0 0 0 0 0 0 0 0 0 0 0 0 0 0 0 0 0 0 0 0
1 1 0 0 0 0 0 0 0 0 0 0 0 0 0 0 0 0 0 0 0 0 0 0 0 0 0 0 0 0 0 0 0 0 0 0 0 0 0 0 0 0 0 0
0 0 2 0 1 0 0 0 0 0 0 0 0 0 0 0 0 0 0 0 0 0 0 0 0 0 0 0 0 0 0 0 0 0 0 0 0 0 0 0 0 0 0 0

GFSCGP_con_mucape_045.txt.gz
CAPE
0 0 0 0 0 0 16 15 15 78 45 86 117 89 54 446 658 487 453 469 441 359 266 205 162 241 102 104 155 166 212 216 224 46 16 22 32 48 222 161 76 47 26 2
0 0 0 0 0 0 11 15 23 24 11 11 2 0 4 165 576 660 591 605 564 534 359 333 295 224 220 127 151 181 205 193 240 78 27 20 41 68 275 188 127 95 39 18
0 0 0 0 0 0 9 3 23 22 4 0 0 0 0 7 131 231 479 591 522 529 570 521 401 305 241 205 148 216 221 222 310 223 24 2 0 188 271 138 169 42 37 13
0 0 0 0 0 0 0 0 3 23 15 0 0 0 0 0 111 240 307 558 625 537 504 707 695 528 401 345 246 200 226 157 204 364 207 24 30 65 119 179 85 62 72 3
0 0 0 0 0 0 0 0 0 0 3 0 0 0 0 0 0 210 357 504 666 666 530 720 873 841 598 580 309 272 204 148 126 323 366 84 39 16 49 208 130 60 41 4
0 0 0 0 0 0 0 0 0 0 0 0 0 0 5 0 2 2 26 344 518 532 457 535 837 921 849 622 393 345 180 217 222 385 446 382 278 65 148 225 215 93 53 42
0 0 0 0 0 0 0 0 0 0 0 5 0 0 29 0 0 0 0 5 195 468 426 494 612 774 817 685 679 450 348 249 356 525 570 484 301 240 218 305 221 271 108 37
0 0 0 0 0 0 0 0 14 0 0 0 0 0 3 0 0 18 1 13 0 49 212 516 569 675 760 676 770 676 439 387 499 545 625 476 368 317 258 240 153 137 109 53
0 0 0 0 0 0 0 0 0 0 0 0 0 0 0 0 0 0 20 1 5 4 0 14 294 702 732 638 655 713 634 511 527 619 635 573 538 383 307 380 315 275 122 59
0 0 0 0 0 0 1 0 0 1 0 0 0 0 0 0 0 0 0 12 14 0 2 22 55 110 274 567 476 536 609 600 585 599 612 598 526 423 306 303 281 259 79 53
0 0 0 0 1 0 0 0 0 0 0 0 0 0 0 0 0 0 0 0 0 22 30 79 210 238 330 379 454 527 466 424 494 619 651 570 497 409 346 310 335 226 93 70
0 0 0 0 0 0 0 0 0 6 0 0 0 0 0 0 0 0 0 0 4 22 72 178 367 484 431 447 462 463 442 380 534 644 563 557 420 321 335 301 240 181 79 64
0 0 0 0 0 0 0 0 0 0 0 0 17 0 0 0 0 0 0 0 0 72 177 264 357 443 533 487 486 498 526 597 572 583 557 476 371 280 232 163 104 70 60 59
0 0 0 0 0 0 0 0 0 0 0 0 0 0 0 0 0 0 0 0 0 1 107 297 491 606 667 733 780 797 844 859 826 710 565 418 321 202 115 74 53 38 32 43
0 0 0 0 0 0 0 0 0 0 0 0 0 0 1 0 0 0 0 0 0 0 66 189 241 357 468 554 612 674 656 623 591 505 401 306 184 74 60 59 26 50 24 18
0 0 0 0 0 0 0 0 0 0 0 0 0 0 0 0 0 0 0 0 0 0 0 24 85 121 107 82 54 0 0 11 28 45 53 80 82 62 19 40 8 30 34 10
7 0 0 0 0 0 0 0 0 0 0 0 0 0 0 0 0 0 0 0 0 0 0 0 0 0 0 0 0 0 0 0 0 0 0 0 1 2 5 4 11 18 24 2
5 0 0 5 4 0 0 0 0 0 0 0 0 0 0 0 0 0 0 0 0 0 0 0 0 0 0 0 0 0 0 0 0 0 0 0 0 0 8 13 25 25 19 20
10 2 7 4 0 0 0 0 0 0 0 0 0 0 0 0 0 0 0 0 0 0 0 0 0 0 0 0 0 0 0 0 0 0 0 0 0 0 4 11 3 0 0 0
6 5 32 20 0 0 0 0 0 0 0 0 0 0 0 0 0 0 0 0 0 0 0 0 0 0 0 0 0 0 0 0 0 0 0 0 0 0 0 0 0 0 0 0
12 2 4 2 0 0 0 0 0 0 0 0 0 0 0 0 0 0 0 0 0 0 0 0 0 0 0 0 0 0 0 0 0 0 0 0 0 0 0 0 0 0 0 0
21 7 0 2 3 0 0 0 0 0 0 0 0 0 0 0 0 0 0 0 0 0 0 0 0 0 0 0 0 0 0 0 0 0 0 0 0 0 0 0 0 0 0 0
5 0 0 0 0 0 0 2 0 0 0 0 0 0 0 0 0 0 0 0 0 0 0 0 0 0 0 0 0 0 0 0 0 0 0 0 0 0 0 0 0 0 0 0
12 31 6 17 13 3 6 13 3 0 0 0 0 0 0 0 0 0 0 0 0 0 0 0 0 0 0 0 0 0 0 0 0 0 0 0 0 0 0 0 0 0 0 0
14 33 11 23 13 0 5 9 0 0 0 0 0 0 0 0 0 0 0 0 0 0 0 0 0 0 0 0 0 0 0 0 0 0 0 0 0 0 0 0 0 0 0 0
3 10 20 13 33 27 7 0 0 0 0 0 0 0 0 0 0 0 0 0 0 0 0 0 0 0 0 0 0 0 0 0 0 0 0 0 0 0 0 0 0 0 0 0

GFSCGP_con_mucape_048.txt.gz
CAPE
0 0 0 0 0 0 14 26 63 93 73 194 166 107 151 1024 1063 559 505 565 699 726 341 314 139 152 159 173 215 206 374 520 664 445 100 2 76 284 632 662 532 325 70 44
0 0 0 0 0 0 27 55 62 65 42 50 76 72 53 657 928 728 506 580 521 650 641 403 458 309 214 201 238 248 258 369 764 571 173 41 23 165 311 501 489 305 105 0
0 0 0 0 0 5 46 80 80 79 42 8 10 36 37 108 607 864 728 507 510 548 776 657 508 547 588 356 435 306 260 395 682 645 382 113 114 300 418 350 157 147 125 82
0 0 0 0 0 1 34 48 37 81 87 59 11 68 14 60 188 509 772 854 808 699 638 842 831 816 668 639 386 411 430 522 738 839 600 230 70 211 406 534 309 117 99 26
0 0 0 0 0 0 9 1 18 46 71 49 40 28 30 5 35 239 524 679 794 767 775 783 1053 1129 1034 809 771 504 475 555 723 926 929 555 187 142 517 622 308 35 67 96
0 0 0 0 0 0 0 5 13 24 67 125 38 49 77 64 44 59 115 455 683 929 978 853 910 1176 1308 1211 1043 1040 716 688 744 836 883 951 739 442 509 442 322 59 83 83
0 0 0 0 0 0 0 37 91 115 141 154 37 76 99 69 50 73 98 111 200 765 1109 1170 1073 1319 1470 1565 1471 1356 1096 885 816 845 861 1005 980 886 630 410 325 142 127 152
0 0 0 0 0 2 10 37 113 81 131 143 0 51 98 30 8 45 148 156 97 82 622 1126 1117 1249 1577 1737 1780 1640 1135 989 917 962 919 1065 1009 737 758 621 421 208 275 175
0 0 0 0 0 0 4 20 28 97 19 122 39 27 20 0 13 20 203 156 164 40 206 617 825 1149 1457 1744 1849 1764 1584 1275 1061 950 919 746 559 496 614 531 339 233 382 188
0 0 0 0 0 0 6 12 46 107 78 50 54 6 22 0 0 0 0 99 305 268 153 184 321 660 1127 1466 1600 1626 1589 1381 1221 1062 942 803 577 535 533 499 446 256 152 84
0 1 2 4 9 17 6 31 12 45 52 72 24 33 0 0 0 1 2 46 116 398 502 426 461 490 632 920 1179 1312 1345 1335 1269 1201 1172 999 678 743 537 407 351 269 202 156
0 0 1 1 2 1 11 24 73 51 14 8 47 39 0 0 0 3 0 19 229 294 526 673 842 886 827 853 936 1065 1154 1211 1240 1274 1194 1101 820 612 439 320 225 182 117 112
0 0 0 0 0 0 0 0 0 5 0 3 243 23 0 0 0 1 0 4 161 259 459 769 998 1149 1183 1151 1100 1107 1146 1157 1151 1106 794 535 487 440 276 151 50 49 55 65
1 0 0 0 0 7 0 0 0 14 76 11 36 1 22 10 4 9 0 0 0 17 431 813 1037 1145 1174 1249 1318 1330 1149 1006 739 695 665 636 515 393 304 169 80 66 51 50
5 0 0 0 0 2 0 0 3 19 23 40 52 44 84 71 77 22 0 0 0 0 296 592 939 1127 1222 1247 1189 1024 877 810 745 659 635 461 373 246 184 109 41 22 12 4
5 1 5 0 0 0 0 0 0 1 1 39 68 20 18 59 0 0 0 0 0 2 27 100 210 323 446 540 595 497 362 189 101 18 9 9 11 19 25 43 44 0 0 3
16 9 4 0 0 0 0 0 0 0 18 66 66 82 25 4 0 0 0 0 0 0 0 28 107 124 123 97 34 10 3 0 0 0 0 0 0 0 0 0 0 0 0 4
23 30 28 0 1 22 0 0 8 7 13 44 9 15 0 0 0 0 0 0 0 0 0 0 0 0 0 0 0 0 0 0 0 0 0 0 0 0 0 0 0 0 0 0
35 63 43 124 11 1 0 0 0 8 18 34 10 0 0 0 0 0 0 0 0 0 0 0 0 0 0 0 0 0 0 0 0 0 0 0 0 0 0 0 0 0 0 0
1 26 154 7 0 116 0 0 0 0 57 41 0 0 0 0 0 0 0 0 0 0 0 0 0 0 0 0 0 0 0 0 0 0 0 0 0 0 0 0 0 0 0 0
7 33 33 92 94 25 0 0 0 11 119 0 0 0 0 0 0 0 0 0 0 0 0 0 0 0 0 0 0 0 0 0 0 0 0 0 0 0 0 0 0 0 0 0
18 43 36 91 99 13 0 0 0 94 3 0 0 0 0 0 0 0 0 0 0 0 0 0 0 0 0 0 0 0 0 0 0 0 0 0 0 0 0 0 0 0 0 0
7 55 145 37 57 81 0 4 0 13 3 0 0 0 0 0 0 0 0 0 0 0 0 0 0 0 0 0 0 0 0 0 0 0 0 0 0 0 0 0 0 0 0 0
12 0 0 7 15 1 0 0 0 0 2 0 0 0 0 0 0 0 0 0 0 0 0 0 0 0 0 0 0 0 0 0 0 0 0 0 0 0 0 0 0 0 0 0
29 0 1 11 22 4 2 11 24 13 0 0 0 0 0 0 0 0 0 0 0 0 0 0 0 0 0 0 0 0 0 0 0 0 0 0 0 0 0 0 0 0 0 0
0 0 31 12 84 59 155 74 18 2 0 0 0 0 0 0 0 0 0 0 0 0 0 0 0 0 0 0 0 0 0 0 0 0 0 0 0 0 0 0 0 0 0 0

GFSCGP_con_mucape_051.txt.gz
CAPE
0 0 0 32 28 0 0 17 34 48 66 101 125 118 174 733 646 628 540 589 412 577 501 338 205 199 132 173 192 217 322 400 386 253 118 0 135 139 195 378 554 603 606 499
3 0 3 0 0 0 0 47 43 57 19 22 6 73 5 537 717 463 533 576 505 506 566 332 309 309 274 258 243 260 240 267 555 419 175 40 15 53 90 277 628 559 522 419
2 9 0 0 0 0 0 58 34 49 20 3 0 1 42 27 330 511 326 381 382 544 660 606 245 274 391 343 373 385 410 528 569 576 397 103 8 64 101 271 492 558 599 463
0 2 0 0 0 0 21 12 26 20 38 49 25 14 18 32 134 489 447 322 303 403 701 711 739 486 311 323 447 415 410 438 446 522 509 288 69 8 83 244 419 532 401 194
0 0 0 0 2 2 15 2 19 28 78 64 30 105 60 17 44 126 548 504 399 371 514 766 809 781 747 680 711 762 476 383 410 573 621 660 322 109 188 430 676 854 519 191
0 2 0 1 7 3 2 0 11 35 56 101 110 80 61 65 9 41 86 307 512 437 500 565 813 869 922 919 1092 991 572 480 484 659 789 970 743 428 152 700 867 811 634 331
0 1 0 0 0 0 2 13 75 90 113 165 90 85 30 40 66 26 44 108 320 472 555 616 681 924 1132 1342 1318 1323 769 507 555 674 855 987 992 861 672 535 977 687 506 260
0 0 0 0 0 44 0 31 123 104 202 200 123 35 59 78 17 1 11 89 134 252 603 713 738 798 1134 1551 1514 1353 1216 1045 702 568 870 1256 1124 1518 1277 1172 978 861 738 570
0 0 3 1 0 1 38 29 75 87 186 143 211 91 127 51 0 1 21 141 240 290 266 552 869 1003 1140 1769 2061 2015 1592 1474 1169 804 630 484 841 1631 1434 1373 1376 1160 697 267
0 0 0 0 0 2 13 53 60 125 80 137 138 182 148 22 1 0 0 35 261 358 236 318 700 970 1174 1549 2219 2265 2076 1777 1531 1232 1159 1055 1274 1375 1163 1078 1098 680 426 299
3 0 14 19 0 19 2 57 73 98 123 159 231 250 80 12 0 0 0 0 3 282 502 418 453 620 892 1279 1799 2198 2250 2111 1950 1762 1622 1475 1155 1095 775 698 670 421 318 331
0 3 7 17 6 0 19 33 85 129 184 113 131 170 54 24 10 0 0 0 12 44 507 754 765 716 844 1134 1487 1838 1972 1958 1776 1698 1665 1509 1139 1258 1167 1042 850 964 209 62
3 10 18 31 30 23 28 61 98 136 142 83 247 100 28 19 0 0 0 0 17 156 247 766 1183 1173 1123 1201 1341 1503 1582 1555 1566 1633 1589 1383 1256 1037 1062 885 708 491 283 194
27 1 4 0 6 19 8 15 45 77 245 76 24 50 76 35 18 37 26 0 9 222 285 374 820 1246 1359 1386 1353 1409 1432 1444 1457 1374 1163 1072 724 556 461 406 321 205 138 115
37 6 5 1 14 34 28 25 30 58 64 86 45 60 103 102 96 94 80 25 0 1 134 510 654 970 1225 1440 1547 1600 1207 1103 736 571 506 487 478 442 353 298 265 147 111 91
33 15 23 19 9 15 8 7 14 18 27 39 38 60 93 73 7 49 56 0 1 33 82 442 892 1227 1427 1501 1489 1026 704 590 458 456 388 198 116 11 2 0 0 0 0 0
94 99 55 2 20 25 34 1 10 6 7 8 26 33 53 75 35 0 0 0 12 113 254 451 671 640 547 673 585 536 425 230 92 36 16 0 0 0 0 0 0 0 0 0
114 110 122 76 8 0 0 0 0 1 0 7 0 9 47 22 2 0 5 13 56 73 89 45 18 60 221 302 262 84 44 16 1 0 0 0 0 0 0 0 0 0 0 0
76 169 168 140 47 1 0 0 0 1 0 6 1 18 5 2 0 0 0 0 3 0 0 0 0 3 11 11 3 0 0 0 0 0 0 0 0 0 0 0 0 0 0 0
16 108 193 115 0 0 0 0 0 11 30 3 21 0 0 0 1 0 0 0 0 0 0 0 0 0 0 0 0 0 0 0 0 0 0 0 0 0 0 0 0 0 0 0
52 110 150 172 73 5 0 0 28 81 137 96 34 0 0 0 0 0 0 0 0 0 0 0 0 0 0 0 0 0 0 0 0 0 0 0 0 0 0 0 0 0 0 0
71 57 130 156 165 16 5 23 35 125 167 78 38 0 0 0 0 0 0 0 0 0 0 0 0 0 0 0 0 0 0 0 0 0 0 0 0 0 0 0 0 0 0 0
125 113 164 127 103 119 61 130 70 110 127 178 90 3 0 0 0 0 0 0 0 0 0 0 0 0 0 0 0 0 0 0 0 0 0 0 0 0 0 0 0 0 0 0
69 86 214 88 71 116 147 61 76 127 128 129 69 6 0 0 0 0 0 0 0 0 0 0 0 0 0 0 0 0 0 0 0 0 0 0 0 0 0 0 0 0 0 0
45 46 44 21 6 28 59 90 162 81 30 27 6 1 0 0 0 0 0 0 0 0 0 0 0 0 0 0 0 0 0 0 0 0 0 0 0 0 0 0 0 0 0 0
9 42 102 89 15 217 200 154 78 125 71 6 5 1 0 0 0 0 0 0 0 0 0 0 0 0 0 0 0 0 0 0 0 0 0 0 0 0 0 0 0 0 0 0

GFSCGP_con_mucape_057.txt.gz
CAPE
0 0 0 0 0 0 0 0 0 0 15 17 59 65 27 19 82 146 125 211 82 20 6 0 0 0 0 0 0 0 0 0 0 8 0 0 0 0 29 40 12 68 149 237
0 0 0 0 0 0 0 0 0 0 3 0 1 60 77 17 183 172 193 149 158 69 16 0 0 0 0 0 0 0 0 0 0 0 0 0 0 0 0 0 0 115 164 213
0 0 0 0 0 0 0 0 0 0 6 3 0 0 52 56 19 66 204 149 214 149 104 43 0 0 0 0 0 0 0 0 0 0 0 0 0 0 0 0 0 196 254 208
0 0 0 0 0 0 0 0 0 0 0 0 2 0 0 83 76 101 97 152 173 225 221 201 0 0 0 0 0 0 0 0 0 0 0 0 0 0 0 0 0 46 200 244
0 0 0 0 0 0 0 0 0 0 0 0 0 0 12 37 69 29 92 166 183 276 267 287 199 0 0 0 8 0 0 0 0 0 0 0 0 0 0 0 0 17 131 204
0 0 0 0 0 0 0 0 0 0 0 0 0 0 0 3 15 108 53 173 213 280 340 324 289 140 1 1 1 22 9 0 0 0 0 12 84 29 7 0 0 46 207 276
0 0 0 0 0 0 0 1 0 0 0 0 1 2 0 2 6 2 72 104 196 155 344 347 302 353 193 6 100 68 38 35 52 40 29 66 194 204 85 28 0 40 258 330
0 0 0 0 0 0 0 0 0 0 0 0 0 0 0 0 0 0 1 94 88 118 268 347 356 389 383 254 122 157 64 56 84 102 124 212 204 240 219 120 36 97 202 257
0 0 0 0 0 0 0 0 0 0 50 15 0 15 0 0 0 1 0 0 0 71 281 359 405 416 423 387 335 244 131 30 120 122 190 309 257 222 285 278 241 263 206 273
0 0 0 0 0 0 1 0 7 2 0 0 0 3 11 0 0 2 0 0 0 98 174 243 467 484 460 420 408 332 285 211 139 230 202 189 354 311 329 491 455 239 325 288
0 0 0 0 0 0 0 0 0 18 24 0 0 0 1 0 1 0 0 0 32 188 219 154 215 373 544 480 434 470 466 478 477 359 279 298 298 523 532 500 563 360 377 640
0 0 0 0 0 0 0 0 0 14 0 48 11 0 2 1 0 0 0 0 0 135 216 254 277 271 331 513 545 616 551 487 512 454 311 228 138 251 188 92 350 403 770 883
0 0 0 0 0 0 0 0 0 0 34 42 24 0 29 3 0 0 0 0 0 110 225 382 457 480 458 683 697 822 852 758 669 577 413 379 343 99 72 319 681 897 1123 737
2 0 0 0 0 0 0 0 0 0 1 10 12 1 34 15 29 0 11 7 0 41 223 361 533 610 619 698 1170 1374 1428 1213 674 585 758 727 618 455 448 565 569 597 437 243
7 0 0 0 0 0 0 0 0 0 0 4 0 10 16 46 46 14 15 11 2 0 228 366 589 729 849 974 1242 1439 1198 1124 1112 1110 900 922 863 703 596 448 326 272 300 209
1 0 0 0 0 0 0 0 0 5 15 38 37 2 14 11 16 31 3 3 0 0 3 307 552 759 950 1115 1153 1135 1168 1143 996 1108 920 812 734 802 646 455 393 308 153 107
0 0 0 0 0 0 0 0 0 0 1 0 0 0 7 37 40 27 4 0 0 0 0 0 538 868 1005 1158 1162 1193 1166 993 865 908 848 655 501 448 312 163 96 24 0 0
0 7 15 0 1 0 0 0 0 0 0 0 3 1 1 4 4 3 8 6 0 4 4 400 429 846 997 1056 1111 1143 1041 1093 741 553 533 429 329 226 72 13 0 0 0 0
17 20 6 0 0 0 0 0 0 1 0 0 0 0 0 0 0 5 2 8 6 23 115 610 732 881 1017 1011 1002 1087 914 853 486 246 225 239 135 28 18 0 0 0 0 0
0 7 18 21 0 0 0 0 0 3 0 0 0 1 0 0 6 3 5 16 34 99 165 223 294 686 723 624 589 607 561 388 250 144 76 37 26 0 0 0 0 0 0 0
0 0 0 1 0 0 12 0 7 3 0 0 3 21 4 2 12 5 0 22 37 54 70 89 96 112 127 164 217 162 101 68 11 0 0 0 0 0 0 0 0 0 0 0
0 0 0 2 0 0 55 27 10 0 0 0 26 34 6 14 7 2 1 4 0 0 0 0 0 0 0 0 0 0 0 0 0 0 0 0 0 0 0 0 0 0 0 0
46 0 0 0 0 32 13 46 53 7 5 89 116 103 67 53 32 25 0 0 0 0 0 0 0 0 0 0 0 0 0 0 0 0 0 0 0 0 0 0 0 0 0 0
83 41 6 56 0 0 4 3 0 1 3 54 28 63 72 39 31 2 19 0 0 0 0 0 0 0 0 0 0 0 0 0 0 0 0 0 0 0 0 0 0 0 0 0
41 64 14 8 7 1 0 7 4 0 1 29 37 18 39 3 23 2 27 0 0 0 0 0 0 0 0 0 0 0 0 0 0 0 0 0 0 0 0 0 0 0 0 0
8 0 0 0 0 7 34 110 60 53 0 0 15 18 37 33 13 2 5 0 0 0 0 0 0 0 0 0 0 0 0 0 0 0 0 0 0 0 0 0 0 0 0 0

GFSCGP_con_mucape_060.txt.gz
CAPE
0 0 0 0 0 0 0 0 0 0 12 23 13 5 12 31 0 228 410 213 141 23 0 0 0 0 0 0 0 0 0 0 0 9 7 1 0 0 11 12 8 13 53 105
0 0 0 0 0 0 0 0 0 0 11 24 1 30 45 25 35 105 133 262 186 63 0 0 0 0 0 0 0 0 0 0 0 0 1 3 10 8 2 10 8 0 52 105
0 0 0 0 0 0 0 0 0 0 0 7 11 0 21 37 5 129 183 233 235 108 0 0 0 0 0 0 0 0 0 0 0 0 0 0 0 1 0 0 0 0 0 15
0 0 0 0 0 0 0 0 0 0 0 0 8 0 0 15 3 34 104 281 236 146 75 7 0 0 0 0 0 0 0 0 0 0 0 0 0 0 0 0 0 0 0 5
0 0 0 0 0 0 0 0 0 0 0 0 0 0 0 9 0 0 42 246 253 202 154 77 32 0 0 0 0 0 0 0 0 0 0 0 0 0 0 0 0 0 0 0
0 0 0 0 0 0 0 0 0 0 0 0 0 0 0 9 15 0 21 118 235 261 231 184 169 23 0 0 0 0 0 0 0 0 0 0 0 0 0 0 0 0 0 0
0 0 0 0 0 0 0 0 0 0 0 0 0 0 0 0 0 3 22 25 128 215 254 229 233 242 60 0 0 0 0 0 0 0 0 0 0 0 0 0 0 0 0 0
0 0 0 0 0 0 0 0 0 0 0 0 0 0 0 0 0 0 0 7 42 190 266 261 257 301 292 96 0 0 0 0 0 0 0 0 0 0 9 6 27 6 7 28
0 0 0 0 0 0 0 0 0 0 0 0 0 0 0 0 0 0 0 0 26 90 257 312 255 296 348 339 228 59 0 0 0 0 0 1 0 0 32 102 158 64 42 37
0 0 0 0 0 0 0 0 0 0 0 0 0 0 0 0 0 0 0 0 7 26 168 213 261 288 359 366 388 309 213 166 27 2 0 3 26 28 65 110 153 161 172 147
0 0 0 0 0 0 0 0 2 2 0 0 0 0 0 0 9 0 0 0 0 0 10 94 200 289 326 401 402 387 304 221 186 92 34 49 71 84 128 145 160 156 154 122
0 0 0 0 0 0 0 0 0 0 0 0 0 0 0 0 3 8 2 0 18 42 55 36 147 250 319 397 410 407 381 332 303 204 101 45 46 94 193 286 196 91 18 230
2 0 0 0 0 0 0 0 0 0 0 0 0 0 0 0 6 6 4 0 0 12 56 55 76 107 267 342 428 486 482 401 251 185 126 75 70 61 136 183 234 185 1 33
19 0 0 0 0 0 0 0 0 0 0 0 0 0 3 0 3 8 0 0 0 0 47 70 176 208 290 456 553 585 565 516 370 256 177 175 169 206 231 198 349 337 126 221
33 0 0 0 0 0 0 0 0 0 0 0 0 0 0 0 1 5 0 0 0 0 68 90 170 203 467 829 800 813 756 686 584 478 373 437 336 207 244 353 291 198 387 400
44 5 0 0 0 0 0 0 0 0 0 0 0 0 0 10 10 41 13 7 4 2 19 97 174 218 685 862 950 844 933 890 899 823 606 443 535 504 428 456 268 356 480 591
10 9 0 0 0 0 0 0 0 0 0 3 0 0 11 10 1 4 22 11 18 9 4 59 167 291 668 781 949 1184 1253 1141 1025 901 763 639 619 539 474 462 630 429 110 117
0 0 0 0 2 2 0 0 0 0 0 0 0 0 6 6 2 3 14 32 20 0 0 4 160 304 521 695 747 835 912 881 791 731 661 577 606 436 371 319 117 90 79 41
38 0 1 0 1 0 0 0 0 0 0 0 0 1 0 0 0 0 0 0 7 10 0 0 28 299 553 684 690 716 736 817 649 585 508 365 292 303 225 136 107 51 2 0
55 66 0 0 0 0 0 0 0 0 0 0 0 0 0 0 0 0 0 0 1 4 49 107 174 365 614 738 804 812 740 676 559 527 439 324 196 138 142 40 23 0 0 0
49 28 0 0 0 0 7 2 3 2 0 0 2 0 0 0 0 0 0 1 7 76 242 387 297 585 777 862 847 687 592 621 461 317 232 133 54 45 19 2 0 0 0 0
9 7 0 0 1 0 14 40 7 1 24 29 22 11 8 0 0 4 0 10 38 71 129 362 583 691 699 753 650 480 433 452 362 221 130 69 32 3 0 0 0 0 0 0
40 1 0 0 0 17 15 0 6 8 9 7 6 13 5 25 18 20 17 25 30 34 56 85 139 172 196 200 176 168 101 34 5 3 20 0 0 0 0 0 0 0 0 0
0 41 47 14 0 71 23 11 0 0 12 15 7 0 8 23 19 34 40 19 13 4 0 0 0 0 0 0 0 0 0 0 0 0 0 0 0 0 0 0 0 0 0 0
0 114 111 32 35 85 51 33 25 5 0 1 1 5 7 11 15 17 15 26 30 3 0 2 0 0 0 0 0 0 0 0 0 0 0 0 0 0 0 0 0 0 0 0
14 33 87 7 56 89 21 4 10 5 7 12 0 0 0 8 2 13 25 8 5 1 6 1 0 0 0 0 0 0 0 0 0 0 0 0 0 0 0 0 0 0 4 0

GFSCGP_con_mucape_066.txt.gz
CAPE
0 0 0 0 0 0 0 0 0 0 0 0 0 0 0 0 0 0 0 4 11 71 104 0 0 3 0 0 0 2 1 0 3 17 12 21 0 9 19 74 58 63 31 36
0 0 0 0 0 0 0 0 0 0 0 0 0 0 0 0 0 0 0 18 35 67 33 0 0 0 0 2 0 0 0 3 0 17 22 0 3 23 16 30 38 48 67 98
0 0 0 0 0 0 0 0 0 0 0 0 0 0 0 0 0 0 0 0 4 64 64 16 0 0 3 4 1 0 0 0 0 7 3 2 9 10 21 67 50 75 99 105
0 0 0 0 0 0 0 0 0 0 0 0 0 0 0 0 0 0 0 0 0 1 92 77 24 0 0 0 0 0 0 0 0 0 0 0 0 0 33 1 61 46 56 58
0 0 0 0 0 0 0 0 0 0 0 0 0 0 0 0 0 0 0 0 0 0 28 42 60 51 0 0 0 0 0 0 0 0 0 0 0 4 6 17 6 4 0 1
0 0 0 0 0 0 0 0 0 0 0 0 0 0 0 0 0 0 0 0 0 0 0 52 69 122 59 0 0 0 1 0 0 0 0 0 0 0 1 3 7 0 0 0
0 0 0 0 0 0 0 0 0 0 0 0 0 0 0 0 0 0 0 0 0 0 0 9 92 130 164 22 0 0 0 0 0 0 0 0 0 0 0 0 0 0 0 0
0 0 0 0 0 0 0 0 0 0 0 0 0 0 0 0 0 0 0 0 0 0 0 2 34 123 171 130 5 0 0 0 0 0 0 0 0 0 0 0 0 0 0 0
0 0 0 0 0 0 0 0 0 0 0 0 0 0 0 0 0 0 0 0 0 0 0 0 9 79 189 177 137 3 0 0 0 0 0 0 0 0 0 0 0 0 0 0
0 0 0 0 0 0 0 0 0 0 0 0 0 0 0 0 0 0 0 0 0 0 0 0 10 39 108 199 174 163 74 54 7 0 0 0 0 0 0 0 0 3 0 0
0 0 0 0 0 0 0 0 0 0 0 0 0 0 0 0 0 0 0 0 0 0 0 0 2 30 48 102 202 195 235 217 199 64 11 0 0 0 0 0 0 0 1 2
0 0 0 0 0 0 0 0 0 0 0 0 0 0 0 0 0 0 0 0 0 0 0 0 1 2 45 100 120 144 185 242 248 235 130 42 10 1 0 0 0 0 0 0
4 3 0 0 0 0 0 0 0 0 0 0 0 0 0 0 0 0 0 0 0 0 0 0 0 23 44 48 88 125 144 151 180 206 236 217 117 22 3 12 0 0 0 0
6 21 3 0 0 0 0 0 0 0 0 0 0 0 0 0 0 0 0 0 0 5 1 0 0 0 21 37 49 82 112 83 91 108 155 239 253 206 77 26 0 0 0 7
1 0 0 2 5 0 0 0 0 0 0 0 0 0 0 0 0 0 0 0 0 11 3 1 0 1 11 28 44 63 98 98 109 116 139 195 292 274 224 101 8 5 14 6
0 0 4 0 2 1 0 0 0 0 0 0 0 0 0 0 0 0 0 0 0 0 0 9 0 0 33 38 32 65 71 115 141 144 123 140 280 321 273 206 123 54 34 40
0 0 1 0 0 3 0 0 0 0 0 0 0 0 0 0 0 0 0 0 0 0 0 13 13 2 1 40 33 39 107 128 133 160 181 159 260 353 296 200 184 183 128 126
0 7 0 0 0 0 0 0 0 0 0 0 0 0 0 0 0 0 0 0 0 0 0 2 2 5 14 7 35 49 94 148 156 185 192 195 279 263 291 203 206 194 188 426
0 27 21 0 0 0 0 1 0 4 0 1 0 0 0 0 0 0 0 0 0 0 1 10 0 2 10 12 32 126 208 225 210 209 209 228 293 316 344 305 208 107 199 289
41 45 43 0 0 0 0 0 0 1 0 0 0 0 0 0 0 0 0 0 0 0 0 0 0 0 20 25 62 148 265 228 233 228 231 251 391 426 376 351 197 234 281 244
0 5 0 24 10 0 0 1 105 23 0 0 0 0 0 0 0 0 0 0 0 0 0 0 0 0 8 30 69 187 301 295 321 354 450 584 319 210 193 246 154 27 51 67
0 0 5 22 9 0 0 58 6 5 0 1 0 3 0 0 0 0 0 0 0 0 0 0 0 0 7 25 123 237 337 398 474 614 658 428 283 255 195 57 107 55 17 54
0 0 2 19 0 0 0 0 0 0 0 0 0 0 0 0 0 0 0 0 0 0 11 13 9 27 62 139 202 294 352 428 496 527 562 543 340 82 80 82 79 75 202 69
0 19 6 0 0 0 0 0 0 0 0 0 18 0 0 0 2 0 0 0 0 0 4 83 93 74 82 166 268 335 518 488 597 631 447 110 28 26 10 10 18 15 49 90
0 0 0 0 0 0 0 0 2 7 15 3 16 0 0 0 5 3 11 6 2 3 6 36 127 208 225 266 343 458 432 352 166 48 1 5 4 6 5 8 9 34 29 0
0 0 1 0 0 0 0 0 0 0 15 21 14 25 17 30 1 1 4 1 1 6 14 9 18 96 83 76 97 105 73 30 1 0 0 0 1 2 0 0 0 0 0 0

GFSCGP_con_mucape_072.txt.gz
CAPE
0 0 0 0 0 0 0 0 0 0 0 0 0 0 0 0 0 0 35 69 191 287 192 129 20 0 1 9 19 23 8 3 1 4 0 3 4 6 56 61 50 81 62 50
0 0 0 0 0 0 0 0 0 0 0 0 0 0 0 0 0 0 0 47 68 305 225 134 16 1 1 7 14 24 0 1 3 0 0 4 8 0 60 4 21 20 76 44
0 0 0 0 0 0 0 0 0 0 0 0 0 0 0 0 0 0 0 3 52 177 342 184 51 5 0 5 12 11 0 5 2 5 43 33 4 6 0 2 2 6 42 75
0 0 0 0 0 0 0 0 0 0 0 0 0 0 0 0 0 0 0 5 57 90 304 236 129 28 0 0 6 11 5 0 0 1 4 10 31 11 5 7 3 5 56 59
0 0 0 0 0 0 0 0 0 0 0 0 0 0 0 0 0 0 0 0 24 91 265 328 178 84 3 0 2 10 6 20 0 0 0 0 0 17 12 11 0 1 12 60
0 0 0 0 0 0 0 0 0 0 0 0 0 0 0 0 0 0 0 0 0 26 107 290 234 114 25 0 1 10 8 10 11 5 0 0 0 2 5 1 0 9 1 0
0 0 0 0 0 0 0 0 0 0 0 0 0 0 0 0 0 0 0 0 0 0 49 188 255 177 56 7 0 2 2 3 13 17 17 7 24 22 2 0 0 4 9 8
0 0 0 0 0 0 0 0 0 0 0 0 0 0 0 0 0 0 0 0 0 0 11 119 208 227 142 31 16 0 0 0 4 12 15 17 22 40 25 12 0 5 6 10
0 0 0 0 2 0 0 0 0 0 0 0 0 0 0 0 0 0 0 0 0 0 0 75 154 232 187 80 20 4 0 0 0 5 13 13 17 25 70 36 16 21 14 25
0 0 0 0 0 3 8 2 0 0 0 0 0 0 0 0 0 0 0 0 0 0 0 25 146 181 184 127 42 22 7 0 0 0 3 2 3 2 4 19 45 62 43 25
0 0 0 0 0 0 0 0 0 0 0 0 0 0 1 0 0 0 0 0 0 0 0 10 66 147 150 132 66 26 30 18 0 0 0 0 0 1 4 54 27 15 29 18
18 9 0 0 0 0 0 0 0 0 0 0 0 0 0 0 0 0 0 0 0 0 0 0 83 173 152 153 108 76 34 30 37 14 28 22 0 0 2 3 29 70 35 38
0 22 0 0 4 1 0 0 0 0 0 0 0 0 4 0 0 0 0 4 9 0 0 0 31 155 221 197 155 123 88 58 34 41 51 75 103 65 5 0 0 1 4 6
0 6 29 0 11 9 11 0 0 0 0 0 0 0 0 0 0 0 0 0 0 0 0 5 0 52 185 274 253 152 120 103 59 36 59 69 98 114 123 56 9 1 0 0
107 2 4 7 0 0 0 0 0 0 0 0 0 4 2 0 0 0 0 0 0 0 0 0 8 6 100 232 279 247 187 129 93 51 46 109 44 50 81 95 125 116 37 0
0 0 6 22 12 1 0 0 0 0 0 1 22 0 1 0 0 0 0 0 0 0 0 0 0 13 5 58 238 222 223 183 123 69 61 61 58 40 30 53 69 102 97 109
0 21 0 0 7 6 0 0 0 0 2 8 11 0 0 0 0 0 0 0 0 0 0 0 0 0 18 28 80 218 293 239 142 107 74 48 52 53 61 27 68 130 133 129
0 37 17 0 0 0 0 0 0 0 0 3 0 0 0 0 6 9 0 0 0 0 0 0 0 0 0 0 1 87 154 239 182 141 120 87 41 56 50 62 58 120 163 170
4 18 0 0 0 0 0 0 0 0 0 0 0 0 12 9 3 22 10 0 0 0 0 0 0 0 0 0 0 9 68 166 228 203 186 146 144 98 90 80 91 99 157 181
12 12 13 0 0 0 0 0 5 2 0 0 0 0 0 0 18 19 0 0 0 0 0 0 0 0 0 0 0 0 5 59 156 285 233 222 190 180 190 177 95 133 157 187
0 14 0 0 0 18 0 0 106 9 28 0 0 0 0 2 28 1 0 0 0 0 0 0 0 3 0 0 0 0 4 15 52 135 218 216 227 241 229 154 127 159 224 209
0 0 0 1 0 0 0 14 29 18 0 0 0 0 0 0 6 23 0 0 0 0 0 0 0 0 0 0 19 49 85 56 20 32 58 83 108 117 138 156 170 167 171 154
22 38 59 15 37 49 62 22 0 0 0 0 0 1 4 45 47 35 3 4 0 0 0 0 3 26 4 0 0 0 0 0 3 71 129 176 221 194 138 194 147 99 100 113
0 6 28 12 0 4 0 0 0 0 0 0 0 0 0 0 55 14 0 0 0 0 0 1 0 11 53 34 31 50 123 98 146 182 184 215 284 243 145 117 81 51 57 68
8 3 0 0 2 3 0 0 2 0 0 0 0 0 0 0 0 0 2 0 0 0 8 11 12 0 34 181 188 178 193 200 231 192 210 268 169 118 83 58 48 8 1 1
9 0 0 0 18 0 0 0 5 1 0 0 0 0 0 0 0 0 0 2 4 18 0 1 26 19 7 29 184 251 203 229 188 287 154 108 53 8 8 3 0 10 0 5

GFSCGP_con_mucape_075.txt.gz
CAPE
0 0 0 0 0 0 0 0 0 3 0 0 0 0 0 0 0 0 0 9 75 285 340 292 291 84 13 15 7 46 31 23 0 3 0 0 16 2 0 2 7 62 88 132
0 0 0 0 0 0 0 0 0 0 0 0 0 0 0 0 0 0 0 20 31 106 340 355 370 182 15 12 6 24 19 28 0 5 0 0 3 6 9 7 0 19 70 64
0 0 0 0 0 0 0 0 2 0 0 0 0 0 0 0 0 0 0 0 5 36 275 415 409 328 80 2 5 17 19 0 0 0 19 8 4 1 2 0 5 4 52 63
0 0 0 0 0 0 0 0 0 0 0 0 0 0 0 0 0 0 0 0 0 10 56 410 446 358 232 9 2 13 19 16 0 24 1 0 0 5 0 1 3 1 5 71
0 0 0 0 0 0 0 0 0 0 0 0 0 0 0 0 0 0 0 0 0 0 22 414 477 379 283 48 1 8 2 25 0 19 18 2 0 2 9 1 5 2 2 25
0 0 4 0 0 0 0 0 0 0 0 0 0 0 0 0 0 1 0 0 0 2 2 220 459 435 327 114 4 4 9 16 18 17 34 29 97 26 0 2 10 1 1 0
0 0 0 2 0 0 0 0 0 0 0 0 0 0 0 0 0 0 0 0 0 0 0 84 437 473 383 215 35 2 4 22 11 20 29 42 57 59 0 29 1 6 0 0
0 0 0 0 0 0 0 0 0 0 29 19 5 0 0 0 0 0 0 0 0 0 0 4 259 509 426 326 99 4 1 17 35 13 27 21 19 18 36 16 1 43 0 0
0 0 0 0 0 0 0 0 0 0 0 0 9 0 2 0 0 0 0 0 0 1 10 19 107 406 474 391 245 55 7 14 29 53 109 47 104 85 39 37 58 23 20 18
1 0 0 0 0 0 0 0 0 0 0 0 0 8 36 4 0 0 1 1 6 6 10 0 124 290 419 464 358 174 20 16 28 45 75 104 117 163 216 181 163 80 59 30
0 2 0 0 0 0 0 0 0 0 0 0 0 33 8 15 1 0 12 0 7 11 0 0 140 268 425 447 439 283 91 25 33 97 52 78 150 181 341 339 340 271 191 82
2 83 0 0 0 0 3 0 0 0 0 0 0 3 0 4 0 0 0 0 5 2 7 0 33 172 405 431 431 401 195 99 62 192 225 243 187 101 220 350 473 423 324 213
1 28 0 0 20 17 0 24 19 18 20 0 0 0 12 0 0 0 0 0 0 6 34 41 21 126 347 413 405 386 373 261 315 49 103 350 355 239 201 256 329 330 442 306
2 28 36 0 5 14 2 41 40 17 0 0 0 11 6 3 5 0 0 0 0 1 0 4 24 29 220 427 417 406 692 724 485 124 74 119 391 344 272 192 167 221 254 280
13 14 41 48 4 0 36 82 81 94 79 0 46 50 47 38 19 17 1 0 0 0 0 0 13 28 46 265 508 486 499 697 572 372 301 325 454 316 188 214 171 147 180 196
10 9 0 1 3 5 0 0 5 17 25 36 27 28 66 39 11 0 0 0 0 0 0 0 0 5 17 20 297 470 555 840 748 717 689 456 379 340 350 326 281 189 151 122
0 0 0 0 28 3 0 0 0 1 6 8 43 89 1 16 0 0 0 0 0 0 0 0 0 1 3 10 18 73 432 498 725 739 698 630 651 601 572 348 203 206 192 172
10 6 18 0 4 0 0 0 0 0 4 11 8 16 3 0 0 0 1 3 0 0 0 0 0 0 0 0 1 5 25 293 683 710 627 593 644 634 511 513 418 349 291 235
15 13 3 0 0 0 0 0 0 0 0 6 0 4 19 9 0 31 73 0 0 0 0 0 0 0 27 6 0 0 0 53 319 682 600 525 573 546 528 556 586 492 394 330
22 22 72 0 0 0 4 25 0 7 56 26 16 21 16 1 4 29 2 0 0 0 0 0 0 0 9 11 23 38 2 2 118 568 647 543 511 544 476 594 598 478 334 189
40 56 0 0 0 15 44 43 25 23 78 16 4 18 23 16 18 5 0 3 1 3 1 0 1 0 0 0 0 4 95 13 5 43 408 555 485 477 324 368 581 484 87 31
62 0 0 1 0 0 0 49 75 122 67 19 18 9 1 0 0 4 5 18 20 5 0 0 0 0 0 0 0 0 118 50 36 49 140 299 339 302 282 382 238 188 117 71
82 22 52 21 33 88 172 147 27 14 6 4 1 0 0 0 0 5 67 62 0 0 0 0 0 0 0 3 11 4 0 1 6 6 17 151 250 307 271 265 264 219 174 104
78 15 70 20 118 42 110 20 51 3 1 1 0 0 0 0 0 0 0 3 0 0 0 0 0 0 0 34 53 23 27 14 30 41 45 46 35 75 98 100 86 90 131 142
32 18 30 14 7 10 21 30 7 0 1 7 2 3 0 0 0 0 0 0 0 0 0 0 0 0 2 0 11 155 169 109 138 122 169 207 171 137 159 213 182 141 95 95
52 33 51 16 71 112 73 1 1 0 7 8 0 0 0 0 0 0 0 0 0 0 0 0 0 0 0 8 12 164 159 196 170 224 280 323 293 271 156 140 215 85 58 2

GFSCGP_con_mucape_078.txt.gz
CAPE
0 0 0 0 0 0 0 0 0 0 0 0 1 0 0 0 0 10 0 0 13 69 101 160 132 81 15 101 94 8 3 3 0 4 0 1 0 0 11 4 0 0 0 20
0 0 0 36 0 0 5 0 0 0 0 0 0 0 0 0 0 0 1 3 2 35 77 232 215 102 5 24 34 7 12 2 0 0 1 1 1 0 3 5 6 9 0 23
0 0 0 1 13 0 0 0 0 0 0 0 1 0 0 0 0 0 0 0 0 29 45 220 332 258 0 12 0 4 14 14 3 3 0 0 0 4 9 0 0 1 1 42
5 4 0 0 0 0 0 0 0 0 0 0 5 0 0 0 0 0 0 0 0 0 31 213 386 348 72 5 0 0 4 6 3 6 3 0 0 0 2 7 3 5 2 17
0 0 0 0 0 0 0 0 0 0 0 0 0 0 0 0 0 0 0 0 0 0 1 107 391 385 279 42 13 0 0 6 10 0 1 6 5 5 0 4 1 6 5 16
1 2 0 0 0 0 0 0 0 0 0 0 0 0 0 0 0 0 3 1 0 0 0 23 422 405 295 85 4 0 0 9 9 0 3 10 53 3 0 2 1 6 0 5
0 1 0 0 0 0 0 0 0 0 0 0 0 0 0 0 0 2 0 0 0 0 0 4 344 361 311 141 12 10 0 5 9 14 6 0 0 0 0 0 6 3 1 4
0 0 0 0 0 0 0 0 0 0 0 0 0 0 0 0 0 0 0 0 0 2 19 2 185 408 383 262 38 0 0 0 2 3 5 3 3 9 2 0 2 0 0 1
0 0 0 0 0 0 0 0 0 0 0 1 9 2 0 0 0 0 0 0 0 0 0 0 23 462 441 366 75 0 0 0 0 2 3 13 4 21 10 4 4 0 0 6
0 0 3 0 0 0 0 0 0 0 0 0 6 56 7 0 0 0 0 5 0 3 43 36 26 519 497 473 261 57 0 0 19 2 0 3 28 11 6 14 4 3 0 0
10 0 0 0 0 0 0 0 0 0 0 0 0 5 73 8 0 27 21 0 6 34 35 8 57 356 600 596 440 186 43 0 3 39 11 0 1 5 5 26 16 4 10 0
22 3 0 0 1 0 10 0 0 0 0 0 0 14 3 0 0 0 0 0 0 0 1 30 37 216 470 602 553 400 192 23 2 11 32 25 29 10 8 28 5 7 8 7
0 0 0 3 14 11 0 0 0 0 0 0 0 3 0 1 5 0 4 0 0 0 0 1 0 93 199 554 557 563 377 207 57 14 47 51 37 49 46 43 55 29 31 1
2 0 9 32 19 0 0 5 0 11 0 0 0 0 0 0 0 2 0 0 0 0 6 4 0 0 178 341 588 548 586 394 216 126 50 60 64 65 52 31 43 118 72 49
1 1 0 0 14 3 0 7 0 0 0 0 0 0 22 0 2 1 0 0 0 0 0 0 0 0 1 25 556 547 562 624 394 237 171 70 92 111 102 70 62 63 64 84
0 0 0 0 1 0 0 0 0 0 0 0 0 0 5 0 1 0 5 0 0 0 0 1 0 2 5 14 3 147 539 580 596 443 370 211 102 84 141 138 94 73 58 63
26 1 0 0 3 0 0 0 0 0 12 13 0 36 65 32 21 1 0 9 1 0 0 0 0 0 2 27 45 0 39 318 591 621 550 440 279 161 136 173 131 117 88 61
0 5 25 0 0 0 0 0 1 3 5 12 51 65 5 1 0 0 3 18 0 0 0 0 0 0 11 35 24 13 15 0 64 609 631 593 512 359 281 202 171 158 130 102
35 11 34 0 0 0 0 1 0 0 0 0 5 28 2 0 0 36 12 9 0 0 0 2 1 0 0 0 0 1 18 21 68 0 554 595 551 463 382 336 311 245 172 134
29 83 61 49 0 0 0 0 23 10 1 40 33 9 1 0 8 9 6 0 3 0 0 0 0 0 0 0 0 0 0 0 27 12 16 116 564 448 407 377 392 359 258 193
40 56 3 0 0 4 5 22 15 51 82 20 15 12 0 0 0 0 0 5 51 0 0 0 0 0 0 0 0 0 0 0 40 35 17 21 181 520 416 384 365 387 337 275
26 29 0 1 0 0 20 20 15 104 47 15 8 2 0 0 0 0 0 65 12 3 0 0 0 0 0 0 0 0 0 0 0 40 45 31 38 396 460 415 360 365 332 300
70 30 39 7 6 56 167 154 55 23 1 3 1 0 1 0 0 0 0 1 0 0 0 0 0 0 0 0 0 0 0 0 1 0 0 41 51 161 293 323 332 286 240 283
61 29 86 65 40 95 23 33 18 0 0 0 0 0 0 0 0 0 0 0 0 0 0 0 0 0 0 0 0 0 0 2 2 0 31 78 29 46 153 233 290 298 339 310
64 73 16 10 0 7 0 0 7 0 0 0 0 0 0 0 0 0 0 0 0 0 0 0 0 0 0 0 0 0 0 0 7 6 56 124 101 126 69 144 284 392 295 304
119 8 11 90 2 8 2 0 4 0 0 0 0 0 0 0 0 0 0 0 0 0 0 0 0 0 0 0 0 0 0 0 0 42 94 69 176 205 199 224 155 119 131 178

GFSCGP_con_mucape_081.txt.gz
CAPE
0 0 0 0 0 0 0 0 0 0 0 0 0 0 0 0 0 0 0 0 0 2 12 7 8 0 0 0 0 0 51 0 35 12 0 5 0 3 3 19 12 7 1 5
0 0 0 0 0 0 0 1 0 0 0 0 0 0 0 0 0 0 0 0 0 0 14 35 15 13 0 0 0 0 1 7 7 2 6 5 1 0 1 10 16 14 11 8
0 0 0 0 0 0 0 2 1 3 4 0 0 0 0 0 0 0 0 0 0 4 18 37 29 27 0 0 0 0 1 2 3 3 6 0 0 0 0 3 9 10 3 4
0 0 0 0 0 0 0 0 9 0 0 4 0 0 0 0 0 0 0 0 0 0 21 60 48 23 25 0 0 0 0 0 1 7 0 1 0 7 0 0 0 1 11 10
0 0 0 0 0 0 0 0 0 0 0 10 0 0 0 0 0 0 0 0 0 0 7 77 51 37 46 31 0 0 0 3 6 0 0 3 0 0 0 0 4 2 4 17
0 0 0 0 0 0 11 0 0 0 0 3 1 0 0 0 0 0 0 0 0 0 2 108 78 89 96 79 6 0 0 4 1 0 0 2 2 0 2 0 0 16 11 10
0 0 0 0 0 13 0 0 0 1 0 0 0 0 0 0 0 0 0 0 0 0 0 117 149 170 171 146 64 0 0 0 2 3 3 2 1 3 2 1 0 19 14 5
0 0 0 0 0 0 0 0 1 2 0 0 0 0 0 0 0 0 0 0 0 0 0 169 220 228 236 185 120 44 0 0 0 4 2 2 5 1 1 6 5 6 13 15
0 0 0 0 0 0 0 0 0 0 0 0 0 0 0 0 0 0 0 0 0 0 4 249 288 289 263 211 148 98 36 0 0 1 0 1 0 0 0 4 5 1 0 6
0 0 0 0 0 0 0 0 0 0 0 0 0 0 12 0 0 0 0 0 0 5 9 87 340 315 250 232 181 144 111 25 0 0 0 4 0 0 2 1 3 1 3 0
0 0 0 0 0 0 0 0 0 0 0 0 0 5 2 0 0 0 0 1 0 0 8 22 54 313 284 284 252 187 165 122 2 0 0 1 7 7 9 2 4 2 3 0
5 5 0 0 0 0 0 0 0 0 0 0 0 9 0 0 0 0 1 12 4 2 2 0 1 286 352 321 299 268 224 208 158 0 0 0 0 0 4 4 1 6 3 2
0 6 0 0 10 29 0 0 0 0 0 0 0 16 0 0 0 0 0 1 2 0 3 0 0 0 369 430 373 320 284 260 235 198 25 6 0 0 0 0 1 4 3 2
0 0 6 0 69 2 0 0 0 0 0 0 0 2 0 0 0 0 4 0 0 0 0 1 0 0 9 28 384 394 355 307 273 290 247 37 20 6 0 0 0 0 0 0
0 0 0 0 11 5 0 0 1 0 0 0 0 0 0 0 0 0 0 0 0 0 2 1 0 0 0 0 47 180 368 506 422 317 299 291 174 34 32 34 28 2 0 0
10 0 0 0 0 5 8 0 0 0 0 0 0 0 0 3 3 0 0 0 0 0 0 0 0 0 1 0 0 0 34 302 475 479 403 328 279 208 86 59 64 57 55 55
24 3 0 0 0 0 0 0 0 0 29 2 0 12 12 0 0 0 32 3 0 0 0 0 0 0 0 0 2 1 0 48 73 139 451 440 314 253 228 186 156 125 68 52
8 0 0 0 0 0 0 9 0 0 4 7 32 49 5 2 1 1 7 11 0 0 0 0 0 0 0 0 0 0 1 2 8 4 20 167 397 456 362 306 274 262 199 137
13 3 0 0 0 0 0 0 0 0 0 0 22 30 2 0 1 0 5 0 0 0 0 0 0 0 0 0 0 0 0 0 0 5 7 0 96 471 506 543 439 374 292 236
3 2 1 0 0 0 0 0 0 20 0 3 0 0 1 0 0 24 16 0 0 0 0 0 0 0 0 0 0 0 0 0 0 0 0 5 0 1 58 383 518 546 463 352
2 0 0 0 0 0 19 35 31 11 9 0 0 0 0 0 2 0 0 0 0 0 0 0 0 0 0 0 0 0 0 0 0 0 0 0 19 15 0 35 390 483 543 457
1 0 10 0 0 0 37 30 46 25 3 0 5 8 22 22 9 5 0 0 0 0 0 0 0 0 0 0 0 0 0 0 0 0 0 0 0 0 28 7 137 383 410 519
24 0 0 0 0 65 67 79 21 26 26 10 12 48 33 19 4 0 0 0 0 0 0 0 0 0 0 0 0 0 0 0 0 0 0 0 0 0 0 8 43 251 345 447
3 0 32 13 32 27 18 4 5 0 2 11 0 0 0 0 1 0 0 0 0 0 0 0 0 0 0 0 0 0 0 0 0 0 0 0 0 0 0 1 6 50 198 339
28 25 0 7 12 7 12 18 1 5 7 8 1 0 0 0 0 0 0 0 0 0 0 0 0 0 0 0 0 0 0 0 0 0 0 0 0 0 0 3 46 28 69 145
6 5 7 0 0 1 0 2 0 0 0 0 0 0 0 0 0 0 0 0 0 0 0 0 0 0 0 0 0 0 0 0 0 0 0 0 0 0 0 0 1 16 98 100

GFSCGP_con_mucape_084.txt.gz
CAPE
0 0 0 0 0 0 0 0 0 0 0 0 0 0 0 0 0 0 0 0 0 0 0 31 33 129 141 103 47 0 0 3 2 3 1 19 0 1 14 41 53 53 19 14
0 0 0 0 0 0 0 0 0 0 0 0 0 0 0 0 0 0 0 0 0 0 0 47 27 61 76 62 26 0 0 5 10 4 3 0 0 0 7 20 13 25 9 7
0 0 0 0 0 0 0 0 0 0 0 0 1 0 0 0 0 0 0 0 0 0 0 38 35 49 41 58 29 0 0 5 4 1 10 4 0 0 0 6 8 24 6 6
0 0 0 0 0 0 0 0 0 0 0 0 0 0 0 0 0 0 0 0 0 0 0 47 52 56 70 65 47 0 0 5 7 4 3 3 0 0 0 0 12 15 4 8
0 0 0 0 0 0 0 0 0 0 0 0 0 3 0 0 0 0 0 0 0 0 0 13 60 72 83 57 60 0 0 1 0 5 3 3 4 0 0 0 0 2 6 9
0 0 0 0 0 0 0 0 0 0 0 0 0 4 0 0 0 0 0 0 0 0 0 2 67 74 108 64 64 6 0 1 1 18 3 3 0 0 1 0 0 0 2 5
0 0 0 0 0 0 0 0 0 0 0 0 0 0 0 0 0 0 0 0 0 0 0 3 59 108 126 82 68 36 0 0 2 11 6 4 5 0 0 0 0 4 1 8
0 0 0 0 0 0 0 0 0 0 0 0 0 0 0 0 0 0 0 0 0 0 6 57 75 118 137 96 82 65 0 0 0 4 9 2 6 0 0 2 0 0 0 4
0 0 0 0 0 0 0 0 0 0 0 0 0 1 0 15 0 0 0 0 0 0 33 84 107 141 148 152 133 108 20 0 0 0 6 9 4 2 1 2 3 0 0 6
0 0 0 0 0 0 0 0 0 0 0 0 0 39 52 1 0 0 0 0 0 0 45 87 141 193 199 219 213 154 91 12 0 0 0 6 3 3 2 3 2 2 1 0
4 0 0 0 0 0 0 0 0 0 0 0 0 65 16 0 0 0 0 0 0 1 50 130 205 293 305 280 272 201 135 100 55 3 0 0 0 3 7 1 0 4 2 5
0 8 0 0 0 0 0 0 0 0 2 0 0 6 0 0 0 0 0 0 3 0 0 66 330 321 312 292 349 301 210 164 164 135 32 0 2 0 1 2 2 5 1 1
0 2 0 0 2 2 0 0 0 0 0 1 0 0 0 0 0 0 0 0 7 6 3 116 236 279 414 380 341 269 303 218 217 234 209 173 33 1 0 3 8 5 1 3
0 0 0 0 3 2 0 0 0 0 0 0 0 0 12 0 0 0 0 0 0 4 7 12 9 42 88 198 351 335 305 324 240 241 215 227 260 173 19 0 0 2 1 3
0 0 0 0 0 0 1 0 0 0 0 0 0 0 0 0 0 0 0 0 0 1 0 0 2 0 14 14 41 69 121 140 250 327 283 292 302 217 130 125 51 0 0 0
10 0 0 0 0 0 0 0 42 1 0 0 0 0 0 0 0 0 0 0 0 0 0 0 0 0 0 0 0 0 0 3 20 156 324 235 218 321 356 257 175 104 67 5
4 0 0 0 0 0 0 0 8 4 0 0 0 0 0 0 0 0 0 0 0 0 0 0 0 0 0 0 0 0 0 0 0 22 76 160 196 165 214 185 186 213 232 173
11 0 0 0 0 0 0 0 0 2 0 5 24 12 47 0 0 1 3 0 4 9 2 0 0 0 0 0 0 0 0 0 0 0 1 6 41 114 229 212 144 154 197 196
22 16 0 0 0 0 0 0 0 0 0 0 7 9 17 1 0 0 1 1 0 0 0 0 0 0 0 0 0 0 0 0 0 0 0 0 0 1 8 118 179 187 184 206
16 17 0 0 0 0 0 5 4 4 0 14 25 13 3 0 0 0 0 0 0 0 0 0 0 0 0 0 0 0 0 0 0 0 0 0 0 0 0 0 0 0 121 158
4 6 0 0 0 0 0 18 24 1 0 14 36 44 14 0 0 3 17 8 0 0 0 0 0 0 0 0 0 0 0 0 0 0 0 0 0 0 0 0 0 0 0 64
5 1 0 0 0 0 9 71 53 6 31 31 36 34 35 6 3 2 12 5 0 0 0 0 0 0 0 0 0 0 0 0 0 0 0 0 0 0 0 0 0 0 0 1
0 0 2 0 0 20 33 47 32 31 36 31 26 39 48 36 13 0 0 0 3 0 0 0 0 0 0 0 0 0 0 0 0 0 0 0 0 0 0 0 0 0 0 0
0 0 2 17 33 7 27 44 42 62 62 37 34 32 14 19 28 0 4 0 0 0 0 0 0 0 0 0 0 0 0 0 0 0 0 0 0 0 0 0 0 0 0 0
21 10 0 1 8 10 6 4 0 21 22 19 3 16 0 0 3 0 0 0 0 0 0 0 0 0 0 0 0 0 0 0 0 0 0 0 0 0 0 0 0 0 0 0
0 0 0 2 0 1 1 7 0 0 0 2 0 0 0 0 0 0 0 0 0 0 0 0 0 0 0 0 0 0 0 0 0 0 0 0 0 0 0 0 0 0 0 0

GFSCGP_con_mucape_087.txt.gz
CAPE
0 0 0 0 0 0 0 0 0 0 0 0 0 0 0 0 0 0 0 0 0 0 0 0 31 214 326 370 285 123 49 19 0 0 0 2 7 10 8 37 7 34 55 62
0 0 0 0 0 0 0 0 0 0 0 0 0 0 0 0 0 0 0 0 0 0 0 0 75 232 324 342 437 72 8 4 0 0 0 0 5 4 4 3 16 29 55 27
0 0 0 0 0 0 0 0 0 0 0 0 0 0 0 0 0 0 0 0 0 0 0 0 58 202 250 238 204 118 0 1 0 0 1 0 1 0 0 7 18 31 42 31
0 0 0 0 0 0 0 0 0 0 0 0 0 0 0 0 0 0 0 0 0 0 0 0 9 102 170 119 81 44 0 8 0 0 0 2 0 0 0 3 4 7 10 38
0 0 0 0 0 0 0 0 0 0 0 0 0 0 0 0 0 0 0 0 0 0 0 0 66 94 75 60 63 52 24 6 3 0 0 0 2 0 0 0 3 5 13 38
0 0 0 0 0 0 0 0 0 0 0 0 0 0 0 0 0 0 0 0 0 0 0 0 37 55 58 47 63 65 32 3 2 3 0 0 0 0 2 1 0 0 21 14
0 0 0 0 0 0 0 0 0 0 0 0 0 0 0 0 0 0 0 0 0 0 0 0 0 38 77 63 73 83 41 18 2 10 6 2 2 0 1 1 0 0 0 3
0 0 0 0 0 0 0 0 0 0 0 0 0 0 0 1 0 0 0 0 0 0 0 0 6 10 92 102 106 88 60 31 0 2 3 2 0 0 0 0 0 0 1 2
0 0 0 0 0 0 0 0 0 0 0 0 0 0 0 9 0 0 0 0 0 0 0 0 0 8 61 140 160 150 69 44 2 4 3 6 3 1 0 0 0 0 0 0
0 0 0 0 0 0 0 0 0 0 0 0 0 0 109 36 1 0 0 0 0 0 0 0 0 18 54 172 190 173 108 74 0 2 3 3 1 1 1 1 0 0 0 0
1 1 0 0 0 0 0 0 0 0 0 0 0 32 57 43 0 0 0 0 0 0 22 67 34 5 51 169 206 189 154 136 37 0 1 2 1 4 3 1 2 2 1 0
0 0 0 0 0 0 0 0 0 0 0 58 0 0 100 8 3 0 0 0 0 0 231 179 123 92 116 206 261 188 183 179 100 100 27 0 1 6 7 2 2 3 3 4
0 0 0 1 9 7 4 16 0 0 0 0 0 0 12 29 0 5 0 0 26 16 229 314 309 278 245 237 209 202 224 202 208 189 164 154 149 85 11 5 3 5 7 4
0 0 0 0 0 2 2 9 0 0 0 13 0 0 36 0 0 0 0 0 7 151 222 313 369 379 355 332 292 268 227 226 250 229 259 208 144 170 145 67 5 0 0 3
0 0 0 0 0 0 0 0 0 0 0 0 0 0 17 1 0 0 0 0 0 2 20 52 89 97 95 129 105 85 112 183 282 278 159 174 109 155 164 119 105 93 64 7
1 0 0 0 0 0 0 0 0 0 3 0 0 0 0 1 26 0 0 0 0 0 11 16 30 32 19 11 10 0 0 1 57 111 110 74 50 78 67 52 118 135 139 116
0 0 0 0 0 0 0 0 6 6 0 0 0 0 5 5 0 0 0 0 0 0 0 0 0 3 0 0 0 0 0 0 0 4 12 59 122 83 126 76 96 111 93 99
0 0 0 0 0 0 0 0 0 0 6 0 0 0 37 0 0 0 0 0 0 0 0 0 0 0 0 0 0 0 0 0 0 0 0 0 6 6 21 76 119 146 100 65
1 0 0 0 0 0 0 0 0 0 0 0 0 0 3 9 0 0 27 25 2 6 0 0 3 0 3 0 0 0 0 0 0 0 0 0 0 0 0 1 3 18 37 81
0 6 0 0 0 0 0 0 1 9 0 0 0 10 29 32 0 52 28 1 0 0 0 1 0 0 0 0 0 0 0 0 0 0 0 0 0 0 0 0 0 0 0 0
0 0 0 0 0 0 0 0 6 0 0 6 47 34 49 34 44 52 51 40 0 0 7 0 0 0 0 0 0 0 0 0 0 0 0 0 0 0 0 0 0 0 0 0
0 0 0 0 0 0 0 7 7 3 17 8 42 40 37 15 27 22 32 19 16 4 0 0 0 0 0 0 0 0 0 0 0 0 0 0 0 0 0 0 0 0 0 0
7 3 0 0 0 0 1 1 6 28 23 24 32 70 46 34 28 18 23 26 3 0 0 0 0 0 0 0 0 0 0 0 0 0 0 0 0 0 0 0 0 0 0 0
0 3 0 0 0 0 10 38 39 21 12 11 31 39 35 32 36 2 7 1 0 0 0 0 0 0 0 0 0 0 0 0 0 0 0 0 0 0 0 0 0 0 0 0
0 0 0 1 0 3 5 22 46 36 24 14 21 35 28 18 6 4 0 0 0 0 0 0 0 0 0 0 0 0 0 0 0 0 0 0 0 0 0 0 0 0 0 0
0 1 0 0 0 0 0 0 0 1 10 0 0 0 0 1 1 0 0 0 0 0 0 0 0 0 0 0 0 0 0 0 0 0 0 0 0 0 0 0 0 0 0 0

GFSCGP_con_mucape_093.txt.gz
CAPE
0 0 0 0 0 0 0 0 0 0 0 0 0 0 0 0 0 0 0 0 0 0 0 0 0 0 0 74 335 365 200 268 163 167 113 78 3 15 25 29 73 20 1 27
0 0 0 0 0 0 0 0 0 0 0 0 0 0 0 0 0 0 0 0 0 0 0 0 0 0 0 32 276 137 147 293 167 179 14 0 0 3 19 16 8 30 9 27
0 0 0 0 0 0 0 0 0 0 0 0 0 0 0 0 0 0 0 0 0 0 0 0 0 0 0 57 223 23 104 307 188 90 0 0 10 3 14 28 33 50 23 31
0 0 0 0 0 0 0 0 0 0 0 0 0 0 0 0 0 0 0 0 0 0 0 0 0 0 30 104 248 25 77 320 206 40 0 1 3 8 12 0 0 3 3 11
0 0 0 0 0 0 0 0 0 0 0 0 0 0 0 0 0 0 0 0 0 0 0 0 0 0 34 176 339 33 96 307 216 28 0 0 4 2 15 0 5 12 12 4
0 0 0 0 1 0 0 0 0 0 0 0 0 0 0 0 0 0 0 0 0 0 0 0 0 0 49 236 329 40 53 282 184 10 0 3 1 2 23 0 0 1 10 3
0 0 0 4 5 0 0 0 0 0 0 0 0 0 0 0 0 0 0 0 0 0 0 0 0 0 92 288 95 45 64 215 123 1 2 1 1 1 13 0 0 0 1 3
0 0 0 1 1 0 0 0 0 0 0 0 0 0 0 0 0 0 0 0 0 0 0 0 0 0 162 335 98 73 81 227 131 15 0 4 2 9 17 4 0 0 3 7
0 0 0 0 0 0 0 0 0 0 0 0 0 0 0 0 0 0 0 0 0 0 0 0 0 0 122 351 208 34 274 247 144 33 0 4 2 9 13 0 0 0 0 3
0 0 0 0 0 0 0 0 0 0 0 0 0 0 0 8 0 0 0 0 0 0 0 0 0 0 87 285 68 81 253 255 131 48 18 4 2 3 8 0 0 4 8 7
0 0 0 0 0 0 0 0 0 0 0 0 0 0 45 22 18 35 29 0 0 0 2 9 12 6 79 166 14 147 409 227 108 84 39 6 10 4 5 0 0 0 7 0
8 4 1 1 0 0 0 0 0 0 0 0 0 0 13 19 14 30 0 0 0 0 37 92 64 61 66 15 13 214 150 194 156 146 65 0 11 0 5 12 7 0 0 0
13 10 71 8 9 3 0 0 1 0 0 0 0 0 25 5 6 32 0 0 1 71 134 233 202 235 191 164 189 322 136 182 165 137 91 0 0 3 3 19 12 4 2 3
33 19 10 5 1 0 0 0 0 0 0 0 0 0 0 0 0 19 0 0 0 109 184 250 258 65 32 46 192 165 254 236 185 178 131 106 54 23 5 5 13 16 11 3
3 2 0 0 0 0 0 0 0 0 0 0 0 0 0 0 0 28 0 0 0 0 130 132 274 140 63 154 380 226 407 194 188 136 169 129 104 105 95 78 45 32 27 5
0 2 0 0 0 0 0 0 0 0 0 0 0 0 0 3 0 0 0 1 0 0 3 0 41 188 230 244 153 160 212 206 178 152 156 32 42 76 82 78 73 46 40 40
0 0 0 0 0 0 0 0 0 0 0 1 0 1 13 0 0 0 0 6 0 0 0 8 8 49 52 68 99 138 115 137 105 65 20 13 11 11 12 43 69 48 42 36
0 0 0 0 0 0 0 0 0 0 0 0 0 6 21 0 0 0 0 0 0 0 0 0 0 1 5 16 41 64 101 95 71 0 0 11 25 29 49 72 84 82 49 102
0 0 0 0 0 0 0 0 0 0 0 0 0 9 0 0 0 0 0 0 0 0 0 0 0 0 0 0 0 9 0 44 0 0 0 1 0 0 7 28 25 18 12 12
0 0 0 0 0 0 0 0 0 2 0 0 0 22 0 4 0 0 0 0 0 1 0 0 0 0 0 0 0 0 0 0 0 0 0 0 0 0 0 0 0 0 0 0
0 0 0 0 0 0 0 0 0 0 0 4 1 3 7 26 17 15 0 0 0 3 7 0 0 0 0 0 0 0 0 0 0 0 0 0 0 0 0 0 0 0 0 0
0 0 0 0 0 0 0 0 0 0 0 3 4 3 14 12 12 22 2 1 3 1 6 1 0 0 0 0 0 0 0 0 0 0 0 0 0 0 0 0 0 0 0 0
0 8 0 0 0 0 0 0 0 0 0 1 7 7 10 7 2 2 4 0 0 0 0 0 0 0 0 0 0 0 0 0 0 0 0 0 0 0 0 0 0 0 0 0
0 0 0 0 0 0 0 0 1 1 0 3 10 7 1 0 0 0 0 0 0 1 0 0 0 0 0 0 0 0 0 0 0 0 0 0 0 0 0 0 0 0 0 0
0 0 0 0 0 0 0 0 0 0 0 0 0 0 0 0 0 3 2 0 0 0 0 0 0 0 0 0 0 0 0 0 0 0 0 0 0 0 0 0 0 0 0 0
0 0 0 0 0 0 0 0 0 0 1 0 0 0 0 0 0 0 0 0 0 0 0 0 0 0 0 0 0 0 0 0 0 0 0 0 0 0 0 0 0 0 0 0

GFSCGP_con_mucape_096.txt.gz
CAPE
0 0 0 0 0 0 0 0 0 0 0 0 0 0 0 0 0 0 0 0 0 0 0 0 0 0 0 0 213 948 1371 828 497 224 342 397 210 177 158 380 158 192 50 51
0 0 0 0 0 0 0 0 0 0 0 0 0 0 0 0 0 0 0 0 0 0 0 0 0 0 0 0 111 764 1245 486 404 502 515 156 156 192 81 102 64 112 31 4
0 0 0 0 0 0 0 0 0 0 0 0 0 0 0 0 0 0 0 0 0 0 0 0 0 0 0 3 210 577 1099 247 346 704 445 72 15 7 33 68 20 4 10 3
0 0 0 0 0 0 0 0 0 0 0 0 0 0 0 0 0 0 0 0 0 0 0 0 0 0 0 21 225 498 867 292 234 514 436 285 23 5 21 5 35 16 2 1
0 0 0 0 0 0 0 0 0 0 0 0 0 0 0 0 0 0 0 0 0 0 0 0 0 0 0 7 390 580 396 471 150 243 569 293 170 1 24 12 42 38 6 34
54 7 0 0 0 0 0 0 0 0 0 0 0 0 0 0 0 0 0 0 0 0 0 0 0 0 0 6 547 764 171 385 133 273 311 292 65 1 26 15 39 1 0 3
41 0 64 8 0 0 1 8 0 0 0 0 0 0 0 0 0 1 0 1 2 1 0 0 0 0 0 107 714 592 269 378 128 284 229 39 11 4 30 19 25 3 1 6
0 0 106 85 8 0 0 0 0 0 0 0 0 0 0 1 0 7 6 2 9 1 0 0 0 2 0 81 731 385 741 236 138 252 249 33 3 1 30 13 30 22 0 1
0 0 0 92 83 38 39 0 5 0 0 0 0 0 0 0 11 2 5 11 12 1 0 0 0 47 116 51 732 352 588 316 502 204 221 23 5 4 14 22 18 34 17 0
0 0 0 29 99 54 69 23 0 0 0 0 0 0 20 25 29 9 6 11 11 0 0 0 0 37 3 97 678 426 375 299 224 170 152 34 0 4 14 29 23 14 39 5
6 16 0 43 25 52 23 26 23 19 0 0 0 28 86 45 10 18 23 17 0 0 0 0 15 2 23 288 432 545 370 372 137 200 137 68 0 4 7 21 24 0 1 3
83 46 0 4 24 21 20 18 1 0 0 0 0 10 99 0 4 19 3 4 0 0 0 0 7 54 104 113 588 404 148 326 348 199 147 98 0 5 4 14 21 8 0 1
29 83 0 58 65 35 42 28 27 14 0 0 0 82 5 0 6 32 0 6 0 0 0 5 296 65 39 37 48 66 106 383 461 255 149 124 20 5 11 13 39 27 30 20
7 8 25 30 34 27 35 26 23 7 9 2 6 0 0 9 27 35 0 3 0 0 0 10 59 136 151 314 154 122 244 358 361 251 166 147 1 7 5 25 37 21 12 32
11 10 17 24 13 0 0 0 0 0 0 0 0 0 7 50 27 20 0 5 3 0 0 10 74 232 283 331 400 305 286 283 185 237 182 141 41 4 11 40 34 31 31 11
0 9 11 0 1 2 0 0 0 0 0 0 0 7 60 23 0 0 0 0 6 0 0 0 27 125 172 181 242 181 316 308 224 322 259 184 93 29 13 11 17 12 2 5
0 0 0 0 0 0 0 0 0 0 0 0 0 15 39 4 0 0 0 0 0 0 0 0 1 0 33 65 106 76 13 197 215 269 291 334 118 52 65 88 114 55 50 53
0 0 0 0 0 0 0 0 0 0 0 0 12 54 33 0 0 0 0 0 0 0 0 0 0 0 0 2 0 12 0 184 184 227 190 167 156 36 20 34 41 74 80 85
0 0 0 0 0 0 0 0 0 0 0 3 5 11 2 4 5 0 0 0 0 0 0 0 0 0 0 0 0 0 1 4 0 91 116 16 2 0 16 31 22 51 94 106
0 0 0 0 0 0 0 0 0 0 0 0 0 0 18 22 15 0 0 0 0 0 0 0 0 0 0 0 0 0 0 0 0 0 0 0 0 0 0 0 0 0 0 1
0 0 0 0 0 0 1 4 0 0 0 0 0 1 7 4 11 9 11 0 0 0 0 0 0 0 0 0 0 0 0 0 0 0 0 0 0 0 0 0 0 0 0 0
0 0 0 0 0 0 0 2 0 0 0 0 1 3 11 3 4 0 0 2 0 0 0 0 0 0 0 0 0 0 0 0 0 0 0 0 0 0 0 0 0 0 0 0
0 0 0 0 0 0 0 0 0 0 0 0 1 4 0 0 0 0 0 0 0 0 0 0 0 0 0 0 0 0 0 0 0 0 0 0 0 0 0 0 0 0 0 0
12 0 38 0 0 0 0 0 0 1 0 0 1 6 0 0 0 0 0 0 0 0 0 0 0 0 0 0 0 0 0 0 0 0 0 0 0 0 0 0 0 0 0 0
14 0 0 0 0 0 0 0 0 0 0 0 0 0 0 0 0 0 0 0 0 0 0 0 0 0 0 0 0 0 0 0 0 0 0 0 0 0 0 0 0 0 0 0
0 0 0 0 0 0 0 0 0 0 0 0 0 0 0 0 0 0 0 0 0 0 0 0 0 0 0 0 0 0 0 0 0 0 0 0 0 0 0 0 0 0 0 0

GFSCGP_con_mucape_099.txt.gz
CAPE
0 0 0 0 0 0 0 3 0 0 0 3 0 0 0 0 0 0 0 0 0 0 0 0 0 0 0 0 0 474 1626 2149 1437 1563 1014 765 758 626 565 449 529 419 461 432
18 0 0 0 0 0 0 0 0 0 0 9 0 0 0 0 0 0 0 0 0 0 0 0 0 0 0 0 0 33 917 1654 1531 1424 810 814 652 557 769 498 331 235 405 332
77 0 0 0 0 0 0 0 0 0 0 1 0 0 0 0 0 0 0 0 0 0 0 0 0 0 0 0 0 0 256 1213 1459 1018 1040 984 823 451 482 422 382 389 278 200
121 0 2 0 0 0 0 0 0 0 0 2 0 0 0 0 0 0 0 0 0 0 0 0 0 0 0 0 0 0 107 842 1268 1207 1234 1182 715 502 274 363 71 79 18 1
117 12 24 0 0 0 0 0 0 0 0 0 0 0 0 5 0 0 0 0 6 16 15 11 1 0 0 0 0 96 257 841 1010 1281 1382 1223 980 620 283 36 50 2 0 0
39 18 35 0 0 0 0 0 3 0 0 0 0 0 0 0 0 0 16 22 23 27 20 11 7 1 0 0 0 241 575 1269 820 924 1376 1192 1047 682 144 4 77 67 0 1
120 87 43 0 0 0 0 0 0 0 0 0 0 0 0 33 52 18 14 22 26 30 8 1 1 2 0 33 0 156 776 993 572 621 1143 1265 1097 617 122 80 34 14 0 2
93 110 15 0 0 0 0 0 1 0 2 1 0 0 0 78 34 37 17 33 30 36 13 0 0 2 1 66 3 251 961 551 266 739 1116 1160 1007 485 78 29 34 22 5 1
173 0 3 38 8 0 0 0 1 2 3 0 0 72 90 69 99 50 24 26 7 11 6 0 0 0 0 4 110 504 770 408 74 808 1025 1027 818 350 35 33 70 22 23 0
28 0 1 28 87 26 0 0 0 28 0 0 7 9 33 51 39 20 29 32 9 13 0 0 0 0 0 0 72 857 725 467 409 596 717 548 639 80 69 161 74 41 70 7
8 54 0 34 19 0 71 96 63 43 0 0 0 106 102 7 6 23 26 15 5 0 0 0 0 2 2 28 278 863 577 479 722 605 726 597 421 102 52 100 93 31 26 19
29 38 0 0 22 8 52 72 47 0 0 0 36 69 22 0 19 32 19 8 0 0 0 0 0 3 9 230 415 438 495 719 754 605 564 445 144 27 40 60 63 15 30 44
117 78 0 0 40 31 65 28 76 111 39 88 17 135 0 35 40 11 0 0 0 0 0 0 0 12 18 242 231 147 274 527 532 584 596 352 148 74 23 116 72 24 19 22
55 81 24 0 21 25 95 82 76 82 64 56 87 0 116 58 56 0 2 0 0 0 0 0 0 4 239 130 33 165 55 81 353 703 277 316 195 119 29 41 60 58 26 26
34 55 10 27 58 84 101 46 59 62 26 21 3 8 64 11 0 0 0 0 0 0 0 0 0 8 107 103 134 250 292 233 289 554 559 308 262 105 13 8 86 25 32 36
1 0 0 0 21 5 0 0 1 0 0 0 0 67 75 9 0 0 0 0 0 0 0 0 0 0 140 171 210 218 274 262 351 467 478 282 305 145 10 10 27 25 5 4
0 0 2 0 15 13 18 13 1 0 7 17 46 61 77 0 0 0 0 0 0 0 0 0 0 0 0 1 44 157 296 426 415 466 489 358 232 219 77 24 51 13 5 7
0 0 0 0 0 0 0 19 6 37 16 21 15 9 32 0 3 0 0 0 0 0 0 0 0 0 0 2 0 13 31 278 321 356 339 419 351 206 124 37 0 29 27 13
0 0 0 0 0 0 0 9 15 8 0 6 0 20 5 1 6 1 0 0 0 0 0 0 0 0 0 0 2 0 0 0 54 80 93 108 147 186 67 75 89 55 42 95
0 0 5 0 1 0 0 0 16 23 0 0 0 0 7 1 4 3 0 0 0 0 0 0 0 0 0 0 0 0 0 0 41 20 0 0 0 0 0 0 0 0 0 3
0 4 9 0 0 0 0 0 0 0 0 0 0 0 0 4 1 0 6 3 0 0 0 0 0 0 0 0 0 0 0 0 0 0 0 0 0 0 4 0 2 0 2 0
5 22 35 47 0 0 0 0 0 0 0 0 1 0 2 0 2 0 0 0 0 0 0 0 0 0 0 0 0 0 0 0 0 12 2 18 3 0 2 0 0 0 0 0
0 0 0 0 0 0 0 0 0 0 0 0 1 2 0 0 0 0 0 0 0 0 0 0 0 0 0 0 0 0 0 0 0 0 0 0 0 0 1 4 0 0 0 0
25 10 8 0 0 0 0 0 0 0 0 0 0 0 0 0 0 0 0 0 0 0 0 0 0 0 0 0 0 0 0 0 0 0 0 0 0 0 0 0 0 0 0 0
4 9 0 0 0 0 0 0 0 0 0 0 0 0 0 0 0 0 0 0 0 0 0 0 0 0 0 0 0 0 0 0 0 0 0 0 0 0 0 0 0 0 0 0
0 0 0 0 0 0 0 0 0 0 0 0 0 0 0 0 0 0 0 0 0 0 0 0 0 0 0 0 0 0 0 0 0 0 0 0 0 0 0 0 0 0 0 0

GFSCGP_con_mucape_102.txt.gz
CAPE
8 84 5 0 0 0 0 0 11 6 1 0 13 0 0 0 0 0 0 0 0 0 0 0 0 0 0 0 71 1642 2385 2128 1649 1018 973 1312 826 705 354 561 673 411 389 334
0 0 13 0 0 0 0 68 98 4 0 22 1 0 27 0 0 0 0 0 0 0 0 0 0 0 0 0 0 100 1904 2296 1740 1523 889 1165 985 442 309 377 504 393 393 381
0 0 94 0 0 0 2 26 19 8 39 27 7 9 0 1 1 0 0 0 0 1 0 0 5 12 35 59 75 0 481 1966 1950 1581 898 755 817 474 681 574 472 523 267 282
0 0 22 20 0 0 39 49 135 68 2 34 1 7 0 2 0 0 0 1 0 0 3 8 5 2 6 1 0 2 0 555 1884 1632 1098 811 728 639 455 487 371 426 267 178
0 0 3 86 0 0 28 83 92 27 0 1 0 0 0 0 0 0 0 16 27 35 12 0 0 0 0 0 0 10 0 2 1629 1521 1316 918 977 708 512 358 331 214 63 0
0 0 23 116 18 0 43 43 0 0 0 0 0 0 0 0 0 0 9 31 41 20 0 0 0 0 0 0 0 42 229 79 1604 1419 1232 1156 1167 774 532 343 236 31 1 0
1 0 16 81 26 16 57 34 3 0 0 0 0 0 0 0 0 39 71 67 47 5 0 1 0 0 0 0 0 0 24 134 1394 1363 1278 1450 1180 1135 664 313 70 45 1 2
0 176 14 64 23 2 0 0 15 0 0 0 0 0 0 33 61 34 95 44 26 10 3 2 0 0 0 0 0 0 5 338 1134 1049 1107 1340 1207 1139 632 335 177 56 1 11
123 68 24 13 11 0 0 0 20 143 9 0 0 0 0 36 32 62 29 25 17 0 0 0 0 0 0 0 0 0 6 413 929 888 620 1067 1154 1051 678 313 215 23 0 10
1 41 40 29 0 1 0 3 0 0 63 37 0 25 44 36 2 32 8 14 0 0 0 0 0 0 1 2 0 17 16 764 859 612 503 603 1086 1120 595 145 90 29 0 7
0 15 19 50 7 0 0 0 0 3 0 3 0 113 14 17 12 18 13 0 0 0 0 0 0 0 5 25 55 521 586 734 714 633 350 407 1138 923 506 117 113 31 5 0
24 51 0 0 17 43 16 21 0 24 0 0 5 0 21 55 54 12 0 0 0 0 0 0 0 0 2 47 269 418 356 490 521 249 68 371 942 928 350 156 103 64 64 0
64 23 5 0 0 2 12 4 36 76 1 0 15 62 46 9 0 0 0 0 0 0 0 0 0 0 12 14 88 123 96 266 140 204 630 703 746 568 367 117 77 46 72 10
107 58 7 1 4 9 3 0 34 25 0 0 0 0 9 0 0 0 0 0 0 0 0 0 0 0 9 9 31 55 125 248 50 221 383 636 628 555 413 122 85 157 158 72
0 0 0 3 23 7 3 14 6 34 13 0 13 68 0 0 0 0 0 0 0 0 0 0 0 0 12 21 12 26 14 23 31 18 305 368 399 406 265 147 135 51 59 18
0 0 0 0 22 0 0 0 0 0 0 28 68 17 0 0 0 0 0 0 0 0 0 0 0 0 0 21 6 29 24 27 36 56 57 284 262 538 281 217 171 94 95 106
0 0 0 0 0 1 0 0 8 0 0 0 0 0 3 0 0 0 0 0 0 0 0 0 0 0 0 0 0 0 32 41 84 145 260 312 289 572 268 263 219 408 42 50
0 0 0 0 0 0 0 27 0 0 0 0 0 0 0 0 0 0 0 0 0 0 0 0 0 0 0 0 0 0 0 15 43 150 283 306 471 414 489 215 218 59 6 10
0 0 0 0 0 0 0 0 0 0 0 0 0 0 1 1 1 0 0 0 0 0 0 0 0 0 0 0 0 0 0 0 2 39 202 111 147 329 422 359 123 31 11 10
3 35 19 0 0 0 0 0 0 0 0 0 0 0 0 1 4 0 0 0 0 0 0 0 0 0 0 0 0 0 0 0 0 0 3 0 127 29 99 52 17 5 5 2
1 27 15 0 0 0 0 0 0 0 0 0 0 0 0 2 1 0 0 0 0 0 0 0 0 0 0 0 0 0 0 0 0 0 0 0 0 0 0 0 0 0 0 0
0 6 0 0 0 0 0 0 0 0 0 0 0 1 1 1 0 0 0 0 0 0 0 0 0 0 0 0 0 0 0 0 0 0 0 0 0 0 0 0 0 1 0 0
0 0 0 0 0 0 0 0 0 0 0 0 0 0 0 0 0 0 0 0 0 0 0 0 0 0 0 0 0 0 0 0 0 0 0 0 0 0 4 1 0 0 0 0
23 14 0 0 0 0 0 0 0 0 0 0 0 0 0 0 0 0 0 0 0 0 0 0 0 0 0 0 0 0 0 0 0 0 0 0 0 0 2 1 2 9 7 2
3 9 0 0 0 0 0 0 0 0 0 0 0 0 0 0 0 0 0 0 0 0 0 0 0 0 0 0 0 0 0 0 0 0 0 0 0 0 0 0 0 0 0 0
0 0 0 0 0 0 0 0 0 0 0 0 0 0 0 0 0 0 0 0 0 0 0 0 0 0 0 0 0 0 0 0 0 0 0 0 0 0 0 0 0 0 0 0

GFSCGP_con_mucape_105.txt.gz
CAPE
0 0 0 19 0 0 0 0 5 0 0 32 68 34 0 0 0 0 0 0 0 0 0 0 0 0 0 0 1709 1891 1815 1779 1572 1243 1829 1587 1326 1016 652 729 826 785 623 606
5 0 0 0 81 7 0 1 16 2 7 100 57 47 0 0 0 0 0 0 0 0 0 0 0 0 0 0 1051 1896 1772 1722 1520 907 1527 1365 1122 1027 797 512 603 582 526 479
28 0 10 0 14 43 1 0 12 9 108 113 62 9 0 0 1 0 0 0 0 0 0 0 0 0 0 0 61 1944 1800 1626 1502 1208 1005 1192 858 696 1002 598 346 459 442 435
19 0 30 4 0 21 0 0 0 21 160 104 43 4 0 1 18 7 7 0 0 1 9 6 0 0 0 0 0 0 1897 1703 1497 1420 1119 709 408 330 410 187 350 229 305 225
2 0 0 0 1 21 3 6 7 10 93 64 25 11 0 52 23 23 0 27 13 18 22 8 0 0 0 0 0 0 0 825 1703 1530 1270 933 689 306 353 433 299 316 438 338
2 0 0 21 81 17 69 287 255 58 19 14 0 4 0 9 24 13 34 1 0 5 15 8 0 0 0 0 0 0 0 0 430 1312 1381 1088 737 469 448 353 338 291 307 289
0 0 0 0 0 7 138 125 21 32 0 0 0 0 0 0 4 15 1 0 0 0 0 5 12 2 0 0 0 0 0 0 0 1106 1222 1330 1112 877 699 574 501 270 239 176
0 0 0 0 5 7 13 22 1 0 0 0 0 0 0 4 16 10 5 4 0 0 1 1 1 0 0 0 0 0 0 0 1 1074 1189 1358 1233 930 883 706 581 274 276 125
0 0 0 16 27 2 7 22 26 11 57 50 0 2 81 144 12 17 4 2 0 1 2 0 0 0 0 0 0 0 0 0 0 763 1345 1215 1126 911 889 710 597 507 289 1
0 0 9 44 8 2 0 3 0 0 0 6 37 22 13 25 3 1 21 1 0 0 0 0 0 0 0 0 2 0 0 0 0 270 1384 1157 981 1091 977 863 662 510 311 0
0 1 22 44 97 1 0 1 0 0 3 0 24 82 0 0 0 0 0 0 0 0 0 0 0 0 0 2 9 44 227 46 203 904 964 791 830 883 742 708 630 451 331 2
7 0 0 0 0 3 17 0 2 1 0 1 17 2 0 0 0 0 0 0 0 0 0 0 0 0 0 5 10 143 445 392 421 503 546 390 286 713 739 791 943 576 86 1
7 18 0 3 0 0 0 3 0 2 0 0 1 0 0 0 0 0 0 0 0 0 0 0 0 0 2 4 14 69 107 136 121 259 87 61 336 644 427 704 1097 398 53 5
8 27 0 10 26 4 0 18 12 1 0 0 9 0 0 0 0 0 0 0 0 0 0 0 0 0 1 6 23 35 69 38 17 113 70 64 149 276 489 602 589 261 96 83
0 0 0 0 0 0 0 0 1 0 0 0 0 0 0 0 0 0 0 0 0 0 0 0 0 0 0 12 15 23 11 33 100 99 57 70 100 321 359 441 258 152 95 112
0 0 1 7 0 0 0 0 0 12 0 19 3 0 0 0 0 0 0 0 0 0 0 0 0 0 0 0 5 10 3 4 3 17 36 36 90 241 264 126 139 209 131 59
0 0 0 0 0 0 0 0 0 8 0 0 0 0 0 0 0 0 0 0 0 0 0 0 0 0 0 0 0 0 0 0 24 20 45 38 77 123 289 171 243 389 213 54
0 0 0 0 0 0 0 0 0 0 0 0 0 0 0 0 0 0 0 0 0 0 0 0 0 0 0 0 0 0 0 0 0 12 25 46 82 109 139 231 152 313 92 128
0 0 0 0 0 0 0 0 0 0 0 0 0 0 0 2 0 0 0 0 0 0 0 0 0 0 0 0 0 0 0 0 0 0 0 14 26 52 58 31 46 161 181 95
0 0 0 0 0 0 0 0 0 0 0 0 0 0 0 0 0 0 0 0 0 0 0 0 0 0 0 0 0 0 0 0 0 0 0 0 0 0 8 8 28 53 271 184
0 0 0 0 0 0 0 0 0 0 0 0 0 0 0 0 0 0 0 0 0 0 0 0 0 0 0 0 0 0 0 0 0 0 0 0 0 0 0 0 0 4 27 46
0 0 0 0 0 0 0 0 0 0 0 0 0 0 0 0 0 0 0 0 0 0 0 0 0 0 0 0 0 0 0 0 0 0 0 0 0 0 0 0 0 0 0 0
0 0 0 0 0 0 0 0 0 0 0 0 0 0 0 0 0 0 0 0 0 0 0 0 0 0 0 0 0 0 0 0 0 0 0 0 0 0 0 0 0 0 0 0
0 0 0 0 0 0 0 0 0 0 0 0 0 0 0 0 0 0 0 0 0 0 0 0 0 0 0 0 0 0 0 0 0 0 0 0 0 0 0 0 0 0 0 0
0 0 0 0 0 0 0 0 0 0 0 0 0 0 0 0 0 0 0 0 0 0 0 0 0 0 0 0 0 0 0 0 0 0 0 0 0 0 0 0 0 0 0 0
0 0 0 0 0 0 0 0 0 0 0 0 0 0 0 0 0 0 0 0 0 0 0 0 0 0 0 0 0 0 0 0 0 0 0 0 0 0 0 0 0 0 0 0

GFSCGP_con_mucape_108.txt.gz
CAPE
0 0 0 0 27 48 3 0 0 0 0 0 0 0 0 0 0 0 0 0 0 0 0 0 0 0 0 0 876 1496 1651 1795 1792 1673 1634 1712 1411 1154 962 807 837 632 831 918
0 0 0 4 2 0 1 46 0 0 0 2 8 18 11 0 0 0 0 0 0 1 0 0 0 0 0 0 504 1331 1534 1635 1723 1573 1635 1570 1505 1346 1344 1010 1122 734 499 683
0 0 0 11 3 0 0 0 0 0 0 15 59 6 0 3 23 0 0 0 0 0 4 0 0 0 0 0 864 1552 1517 1464 1581 1717 1604 1393 1432 1493 1262 893 792 797 638 454
0 0 0 6 0 7 0 1 8 7 0 0 89 0 22 7 1 1 0 8 36 15 3 0 0 0 0 0 220 1104 1840 1641 1536 1636 1456 1391 1221 1256 971 748 600 661 748 649
0 0 0 2 11 21 0 0 0 27 0 2 25 20 5 59 62 40 32 32 38 51 52 7 0 0 0 0 0 44 1156 2148 1674 1473 1334 1376 1205 1022 782 591 514 476 472 468
0 0 0 10 0 5 16 31 46 28 6 0 0 13 4 97 50 261 101 65 93 45 7 0 0 7 9 3 0 0 36 714 1233 1419 1394 1145 1029 955 687 424 406 101 138 96
0 0 0 0 0 0 1 22 0 0 0 0 0 29 0 261 327 98 142 66 94 25 6 0 0 4 16 7 5 0 0 0 3 43 933 1379 1241 924 662 499 303 137 196 96
0 0 0 0 0 0 2 0 0 0 10 0 15 0 35 42 29 63 52 56 59 28 3 2 1 10 4 2 1 1 0 0 0 0 34 938 1197 1174 917 638 538 511 336 161
0 0 0 0 0 0 0 0 7 18 9 0 4 53 59 36 27 0 5 17 5 3 0 0 0 0 0 0 0 0 0 0 0 0 0 442 1389 1071 1090 959 956 755 550 408
0 0 0 35 5 2 0 5 7 2 0 0 23 37 31 5 38 9 26 7 26 7 5 1 0 0 0 0 0 0 0 0 0 0 0 22 1089 1008 1030 1090 937 864 686 506
7 0 4 24 4 3 1 3 29 30 2 0 12 0 30 16 4 0 1 16 43 31 6 0 0 0 0 0 0 0 4 10 14 4 124 374 952 927 883 815 899 986 769 494
3 0 0 1 11 0 13 23 31 0 0 0 0 1 0 0 0 0 0 4 0 0 0 0 0 0 0 0 0 0 26 48 73 298 561 868 1039 777 747 786 820 1037 1005 341
0 6 0 1 0 0 0 6 14 0 0 0 0 0 0 0 0 0 0 2 0 0 0 0 0 0 0 0 1 4 31 37 155 230 336 470 525 343 267 666 668 551 672 362
1 5 0 0 2 0 0 44 0 0 1 0 0 0 0 0 0 0 0 0 0 0 0 0 0 0 0 0 12 11 7 8 21 57 117 70 74 105 86 342 547 571 512 155
0 0 0 0 0 0 0 0 0 0 0 0 0 0 0 0 0 0 0 0 0 0 0 0 0 0 0 0 1 10 9 16 6 6 11 44 76 82 92 162 69 143 210 53
0 0 0 0 0 0 0 0 0 0 0 0 0 0 0 0 0 0 0 0 0 0 0 0 0 0 0 0 0 6 2 7 4 14 21 29 32 37 46 8 113 92 99 196
0 0 3 0 0 0 1 0 0 0 0 0 0 0 0 0 0 0 0 0 0 0 0 0 0 0 0 0 0 0 1 1 0 4 1 1 6 23 61 65 57 34 54 115
0 0 0 0 0 0 0 0 0 0 0 0 0 0 0 0 0 0 0 0 0 0 0 0 0 0 0 0 0 0 0 0 0 0 4 7 3 9 16 36 24 32 56 43
0 0 0 0 0 0 0 0 0 0 0 0 0 0 0 1 0 0 0 0 0 0 0 0 0 0 0 0 0 0 0 0 0 0 0 0 0 2 26 24 11 9 23 24
0 0 0 0 0 0 0 0 0 0 0 0 0 0 0 0 0 0 0 0 0 0 0 0 0 0 0 0 0 0 0 0 0 0 0 0 0 0 1 0 0 1 11 0
0 0 0 0 0 0 0 0 0 0 0 0 0 0 0 0 0 0 0 0 0 0 0 0 0 0 0 0 0 0 0 0 0 0 0 0 0 0 0 0 0 0 0 0
0 0 0 0 0 0 0 0 0 0 0 0 0 0 0 0 0 0 0 0 0 0 0 0 0 0 0 0 0 0 0 0 0 0 0 0 0 0 0 0 0 0 0 0
0 0 0 0 0 0 0 0 0 0 0 0 0 0 0 0 0 0 0 0 0 0 0 0 0 0 0 0 0 0 0 0 0 0 0 0 0 0 0 0 0 0 0 0
0 0 0 0 0 0 0 0 0 0 0 0 0 0 0 0 0 0 0 0 0 0 0 0 0 0 0 0 0 0 0 0 0 0 0 0 0 0 0 0 0 0 0 0
0 0 0 0 0 0 0 0 0 0 0 0 0 0 0 0 0 0 0 0 0 0 0 0 0 0 0 0 0 0 0 0 0 0 0 0 0 0 0 0 0 0 0 0
0 0 0 0 0 0 0 0 0 0 0 0 0 0 0 0 0 0 0 0 0 0 0 0 0 0 0 0 0 0 0 0 0 0 0 0 0 0 0 0 0 0 0 0

GFSCGP_con_mucape_114.txt.gz
CAPE
0 0 0 0 0 0 0 0 0 0 0 0 0 0 0 0 0 0 0 0 0 0 0 0 0 0 0 1107 1567 1838 1978 1924 1884 1805 1649 1552 1127 958 822 701 585 579 701 838
0 0 0 0 0 0 0 0 0 0 0 0 0 0 0 0 0 0 0 0 0 0 0 0 0 0 0 0 769 1655 2111 2035 1971 2042 1894 1619 1303 1310 1152 1031 917 843 757 706
0 0 0 0 0 0 0 0 0 0 0 0 0 0 0 0 0 0 0 0 0 0 0 0 0 0 0 0 0 0 1349 2094 2061 1998 1898 1832 1692 1577 1240 1472 1137 1107 1007 953
0 0 0 0 0 0 0 0 0 0 0 0 0 0 0 0 0 4 13 8 2 0 0 0 0 0 0 0 0 35 869 1700 1756 1900 1861 1821 1729 1457 1412 1363 1374 1336 1168 1084
0 0 0 0 0 0 0 0 0 0 0 0 0 0 0 0 2 11 36 90 74 6 1 0 0 0 0 5 46 297 404 898 1342 1680 1759 2271 2035 1646 1559 1386 1426 1356 1305 1115
0 0 0 0 0 0 0 0 0 0 0 0 0 0 0 152 87 34 46 126 146 103 51 13 0 0 0 65 257 342 377 893 875 948 1697 1697 1950 1799 1538 1500 1217 1201 1171 1030
0 0 0 0 0 0 0 0 0 0 0 0 0 0 0 0 0 0 14 87 156 136 116 62 21 4 0 7 209 463 738 731 865 1093 1306 1629 1829 1715 1645 1551 1309 1281 1103 927
0 0 0 0 0 0 0 0 0 0 6 10 0 0 0 0 3 10 4 27 59 143 181 167 87 62 66 51 68 249 531 640 718 939 1489 1404 2074 1630 1748 1713 1565 1318 1055 897
0 0 0 0 2 0 0 0 0 1 0 0 0 0 6 0 0 1 9 20 16 166 119 194 194 193 209 227 183 87 90 179 305 681 653 890 1508 1636 1481 1480 1538 1253 1102 946
0 0 0 0 0 0 0 0 0 0 0 0 1 0 0 0 0 0 0 0 0 22 81 116 245 265 241 229 225 157 106 64 26 24 8 35 126 196 616 1223 1204 1204 1165 973
0 0 0 0 0 0 0 2 4 6 0 0 0 0 0 0 0 0 0 0 0 12 44 138 120 121 195 205 202 154 91 21 1 0 0 0 0 0 0 10 626 1159 910 983
0 0 0 0 0 0 0 0 0 0 0 0 0 0 0 0 0 0 0 0 0 10 39 38 51 43 82 43 35 36 34 25 2 0 0 17 0 1 17 93 207 494 946 785
0 0 0 0 0 0 0 0 0 0 0 0 0 0 0 0 0 0 0 0 0 0 30 0 0 1 0 22 32 30 1 0 0 0 0 12 53 65 21 28 365 292 716 833
0 0 0 0 0 0 0 0 0 0 0 0 0 0 0 0 0 0 0 6 4 0 0 4 0 0 0 0 0 0 0 0 5 4 15 40 48 122 166 275 74 532 624 237
0 0 0 0 0 0 0 0 0 0 0 0 0 0 0 1 0 1 1 0 0 0 0 0 0 0 0 0 0 0 0 1 12 9 19 24 24 13 16 21 48 96 115 226
0 0 0 0 0 0 0 0 0 0 0 0 0 0 0 0 0 0 0 0 0 0 0 0 0 0 0 0 0 0 0 0 7 9 9 14 10 13 3 8 55 39 41 26
0 0 0 0 0 0 0 0 0 0 0 0 0 0 12 0 0 1 0 0 0 0 0 0 0 0 0 0 0 0 0 0 0 0 0 0 0 1 12 4 1 0 1 0
0 0 0 0 0 2 0 0 0 0 0 0 0 0 0 0 0 0 0 0 0 0 0 0 0 0 0 0 0 0 0 0 0 0 0 0 1 7 10 10 2 2 8 3
0 0 0 0 2 0 0 0 0 0 0 0 0 0 0 0 0 0 0 0 0 0 0 0 0 0 0 0 0 0 0 0 0 0 0 0 0 0 1 0 1 4 0 1
0 0 0 0 1 0 0 0 0 0 0 0 0 0 0 0 0 0 0 0 0 0 0 0 0 0 0 0 0 0 0 0 0 0 0 0 0 0 0 0 0 0 0 0
0 0 0 0 0 0 0 0 0 0 0 0 0 0 0 0 0 0 0 0 0 0 0 0 0 0 0 0 0 0 0 0 0 0 0 0 0 0 0 0 0 0 0 0
0 0 0 0 0 0 0 0 0 0 0 0 0 0 0 0 0 0 0 0 0 0 0 0 0 0 0 0 0 0 0 0 0 0 0 0 0 0 0 0 0 0 0 0
0 0 0 0 0 0 0 0 0 0 0 0 0 0 0 0 0 0 0 0 0 0 0 0 0 0 0 0 0 0 0 0 0 0 0 0 0 0 0 0 0 0 0 0
0 0 0 0 0 0 0 0 0 0 0 0 0 0 0 0 0 0 0 0 0 0 0 0 0 0 0 0 0 0 0 0 0 0 0 0 0 0 0 0 0 0 0 0
0 0 0 0 0 0 0 0 0 0 0 0 0 0 0 0 0 0 0 0 0 0 0 0 0 0 0 0 0 0 0 0 0 0 0 0 0 0 0 0 0 0 0 0
0 0 0 0 0 0 0 0 0 0 0 0 0 0 0 0 0 0 0 0 0 0 0 0 0 0 0 0 0 0 0 0 0 0 0 0 0 0 0 0 0 0 0 0

GFSCGP_con_mucape_117.txt.gz
CAPE
0 0 0 0 0 0 0 0 0 0 0 0 0 0 0 0 0 0 0 0 0 0 0 0 0 0 0 0 675 1890 1947 1598 1344 1400 1092 755 845 629 636 963 985 729 779 896
0 0 0 0 0 0 0 0 0 0 0 0 0 0 0 0 0 0 0 0 0 0 0 0 0 0 0 0 112 1827 2101 1985 1485 1526 1367 1384 1188 996 803 749 740 835 918 673
0 0 0 0 0 0 0 0 0 0 0 0 0 0 0 0 0 0 0 0 0 0 0 0 0 0 0 0 0 1437 1981 2259 2004 1790 1593 1456 1405 1349 1130 984 835 908 1029 751
0 0 0 0 0 0 0 0 0 0 0 0 0 0 0 0 2 2 0 0 1 0 0 0 0 0 0 0 0 117 1782 2189 2070 1642 1793 1546 1555 1412 1451 1394 1090 1586 938 753
0 0 0 0 0 0 0 0 0 0 0 0 0 0 0 0 0 0 0 0 1 29 48 62 23 0 0 0 0 0 114 1788 1678 1700 1773 1698 1723 1868 1634 1533 1332 1142 1402 906
0 0 0 0 0 0 0 0 0 0 0 0 0 0 0 0 0 0 0 9 34 51 66 88 79 52 31 5 4 9 210 728 1331 1451 1905 1807 1966 1801 1674 1574 1570 1534 1325 1215
0 0 0 0 0 0 0 0 0 0 0 0 0 0 0 0 0 0 0 14 21 27 61 109 153 125 185 109 84 121 145 185 248 1028 1349 1635 1545 1587 1528 1579 1658 1592 1682 1280
0 0 0 0 0 0 0 0 0 0 0 0 0 0 0 0 0 0 0 1 40 12 78 120 185 182 173 250 222 223 93 130 268 589 783 796 1257 1336 1518 1804 1413 1465 1526 1421
0 0 0 0 0 0 0 0 0 0 0 0 0 0 0 0 0 0 0 0 41 83 95 116 174 246 229 215 340 480 427 371 463 396 946 706 1039 1342 1442 1575 1582 1290 1263 1385
0 0 0 0 0 0 1 0 16 0 0 0 0 0 0 0 0 0 0 0 0 14 26 85 166 193 264 312 292 251 237 339 359 371 525 609 753 992 1118 1052 1303 1100 1068 1107
0 0 0 0 0 0 0 0 0 49 0 0 0 0 0 0 0 0 0 0 0 0 1 88 159 258 297 313 280 324 229 157 119 122 103 91 105 221 294 392 665 961 785 920
0 0 0 0 0 0 0 0 0 0 0 0 0 0 0 0 0 0 0 0 0 0 2 26 118 124 193 225 306 269 241 235 122 39 29 1 0 0 0 0 1 34 634 538
0 0 0 0 0 0 0 0 0 0 0 0 0 0 0 0 0 0 0 0 0 0 0 3 91 19 217 165 143 154 138 143 59 63 27 12 41 9 8 11 33 27 81 266
0 0 0 0 0 0 0 0 0 0 0 0 0 0 0 0 0 0 0 0 0 0 0 0 0 0 1 12 16 44 30 14 18 27 36 22 14 38 250 189 43 117 98 185
0 0 0 0 0 0 0 0 0 0 0 0 0 0 0 0 0 0 0 0 0 0 0 0 0 0 0 0 0 0 0 0 0 0 9 14 7 41 8 0 19 151 80 12
0 0 0 0 0 0 0 0 0 0 0 0 0 0 0 0 0 0 0 0 0 0 0 0 0 0 0 0 0 0 0 0 0 0 0 5 6 19 28 2 5 16 33 17
0 0 0 0 0 0 0 0 0 0 0 0 0 0 0 0 0 0 0 0 0 0 0 0 0 0 0 0 0 0 0 0 0 0 0 0 0 0 5 19 16 12 5 9
0 0 0 0 0 0 0 0 0 0 0 0 0 0 0 0 0 0 0 0 0 0 0 0 0 0 0 0 0 0 0 0 0 0 0 0 0 1 10 9 1 11 6 4
0 0 0 0 0 0 0 0 0 0 0 0 0 0 0 0 0 0 0 0 0 0 0 0 0 0 0 0 0 0 0 0 0 0 0 0 0 0 0 0 0 0 1 5
0 0 0 0 0 0 0 0 0 0 0 0 0 0 0 0 0 0 0 0 0 0 0 0 0 0 0 0 0 0 0 0 0 0 0 0 0 0 0 0 0 0 0 0
0 0 0 0 0 0 0 0 0 0 0 0 0 0 0 0 0 0 0 0 0 0 0 0 0 0 0 0 0 0 0 0 0 0 0 0 0 0 0 0 0 0 0 0
0 0 0 0 0 0 0 0 0 0 0 0 0 0 0 0 0 0 0 0 0 0 0 0 0 0 0 0 0 0 0 0 0 0 0 0 0 0 0 0 0 0 0 0
0 0 0 0 0 0 0 0 0 0 0 0 0 0 0 0 0 0 0 0 0 0 0 0 0 0 0 0 0 0 0 0 0 0 0 0 0 0 0 0 0 0 0 0
0 0 0 0 0 0 0 0 0 0 0 0 0 0 0 0 0 0 0 0 0 0 0 0 0 0 0 0 0 0 0 0 0 0 0 0 0 0 0 0 0 0 0 0
0 0 0 0 0 0 0 0 0 0 0 0 0 0 0 0 0 0 0 0 0 0 0 0 0 0 0 0 0 0 0 0 0 0 0 0 0 0 0 0 0 0 0 0
0 0 0 0 0 0 0 0 0 0 0 0 0 0 0 0 0 0 0 0 0 0 0 0 0 0 0 0 0 0 0 0 0 0 0 0 0 0 0 0 0 0 0 0

GFSCGP_con_mucape_120.txt.gz
CAPE
0 0 0 0 0 0 0 0 0 0 0 0 0 0 0 0 0 4 1 0 0 0 0 0 0 0 0 0 0 0 0 1046 2264 1792 1524 1403 1505 1408 1428 1546 1618 1738 1572 2406
0 0 0 0 0 0 0 0 0 0 0 0 0 0 0 0 2 25 7 5 0 0 0 0 0 0 7 0 0 0 0 127 2119 2095 1777 1435 1544 1294 1253 1356 1564 1777 1537 1746
0 0 0 0 0 0 0 0 0 0 0 0 0 0 0 0 0 0 0 0 0 0 2 7 37 28 16 0 0 0 181 304 1862 1964 2149 1698 1602 1425 1290 1366 1580 1821 1668 1442
0 0 0 0 0 0 0 0 0 0 0 0 0 0 2 0 0 0 0 0 0 0 0 0 0 2 3 1 0 4 13 1042 2055 1972 2078 1666 1857 1694 1825 1622 1456 1363 1468 1634
0 0 0 0 0 0 0 0 0 0 0 4 0 0 10 0 0 0 0 0 0 0 1 7 24 20 10 12 0 0 29 1245 1806 1989 2032 1673 2142 2156 2221 2050 1753 1483 1414 1747
0 0 0 0 0 0 0 0 1 2 0 17 0 0 9 0 0 0 0 0 0 0 48 46 61 99 150 106 16 1 229 1150 1826 1809 2130 1745 1416 2230 2491 2092 2138 1675 1518 1315
0 0 0 0 0 0 0 25 79 90 186 80 12 6 0 0 0 0 0 0 0 2 23 11 76 142 148 193 235 81 118 1300 1397 1369 1824 1438 1353 1507 2511 2298 2185 1692 1566 1322
0 0 0 0 0 0 2 20 49 0 120 86 2 7 0 0 0 0 0 0 0 0 0 19 3 96 283 349 457 361 311 342 1194 1303 1518 918 1265 1749 1810 1817 2031 2057 1676 1705
0 0 0 0 0 0 6 30 24 19 31 31 32 0 0 0 0 0 0 0 0 1 12 21 79 164 205 310 379 304 381 410 360 707 583 856 898 982 1183 1152 1307 1366 1724 1475
0 0 0 0 0 2 21 7 10 89 55 102 46 0 0 0 0 0 0 0 0 0 57 70 118 137 219 399 384 191 249 253 276 464 462 586 690 606 669 924 1243 1344 1323 1404
0 0 0 0 4 11 23 36 0 12 46 74 78 0 0 0 0 0 0 0 0 0 6 109 141 278 261 258 348 26 204 288 260 259 215 287 412 299 529 742 985 1186 1295 906
0 0 0 0 2 0 0 0 0 4 36 87 5 0 0 0 0 0 0 0 0 0 0 50 167 246 262 384 292 158 160 66 157 89 40 83 79 109 146 207 348 352 387 575
0 0 0 12 24 0 0 0 0 0 0 0 0 0 0 0 0 0 0 0 0 0 0 3 111 136 161 232 205 248 135 126 129 101 72 43 22 18 31 25 32 40 22 41
0 0 0 0 0 0 0 0 0 0 46 0 0 0 0 0 0 0 0 0 0 0 0 0 0 1 36 86 159 116 156 117 97 68 36 32 93 104 83 145 104 49 131 172
0 0 1 0 0 0 0 0 0 0 0 0 0 0 0 0 0 0 0 0 0 0 0 0 0 0 0 1 1 6 5 24 50 147 63 5 13 6 4 5 2 8 83 147
7 0 46 0 0 0 0 0 0 0 0 0 0 0 0 0 0 0 0 0 0 0 0 0 0 0 0 0 0 0 0 0 0 0 0 0 0 0 6 2 0 0 1 16
0 0 0 2 0 0 0 0 0 0 0 0 0 0 0 0 0 0 0 0 0 0 0 0 0 0 0 0 0 0 0 0 0 0 0 0 0 0 0 2 5 10 11 4
0 0 0 2 0 0 0 0 0 0 0 0 0 0 0 0 0 0 0 0 0 0 0 0 0 0 0 0 0 0 0 0 0 0 0 0 0 0 0 2 1 5 12 3
0 0 0 0 48 0 0 0 0 0 0 0 0 0 0 0 0 0 0 0 0 0 0 0 0 0 0 0 0 0 0 0 0 0 0 0 0 0 0 0 0 0 0 0
0 1 5 0 0 0 0 0 0 0 0 0 0 0 0 0 0 0 0 0 0 0 0 0 0 0 0 0 0 0 0 0 0 0 0 0 0 0 0 0 0 0 0 0
0 0 0 0 0 0 0 0 0 0 0 0 0 0 0 0 0 0 0 0 0 0 0 0 0 0 0 0 0 0 0 0 0 0 0 0 0 0 0 0 0 0 0 0
0 0 0 0 0 0 0 0 0 0 0 0 0 0 0 0 0 0 0 0 0 0 0 0 0 0 0 0 0 0 0 0 0 0 0 0 0 0 0 0 0 0 0 0
0 8 0 0 0 0 0 0 0 0 0 0 0 0 0 0 0 0 0 0 0 0 0 0 0 0 0 0 0 0 0 0 0 0 0 0 0 0 0 0 0 0 0 0
0 0 0 0 0 0 0 0 0 0 0 0 0 0 0 0 0 0 0 0 0 0 0 0 0 0 0 0 0 0 0 0 0 0 0 0 0 0 0 0 0 0 0 0
0 0 0 1 0 0 0 0 0 0 0 0 0 0 0 0 0 0 0 0 0 0 0 0 0 0 0 0 0 0 0 0 0 0 0 0 0 0 0 0 0 0 0 0
0 0 0 0 0 0 0 0 0 0 0 0 0 0 0 0 0 0 0 0 0 0 0 0 0 0 0 0 0 0 0 0 0 0 0 0 0 0 0 0 0 0 0 0

GFSCGP_con_mucape_123.txt.gz
CAPE
0 0 0 0 0 0 0 0 0 0 0 0 0 0 0 0 14 0 0 0 0 0 0 0 0 0 0 0 0 0 0 0 0 2120 2337 2295 2085 1996 2020 1721 2231 2087 1887 2613
0 0 0 0 0 0 0 0 0 0 0 0 0 0 0 0 0 0 0 0 0 0 0 0 0 4 35 14 31 49 0 0 0 14 2295 2172 1964 1944 1978 1761 2170 2533 1944 1742
0 0 0 0 0 0 0 0 0 0 0 0 1 0 36 24 0 0 0 0 0 0 0 0 0 0 0 0 0 6 5 20 0 26 1980 1811 2222 1949 1800 1681 1999 2507 2123 1579
0 0 0 0 0 0 0 0 0 0 0 0 0 0 153 0 0 0 0 0 0 0 0 0 0 0 0 0 0 0 2 2 0 37 659 1715 1909 1746 1468 1714 1794 2261 2488 1670
0 0 0 0 0 0 0 0 0 0 2 28 29 160 218 0 0 0 0 0 0 0 0 0 0 0 0 0 0 0 0 14 9 0 551 2041 1637 2148 1894 1978 2013 2301 2482 2087
0 0 0 0 0 0 0 0 0 46 102 106 145 111 130 0 0 0 0 0 0 0 0 0 0 0 9 3 2 33 23 0 1 4 970 2344 1681 2162 1562 2032 2406 2201 1976 1898
0 0 0 0 0 1 0 10 0 45 47 139 34 86 0 0 0 0 0 0 0 0 0 0 0 0 73 87 68 111 101 17 89 253 882 863 1380 1433 2157 1660 1910 1901 1505 1467
0 0 0 0 0 0 0 16 0 0 0 77 47 148 0 0 0 0 0 0 0 0 0 0 0 0 6 55 100 107 154 238 324 202 639 1137 1021 843 946 528 35 1521 1627 1419
0 0 0 0 0 0 16 22 69 140 77 290 175 6 0 0 0 0 0 0 0 0 0 0 0 2 107 22 0 153 208 286 265 608 417 766 994 985 478 77 1 1029 1622 1436
0 0 0 0 0 0 4 26 35 113 115 148 134 1 0 0 0 0 0 0 0 0 0 0 0 82 149 1 77 229 309 294 298 464 609 527 755 822 421 15 28 447 890 1199
0 0 0 0 3 10 44 46 41 60 62 119 151 2 0 0 0 0 0 0 0 0 0 0 0 101 165 153 48 172 259 234 294 286 244 308 438 472 28 28 35 261 634 986
0 0 0 0 6 0 0 15 16 0 28 28 446 0 0 0 0 0 0 0 0 0 0 0 0 9 177 208 220 141 317 145 117 74 128 26 20 0 43 118 154 224 284 537
0 0 0 0 13 8 3 0 0 0 0 0 0 0 0 0 0 0 0 0 0 0 0 0 0 46 78 162 187 1 6 54 2 4 18 19 4 15 27 44 41 41 82 159
0 0 0 40 5 0 0 0 0 0 0 101 0 0 0 0 0 0 0 0 0 0 0 0 0 0 47 127 112 158 69 16 7 25 1 0 0 1 0 4 8 64 151 208
0 0 0 0 0 0 0 0 0 0 0 0 0 0 0 0 0 0 0 0 0 0 0 0 0 0 0 0 5 56 48 68 59 47 49 3 6 6 0 34 23 6 9 11
5 0 0 0 0 0 0 0 0 0 0 0 0 0 0 0 0 0 0 0 0 0 0 0 0 0 0 0 0 0 0 0 0 0 51 30 32 0 0 0 0 0 1 12
0 0 0 0 5 0 0 0 0 0 0 0 0 0 0 0 0 0 0 0 0 0 0 0 0 0 0 0 0 0 0 0 0 0 0 0 0 0 0 0 6 6 1 8
0 0 0 0 0 0 0 0 0 0 0 0 0 0 0 0 0 0 0 0 0 0 0 0 0 0 0 0 0 0 0 0 0 0 0 0 0 0 0 0 0 0 0 0
14 0 0 0 0 0 0 0 0 0 0 0 0 0 0 0 0 0 0 0 0 0 0 0 0 0 0 0 0 0 0 0 0 0 0 0 0 0 0 0 0 0 0 0
13 6 0 0 0 0 0 0 0 0 0 0 0 0 0 0 0 0 0 0 0 0 0 0 0 0 0 0 0 0 0 0 0 0 0 0 0 0 0 0 0 0 0 0
0 0 0 0 0 0 0 0 0 0 0 0 0 0 0 0 0 0 0 0 0 0 0 0 0 0 0 0 0 0 0 0 0 0 0 0 0 0 0 0 0 0 0 0
0 0 0 0 0 0 0 0 0 0 0 0 0 0 0 0 0 0 0 0 0 0 0 0 0 0 0 0 0 0 0 0 0 0 0 0 0 0 0 0 0 0 0 0
0 0 0 0 0 0 0 0 0 0 0 0 0 0 0 0 0 0 0 0 0 0 0 0 0 0 0 0 0 0 0 0 0 0 0 0 0 0 0 0 0 0 0 0
2 3 2 0 0 0 0 0 0 0 0 0 0 0 0 0 0 0 0 0 0 0 0 0 0 0 0 0 0 0 0 0 0 0 0 0 0 0 0 0 0 0 0 0
12 2 0 0 0 0 0 0 0 0 0 0 0 0 0 0 0 0 0 0 0 0 0 0 0 0 0 0 0 0 0 0 0 0 0 0 0 0 0 0 0 0 0 0
2 8 22 102 0 0 0 0 0 0 0 0 0 0 0 0 0 0 0 0 0 0 0 0 0 0 0 0 0 0 0 0 0 0 0 0 0 0 0 0 0 0 0 0

GFSCGP_con_mucape_126.txt.gz
CAPE
0 0 0 0 0 0 0 0 0 0 0 0 0 0 0 0 0 0 0 0 0 0 0 0 0 0 0 0 0 0 0 0 0 0 314 1401 1447 1107 1522 1578 1932 1947 1904 1981
0 0 0 0 0 0 0 0 0 0 0 0 0 0 0 0 0 0 0 0 0 0 0 0 0 0 0 0 0 0 0 0 0 0 0 313 986 1101 1175 1508 1570 1948 1813 1859
0 0 0 0 0 0 0 0 0 0 0 0 0 0 0 11 1 0 0 0 0 0 0 0 0 0 0 0 0 0 0 0 0 0 0 0 0 894 855 1267 1327 2220 1985 1875
0 0 0 0 0 0 0 0 0 0 0 0 0 0 0 33 4 0 0 0 0 0 0 0 0 0 0 0 0 0 0 0 0 0 0 0 0 312 707 1140 1243 2082 1973 1822
0 0 0 0 0 0 0 0 0 0 0 0 0 12 27 0 0 9 0 0 0 0 0 0 0 0 0 0 0 0 0 0 0 0 3 6 0 340 376 1061 1173 1572 1907 1618
0 0 0 0 0 0 0 0 0 0 0 0 23 20 0 0 0 5 0 0 0 0 0 0 0 0 0 0 0 0 0 0 0 0 0 21 2 67 573 961 890 1296 1817 1631
0 0 0 0 0 0 0 0 0 0 0 0 50 66 0 0 0 0 0 0 0 0 0 0 0 0 0 0 0 0 0 0 0 1 4 14 20 202 669 730 959 1094 1519 1601
0 0 0 0 0 0 0 0 0 0 0 0 15 15 0 0 0 0 0 0 0 0 0 0 0 0 0 0 0 0 0 8 22 0 8 11 7 4 191 335 250 892 1304 1495
1 2 0 0 0 0 0 0 14 0 0 0 30 0 0 0 0 0 0 0 0 0 0 0 0 0 0 0 0 0 0 11 10 15 18 60 40 17 436 250 0 247 850 806
0 4 0 0 0 0 0 0 0 53 0 0 12 7 1 0 0 0 0 0 0 0 0 0 0 0 0 0 0 0 0 12 26 45 78 38 120 52 61 204 132 55 273 0
0 0 0 0 0 0 1 0 13 28 35 0 0 0 0 0 0 0 0 0 0 0 0 0 0 0 0 0 0 0 7 14 18 151 256 289 253 146 25 82 14 53 52 70
0 4 0 0 1 0 0 0 0 0 0 8 1 0 0 0 0 0 0 0 0 0 0 0 0 0 0 0 0 0 32 53 1 188 283 243 327 162 86 59 160 21 27 9
1 0 0 3 4 0 0 0 0 0 0 0 0 0 0 0 0 0 0 0 0 0 0 0 0 0 0 0 0 4 0 10 7 155 76 96 10 48 58 1 0 1 0 0
0 1 2 8 0 0 0 0 0 0 0 0 0 0 0 0 0 0 0 0 0 0 0 0 0 0 0 0 0 0 15 1 5 0 0 1 0 3 1 1 0 14 5 6
0 0 0 7 1 0 0 0 0 0 0 0 0 0 0 0 0 0 0 0 0 0 0 0 0 0 0 0 0 0 0 0 0 0 0 0 0 0 3 0 0 27 26 21
0 0 0 0 0 0 0 0 0 0 0 0 0 0 0 0 0 0 0 0 0 0 0 0 0 0 0 0 0 0 0 0 0 0 0 0 0 0 0 0 0 1 21 3
49 11 0 0 24 0 0 0 0 0 0 0 0 0 0 0 0 0 0 0 0 0 0 0 0 0 0 0 0 0 0 0 0 0 0 0 0 0 0 0 0 2 1 4
29 9 0 0 30 0 0 0 0 0 0 0 0 0 0 0 0 0 0 0 0 0 0 0 0 0 0 0 0 0 0 0 0 0 0 0 0 0 0 0 0 0 0 0
0 10 0 0 0 0 0 0 0 0 0 0 0 0 0 0 0 0 0 0 0 0 0 0 0 0 0 0 0 0 0 0 0 0 0 0 0 0 0 0 0 0 0 0
0 60 0 0 0 0 0 0 1 0 0 0 0 0 0 0 0 0 0 0 0 0 0 0 0 0 0 0 0 0 0 0 0 0 0 0 0 0 0 0 0 0 0 0
0 0 0 0 0 0 0 0 0 0 0 0 0 0 0 0 0 0 0 0 0 0 0 0 0 0 0 0 0 0 0 0 0 0 0 0 0 0 0 0 0 0 0 0
0 0 0 0 0 0 0 0 0 0 0 0 0 0 0 0 0 0 0 0 0 0 0 0 0 0 0 0 0 0 0 0 0 0 0 0 0 0 0 0 0 0 0 0
0 0 0 0 0 4 0 0 0 0 0 0 0 0 0 0 0 0 0 0 0 0 0 0 0 0 0 0 0 0 0 0 0 0 0 0 0 0 0 0 0 0 0 0
0 0 0 0 0 0 0 0 0 0 0 0 0 0 0 0 0 0 0 0 0 0 0 0 0 0 0 0 0 0 0 0 0 0 0 0 0 0 0 0 0 0 0 0
0 0 0 0 0 0 0 0 0 0 0 0 0 0 0 0 0 0 0 0 0 0 0 0 0 0 0 0 0 0 0 0 0 0 0 0 0 0 0 0 0 0 0 0
0 4 0 50 0 0 0 0 0 0 0 0 0 0 0 0 0 0 0 0 0 0 0 0 0 0 0 0 0 0 0 0 0 0 0 0 0 0 0 0 0 0 0 0

GFSCGP_con_mucape_129.txt.gz
CAPE
0 0 0 0 0 0 0 0 0 0 0 0 0 0 0 0 0 0 0 0 0 0 0 0 0 0 0 0 0 0 0 0 0 0 0 0 0 4 921 915 1068 1432 2024 2271
0 0 0 0 0 0 0 0 0 0 0 0 0 0 0 0 0 0 0 0 0 0 0 0 0 0 0 0 0 0 0 0 0 0 0 0 0 0 0 174 838 1104 1341 1926
0 0 0 0 0 0 0 0 0 0 0 0 0 0 0 0 0 0 0 0 0 0 0 0 0 0 0 0 0 0 0 0 0 0 0 0 0 0 0 0 222 776 1189 1564
0 0 0 0 0 0 0 0 0 0 0 0 0 0 0 0 0 0 0 0 0 0 0 0 0 0 0 0 0 0 0 0 0 0 0 0 0 0 0 0 0 325 831 1387
0 0 0 0 0 0 0 0 0 0 0 0 0 0 0 3 0 0 5 0 0 0 0 0 0 0 0 0 0 0 0 0 0 0 0 0 0 0 0 0 0 314 480 1152
0 0 0 0 0 0 0 0 0 0 0 0 0 0 0 0 0 0 0 0 0 0 0 0 0 0 0 0 0 0 0 0 0 0 0 0 0 0 0 0 0 110 374 621
0 0 0 0 0 0 0 0 0 0 0 0 0 0 0 0 0 0 0 0 0 0 0 0 0 0 0 0 0 0 0 0 0 0 0 0 0 19 11 0 0 49 221 192
0 0 0 0 0 0 0 0 0 0 0 0 0 0 0 0 0 0 0 0 0 0 0 0 0 0 0 0 0 0 0 0 0 0 0 0 0 1 11 3 35 50 114 126
0 0 0 0 0 0 0 0 0 0 0 0 0 0 0 0 0 0 0 0 0 0 0 0 0 0 0 0 0 0 0 0 0 0 1 0 1 2 7 30 77 9 57 0
0 0 0 0 0 0 0 0 0 0 0 0 0 0 0 0 0 0 0 0 0 0 0 0 0 0 0 0 0 0 2 0 0 0 1 13 12 19 73 102 117 1 14 11
0 0 0 0 0 0 0 0 7 10 0 0 0 0 0 0 0 0 0 0 0 0 0 0 0 0 0 0 0 0 0 0 0 1 4 7 17 88 63 153 125 53 4 2
0 0 0 0 0 0 0 0 1 0 0 0 0 0 0 0 0 0 0 0 0 0 0 0 0 0 0 0 0 0 0 0 0 0 0 0 24 164 164 131 9 11 67 10
1 0 0 0 9 0 1 0 0 0 0 0 0 0 0 0 0 0 0 0 0 0 0 0 0 0 0 0 0 0 0 0 0 0 2 48 143 262 182 40 7 9 0 3
32 0 0 0 0 0 0 0 0 1 0 0 0 0 0 0 0 0 0 0 0 0 0 0 0 0 0 0 0 0 0 0 0 0 0 30 40 109 87 21 2 0 6 4
0 0 0 0 0 1 0 0 0 0 0 0 0 0 0 0 0 0 0 0 0 0 0 0 0 0 0 0 0 0 0 0 0 0 1 2 30 5 10 22 20 36 18 0
0 0 0 0 0 0 0 0 0 0 0 0 0 0 0 0 0 0 0 0 0 0 0 0 0 0 0 0 0 0 0 0 0 0 0 0 0 0 1 1 0 0 20 30
0 0 0 0 0 0 0 0 0 0 0 0 0 0 0 0 0 0 0 0 0 0 0 0 0 0 0 0 0 0 0 0 0 0 0 0 0 0 0 0 0 0 0 0
0 0 0 0 0 0 0 0 0 0 0 0 0 0 0 0 0 0 0 0 0 0 0 0 0 0 0 0 0 0 0 0 0 0 0 0 0 0 0 0 0 0 0 0
34 18 0 0 0 0 0 0 0 0 0 0 0 0 0 0 0 0 0 0 0 0 0 0 0 0 0 0 0 0 0 0 0 0 0 0 0 0 0 0 0 0 0 0
0 21 0 0 0 0 0 0 0 0 0 0 0 0 0 0 0 0 0 0 0 0 0 0 0 0 0 0 0 0 0 0 0 0 0 0 0 0 0 0 0 0 0 0
0 0 0 0 0 0 0 0 0 0 0 0 0 0 0 0 0 0 0 0 0 0 0 0 0 0 0 0 0 0 0 0 0 0 0 0 0 0 0 0 0 0 0 0
0 0 0 0 0 0 0 0 0 0 0 0 0 0 0 0 0 0 0 0 0 0 0 0 0 0 0 0 0 0 0 0 0 0 0 0 0 0 0 0 0 0 0 0
0 0 0 0 0 0 0 0 0 1 0 0 0 0 0 0 0 0 0 0 0 0 0 0 0 0 0 0 0 0 0 0 0 0 0 0 0 0 0 0 0 0 0 0
5 0 4 1 0 1 0 0 0 0 0 0 0 0 0 0 0 0 0 0 0 0 0 0 0 0 0 0 0 0 0 0 0 0 0 0 0 0 0 0 0 0 0 0
0 0 0 0 0 0 0 0 0 0 0 0 0 0 0 0 0 0 0 0 0 0 0 0 0 0 0 0 0 0 0 0 0 0 0 0 0 0 0 0 0 0 0 0
0 0 0 0 0 0 0 0 0 0 0 0 0 0 0 0 0 0 0 0 0 0 0 0 0 0 0 0 0 0 0 0 0 0 0 0 0 0 0 0 0 0 0 0

GFSCGP_con_mucape_132.txt.gz
CAPE
0 0 0 0 0 0 0 0 0 0 0 0 0 0 0 0 0 0 0 0 0 0 0 0 0 0 0 0 0 0 0 0 0 0 0 0 0 0 0 0 0 96 632 784
0 0 0 0 0 0 0 0 0 0 0 0 0 0 0 0 0 0 0 0 0 0 0 0 0 0 0 0 0 0 0 0 0 0 0 0 0 0 0 0 0 0 277 395
0 0 0 0 0 0 0 0 0 0 0 0 0 0 0 0 0 0 0 0 0 0 0 0 0 0 0 0 0 0 0 0 0 0 0 0 0 0 0 0 0 0 5 201
0 0 0 0 0 0 0 0 0 0 0 0 0 0 0 0 0 0 0 0 0 0 0 0 0 0 0 0 0 0 0 0 0 0 0 0 0 0 0 0 0 0 0 3
0 0 0 0 0 0 0 0 0 0 0 0 0 0 0 0 0 0 0 0 0 0 0 0 0 0 0 0 0 0 0 0 0 0 0 0 0 0 0 0 0 0 0 0
0 0 0 0 0 0 0 0 0 0 0 0 0 0 0 0 0 0 0 0 0 0 0 0 0 0 0 0 0 0 0 0 0 0 0 0 0 0 0 0 0 0 0 0
0 0 0 0 0 0 0 0 0 0 0 0 0 0 0 0 0 0 0 0 0 0 0 0 0 0 0 0 0 0 0 0 0 0 0 0 0 0 0 0 0 0 0 0
0 0 0 0 0 0 0 0 0 0 0 1 0 0 0 0 0 0 0 0 0 0 0 0 0 0 0 0 0 0 0 0 0 0 0 0 0 0 0 1 1 1 1 0
0 0 0 0 0 0 0 0 0 0 0 6 0 0 0 0 0 0 0 0 0 0 0 0 0 0 0 0 0 0 0 0 0 0 0 0 0 0 0 2 11 14 11 28
0 0 0 0 0 0 6 0 0 1 0 0 0 0 0 0 0 0 0 0 0 0 0 0 0 0 0 0 0 0 0 0 0 0 0 0 0 0 0 6 4 18 61 135
0 0 0 0 0 0 4 0 1 1 0 7 0 0 0 0 0 0 0 0 0 0 0 0 0 0 0 0 0 0 0 0 0 0 0 1 3 7 6 15 17 63 53 143
0 0 0 0 0 5 52 55 29 0 0 0 0 0 0 0 0 0 0 0 0 0 0 0 0 0 0 0 0 0 0 0 0 0 0 0 2 0 16 121 79 21 73 32
0 0 0 0 0 43 56 38 2 1 0 0 0 0 0 0 0 0 0 0 0 0 0 0 0 0 0 0 0 0 0 0 0 0 0 0 0 0 3 14 147 182 121 128
0 0 0 0 0 0 0 15 23 4 0 0 0 0 0 0 0 0 0 0 0 0 0 0 0 0 0 0 0 0 0 0 0 0 0 0 0 0 13 63 148 236 151 88
0 0 0 0 0 0 0 0 4 0 0 0 0 0 0 0 0 0 0 0 0 0 0 0 0 0 0 0 0 0 0 0 0 0 0 0 0 0 0 83 14 66 108 49
0 0 0 0 0 0 0 0 0 0 0 0 0 0 0 0 0 0 0 0 0 0 0 0 0 0 0 0 0 0 0 0 0 0 0 0 0 0 0 0 0 1 2 0
0 0 0 0 0 0 0 0 0 0 0 0 0 0 0 0 0 0 0 0 0 0 0 0 0 0 0 0 0 0 0 0 0 0 0 0 0 0 0 0 0 0 0 0
0 0 0 0 0 0 0 0 0 0 0 0 0 0 0 0 0 0 0 0 0 0 0 0 0 0 0 0 0 0 0 0 0 0 0 0 0 0 0 0 0 0 0 0
0 0 0 0 0 0 0 0 0 0 0 0 0 0 0 0 0 0 0 0 0 0 0 0 0 0 0 0 0 0 0 0 0 0 0 0 0 0 0 0 0 0 0 0
0 0 0 0 0 0 0 0 0 0 0 0 0 0 0 0 0 0 0 0 0 0 0 0 0 0 0 0 0 0 0 0 0 0 0 0 0 0 0 0 0 0 0 0
0 0 0 0 0 0 0 0 0 0 0 0 0 0 0 0 0 0 0 0 0 0 0 0 0 0 0 0 0 0 0 0 0 0 0 0 0 0 0 0 0 0 0 0
0 0 0 0 0 0 0 0 0 0 0 0 0 0 0 0 0 0 0 0 0 0 0 0 0 0 0 0 0 0 0 0 0 0 0 0 0 0 0 0 0 0 0 0
0 0 0 0 0 0 0 0 0 0 0 0 0 0 0 0 0 0 0 0 0 0 0 0 0 0 0 0 0 0 0 0 0 0 0 0 0 0 0 0 0 0 0 0
0 0 0 0 0 0 4 0 0 0 0 0 0 0 0 0 0 0 0 0 0 0 0 0 0 0 0 0 0 0 0 0 0 0 0 0 0 0 0 0 0 0 0 0
12 34 3 0 8 9 0 0 0 0 0 0 0 0 0 0 0 0 0 0 0 0 0 0 0 0 0 0 0 0 0 0 0 0 0 0 0 0 0 0 0 0 0 0
11 2 1 0 1 0 0 0 0 0 0 0 0 0 0 0 0 0 0 0 0 0 0 0 0 0 0 0 0 0 0 0 0 0 0 0 0 0 0 0 0 0 0 0